[[{"header":{"parameterUnit":"m.s-1","parameterCategory":1,"la1":30.6,"la2":28.766,"lo1":-90.7593,"lo2":-88.6598,"dy":0.0162,"dx":0.0183,"nx":116,"ny":114,"refTime":"2024-07-03T12:00:00:Z","depth":0,"parameterNumber":2,"parameterNumberName":"U-component_of_WINDS"},"data":[0.0,0.0,0.0,0.0,0.0,0.0,0.0,0.0,0.0,0.0,0.0,0.0,0.0,0.0,0.0,0.0,0.0,0.0,0.0,0.0,0.0,0.0,0.0,0.0,0.0,0.0,0.0,0.0,0.0,0.0,0.0,0.0,0.0,0.0,0.0,0.0,0.0,0.0,0.0,0.0,0.0,0.0,0.0,0.0,0.0,0.0,0.0,0.0,0.0,0.0,0.0,0.0,0.0,0.0,0.0,0.0,0.0,0.0,0.0,0.0,0.0,0.0,0.0,0.0,0.0,0.0,0.0,0.0,0.0,0.0,0.0,0.0,0.0,0.0,0.0,0.0,0.0,0.0,0.0,0.0,0.0,0.0,0.0,0.0,0.0,0.0,0.0,0.0,0.0,0.0,0.0,0.0,0.0,0.0,0.0,0.0,0.0,0.0,0.0,0.0,0.0,0.0,0.0,0.0,0.0,0.0,0.0,0.0,0.0,0.0,0.0,0.0,0.0,0.0,0.0,0.0,0.0,0.0,0.0,0.0,0.0,0.0,0.0,0.0,0.0,0.0,0.0,0.0,0.0,0.0,0.0,0.0,0.0,0.0,0.0,0.0,0.0,0.0,0.0,0.0,0.0,0.0,0.0,0.0,0.0,0.0,0.0,0.0,0.0,0.0,0.0,0.0,0.0,0.0,0.0,0.0,0.0,0.0,0.0,0.0,0.0,0.0,0.0,0.0,0.0,0.0,0.0,0.0,0.0,0.0,0.0,0.0,0.0,0.0,0.0,0.0,0.0,0.0,0.0,0.0,0.0,0.0,0.0,0.0,0.0,0.0,0.0,0.0,0.0,0.0,0.0,0.0,0.0,0.0,0.0,0.0,0.0,0.0,0.0,0.0,0.0,0.0,0.0,0.0,0.0,0.0,0.0,0.0,0.0,0.0,0.0,0.0,0.0,0.0,0.0,0.0,0.0,0.0,0.0,0.0,0.0,0.0,0.0,0.0,0.0,0.0,0.0,0.0,0.0,0.0,0.0,0.0,0.0,0.0,0.0,0.0,0.0,0.0,0.0,0.0,0.0,0.0,0.0,0.0,0.0,0.0,0.0,0.0,0.0,0.0,0.0,0.0,0.0,0.0,0.0,0.0,0.0,0.0,0.0,0.0,0.0,0.0,0.0,0.0,0.0,0.0,0.0,0.0,0.0,0.0,0.0,0.0,0.0,0.0,0.0,0.0,0.0,0.0,0.0,0.0,0.0,0.0,0.0,0.0,0.0,0.0,0.0,0.0,0.0,0.0,0.0,0.0,0.0,0.0,0.0,0.0,0.0,0.0,0.0,0.0,0.0,0.0,0.0,0.0,0.0,0.0,0.0,0.0,0.0,0.0,0.0,0.0,0.0,0.0,0.0,0.0,0.0,0.0,0.0,0.0,0.0,0.0,0.0,0.0,0.0,0.0,0.0,0.0,0.0,0.0,0.0,0.0,0.0,0.0,0.0,0.0,0.0,0.0,0.0,0.0,0.0,0.0,0.0,0.0,0.0,0.0,0.0,0.0,0.0,0.0,0.0,0.0,0.0,0.0,0.0,0.0,0.0,0.0,0.0,0.0,0.0,0.0,0.0,0.0,0.0,0.0,0.0,0.0,0.0,0.0,0.0,0.0,0.0,0.0,0.0,0.0,0.0,0.0,0.0,0.0,0.0,0.0,0.0,0.0,0.0,0.0,0.0,0.0,0.0,0.0,0.0,0.0,0.0,0.0,0.0,0.0,0.0,0.0,0.0,0.0,0.0,0.0,0.0,0.0,0.0,0.0,0.0,0.0,0.0,0.0,0.0,0.0,0.0,0.0,0.0,0.0,0.0,0.0,0.0,0.0,0.0,0.0,0.0,0.0,0.0,0.0,0.0,0.0,0.0,0.0,0.0,0.0,0.0,0.0,0.0,0.0,0.0,0.0,0.0,0.0,0.0,0.0,0.0,0.0,0.0,0.0,0.0,0.0,0.0,0.0,0.0,0.0,0.0,0.0,0.0,0.0,0.0,0.0,0.0,0.0,0.0,0.0,0.0,0.0,0.0,0.0,0.0,0.0,0.0,0.0,0.0,0.0,0.0,0.0,0.0,0.0,0.0,0.0,0.0,0.0,0.0,0.0,0.0,0.0,0.0,0.0,0.0,0.0,0.0,0.0,0.0,0.0,0.0,0.0,0.0,0.0,0.0,0.0,0.0,0.0,0.0,0.0,0.0,0.0,0.0,0.0,0.0,0.0,0.0,0.0,0.0,0.0,0.0,0.0,0.0,0.0,0.0,0.0,0.0,0.0,0.0,0.0,0.0,0.0,0.0,0.0,0.0,0.0,0.0,0.0,0.0,0.0,0.0,0.0,0.0,0.0,0.0,0.0,0.0,0.0,0.0,0.0,0.0,0.0,0.0,0.0,0.0,0.0,0.0,0.0,0.0,0.0,0.0,0.0,0.0,0.0,0.0,0.0,0.0,0.0,0.0,0.0,0.0,0.0,0.0,0.0,0.0,0.0,0.0,0.0,0.0,0.0,0.0,0.0,0.0,0.0,0.0,0.0,0.0,0.0,0.0,0.0,0.0,0.0,0.0,0.0,0.0,0.0,0.0,0.0,0.0,0.0,0.0,0.0,0.0,0.0,0.0,0.0,0.0,0.0,0.0,0.0,0.0,0.0,0.0,0.0,0.0,0.0,0.0,0.0,0.0,0.0,0.0,0.0,0.0,0.0,0.0,0.0,0.0,0.0,0.0,0.0,0.0,0.0,0.0,0.0,0.0,0.0,0.0,0.0,0.0,0.0,0.0,0.0,0.0,0.0,0.0,0.0,0.0,0.0,0.0,0.0,0.0,0.0,0.0,0.0,0.0,0.0,0.0,0.0,0.0,0.0,0.0,0.0,0.0,0.0,0.0,0.0,0.0,0.0,0.0,0.0,0.0,0.0,0.0,0.0,0.0,0.0,0.0,0.0,0.0,0.0,0.0,0.0,0.0,0.0,0.0,0.0,0.0,0.0,0.0,0.0,0.0,0.0,0.0,0.0,0.0,0.0,0.0,0.0,0.0,0.0,0.0,0.0,0.0,0.0,0.0,0.0,0.0,0.0,0.0,0.0,0.0,0.0,0.0,0.0,0.0,0.0,0.0,0.0,0.0,0.0,0.0,0.0,0.0,0.0,0.0,0.0,0.0,0.0,0.0,0.0,0.0,0.0,0.0,0.0,0.0,0.0,0.0,0.0,0.0,0.0,0.0,0.0,0.0,0.0,0.0,0.0,0.0,0.0,0.0,0.0,0.0,0.0,0.0,0.0,0.0,0.0,0.0,0.0,0.0,0.0,0.0,0.0,0.0,0.0,0.0,0.0,0.0,0.0,0.0,0.0,0.0,0.0,0.0,0.0,0.0,0.0,0.0,0.0,0.0,0.0,0.0,0.0,0.0,0.0,0.0,0.0,0.0,0.0,0.0,0.0,0.0,0.0,0.0,0.0,0.0,0.0,0.0,0.0,0.0,0.0,0.0,0.0,0.0,0.0,0.0,0.0,0.0,0.0,0.0,0.0,0.0,0.0,0.0,0.0,0.0,0.0,0.0,0.0,0.0,0.0,0.0,0.0,0.0,0.0,0.0,0.0,0.0,0.0,0.0,0.0,0.0,0.0,0.0,0.0,0.0,0.0,0.0,0.0,0.0,0.0,0.0,0.0,0.0,0.0,0.0,0.0,0.0,0.0,0.0,0.0,0.0,0.0,0.0,0.0,0.0,0.0,0.0,0.0,0.0,0.0,0.0,0.0,0.0,0.0,0.0,0.0,0.0,0.0,0.0,0.0,0.0,0.0,0.0,0.0,0.0,0.0,0.0,0.0,0.0,0.0,0.0,0.0,0.0,0.0,0.0,0.0,0.0,0.0,0.0,0.0,0.0,0.0,0.0,0.0,0.0,0.0,0.0,0.0,0.0,0.0,0.0,0.0,0.0,0.0,0.0,0.0,0.0,0.0,0.0,0.0,0.0,0.0,0.0,0.0,0.0,0.0,0.0,0.0,0.0,0.0,0.0,0.0,0.0,0.0,0.0,0.0,0.0,0.0,0.0,0.0,0.0,0.0,0.0,0.0,0.0,0.0,0.0,0.0,0.0,0.0,0.0,0.0,0.0,0.0,0.0,0.0,0.0,0.0,0.0,0.0,0.0,0.0,0.0,0.0,0.0,0.0,0.0,0.0,0.0,0.0,0.0,0.0,0.0,0.0,0.0,0.0,0.0,0.0,0.0,0.0,0.0,0.0,0.0,0.0,0.0,0.0,0.0,0.0,0.0,0.0,0.0,0.0,0.0,0.0,0.0,0.0,0.0,0.0,0.0,0.0,0.0,0.0,0.0,0.0,0.0,0.0,0.0,0.0,0.0,0.0,0.0,0.0,0.0,0.0,0.0,0.0,0.0,0.0,0.0,0.0,0.0,0.0,0.0,0.0,0.0,0.0,0.0,0.0,0.0,0.0,0.0,0.0,0.0,0.0,0.0,0.0,0.0,0.0,0.0,0.0,0.0,0.0,0.0,0.0,0.0,0.0,0.0,0.0,0.0,0.0,0.0,0.0,0.0,0.0,0.0,0.0,0.0,0.0,0.0,0.0,0.0,0.0,0.0,0.0,0.0,0.0,0.0,0.0,0.0,0.0,0.0,0.0,0.0,0.0,0.0,0.0,0.0,0.0,0.0,0.0,0.0,0.0,0.0,0.0,0.0,0.0,0.0,0.0,0.0,0.0,0.0,0.0,0.0,0.0,0.0,0.0,0.0,0.0,0.0,0.0,0.0,0.0,0.0,0.0,0.0,0.0,0.0,0.0,0.0,0.0,0.0,0.0,0.0,0.0,0.0,0.0,0.0,0.0,0.0,0.0,0.0,0.0,0.0,0.0,0.0,0.0,0.0,0.0,0.0,0.0,0.0,0.0,0.0,0.0,0.0,0.0,0.0,0.0,0.0,0.0,0.0,0.0,0.0,0.0,0.0,0.0,0.0,0.0,0.0,0.0,0.0,0.0,0.0,0.0,0.0,0.0,0.0,0.0,0.0,0.0,0.0,0.0,0.0,0.0,0.0,0.0,0.0,0.0,0.0,0.0,0.0,0.0,0.0,0.0,0.0,0.0,0.0,0.0,0.0,0.0,0.0,0.0,0.0,0.0,0.0,0.0,0.0,0.0,0.0,0.0,0.0,0.0,0.0,0.0,0.0,0.0,0.0,0.0,0.0,0.0,0.0,0.0,0.0,0.0,0.0,0.0,0.0,0.0,0.0,0.0,0.0,0.0,0.0,0.0,0.0,0.0,0.0,0.0,0.0,0.0,0.0,0.0,0.0,0.0,0.0,0.0,0.0,0.0,0.0,0.0,0.0,0.0,0.0,0.0,0.0,0.0,0.0,0.0,0.0,0.0,0.0,0.0,0.0,0.0,0.0,0.0,0.0,0.0,0.0,0.0,0.0,0.0,0.0,0.0,0.0,0.0,0.0,0.0,0.0,0.0,0.0,0.0,0.0,0.0,0.0,0.0,0.0,0.0,0.0,0.0,0.0,0.0,0.0,0.0,0.0,0.0,0.0,0.0,0.0,0.0,0.0,0.0,0.0,0.0,0.0,0.0,0.0,0.0,0.0,0.0,0.0,0.0,0.0,0.0,0.0,0.0,0.0,0.0,0.0,0.0,0.0,0.0,0.0,0.0,0.0,0.0,0.0,0.0,0.0,0.0,0.0,0.0,0.0,0.0,0.0,0.0,0.0,0.0,0.0,0.0,0.0,0.0,0.0,0.0,0.0,0.0,0.0,0.0,0.0,0.0,0.0,0.0,0.0,0.0,0.0,0.0,0.0,0.0,0.0,0.0,0.0,0.0,0.0,0.0,0.0,0.0,0.0,0.0,0.0,0.0,0.0,0.0,0.0,0.0,0.0,0.0,0.0,0.0,0.0,0.0,0.0,0.0,0.0,0.0,0.0,0.0,0.0,0.0,0.0,0.0,0.0,0.0,0.0,0.0,0.0,0.0,0.0,0.0,0.0,0.0,0.0,0.0,0.0,0.0,0.0,0.0,0.0,0.0,0.0,0.0,0.0,0.0,0.0,0.0,0.0,0.0,0.0,0.0,-1.5618,0.0,0.0,0.0,0.0,0.0,0.0,0.0,0.0,0.0,0.0,0.0,0.0,0.0,0.0,0.0,0.0,0.0,0.0,0.0,0.0,0.0,0.0,0.0,0.0,-0.7665,-0.7552,-0.742,-0.7404,-0.7381,-0.7349,0.0,0.0,0.0,0.0,0.0,-0.7499,-0.7853,-0.8622,-0.9809,-0.9883,-1.066,-1.2101,-1.1816,-1.145,-1.1002,0.0,0.0,0.0,0.0,0.0,0.0,0.0,0.0,0.0,0.0,0.0,0.0,0.0,0.0,0.0,0.0,0.0,0.0,0.0,0.0,0.0,0.0,0.0,0.0,0.0,0.0,0.0,0.0,0.0,0.0,0.0,0.0,0.0,0.0,0.0,0.0,0.0,0.0,0.0,0.0,0.0,0.0,0.0,0.0,0.0,0.0,0.0,0.0,0.0,0.0,0.0,0.0,0.0,0.0,0.0,0.0,0.0,0.0,0.0,0.0,0.0,0.0,0.0,0.0,0.0,0.0,0.0,0.0,0.0,0.0,0.0,-1.7537,0.0,0.0,0.0,0.0,0.0,0.0,0.0,0.0,0.0,0.0,0.0,0.0,0.0,0.0,0.0,0.0,0.0,0.0,0.0,0.0,0.0,-0.7723,-0.781,-0.7702,-0.7659,-0.7756,-0.7759,-0.7715,-0.7659,-0.7569,0.0,0.0,0.0,-0.725,-0.7553,-0.8068,-0.9252,-1.109,-1.1506,-1.2512,-1.4102,-1.4727,-1.4339,-1.3097,-1.2339,0.0,0.0,0.0,0.0,0.0,0.0,0.0,0.0,0.0,0.0,0.0,0.0,0.0,0.0,0.0,0.0,0.0,0.0,0.0,0.0,0.0,0.0,0.0,0.0,0.0,0.0,0.0,0.0,0.0,0.0,0.0,0.0,0.0,0.0,0.0,0.0,0.0,0.0,0.0,0.0,0.0,0.0,0.0,0.0,0.0,0.0,0.0,0.0,0.0,0.0,0.0,0.0,0.0,0.0,0.0,0.0,0.0,0.0,0.0,0.0,0.0,0.0,0.0,-2.2472,-2.3203,-2.3764,-2.3627,-2.3976,-2.4591,-2.273,-2.1358,-2.0378,-1.9157,0.0,0.0,0.0,0.0,0.0,0.0,0.0,0.0,0.0,0.0,0.0,0.0,0.0,0.0,0.0,0.0,0.0,0.0,0.0,-0.7791,-0.8256,-0.8196,-0.8521,-0.9557,-0.9066,-0.8707,-0.8697,-0.8213,0.0,0.0,-0.7115,-0.7447,-0.817,-0.8655,-0.9856,-1.1858,-1.3905,-1.5272,-1.6041,-1.6473,-1.7038,-1.7557,-1.5402,-1.4112,-1.3512,0.0,0.0,0.0,0.0,0.0,0.0,0.0,0.0,0.0,0.0,0.0,0.0,0.0,0.0,0.0,0.0,0.0,0.0,0.0,0.0,0.0,0.0,0.0,0.0,0.0,0.0,0.0,0.0,0.0,0.0,0.0,0.0,0.0,0.0,0.0,0.0,0.0,0.0,0.0,0.0,0.0,-1.1466,-1.3111,0.0,0.0,0.0,0.0,0.0,0.0,0.0,0.0,0.0,0.0,0.0,0.0,0.0,-2.0771,-2.1877,-2.3689,-2.463,-2.4723,-2.6618,-2.7561,-2.7673,-2.7755,-2.7859,-2.7958,-2.7664,0.0,-2.3418,-2.2224,0.0,0.0,0.0,0.0,0.0,0.0,0.0,0.0,0.0,0.0,0.0,0.0,0.0,0.0,0.0,0.0,0.0,0.0,0.0,0.0,0.0,-0.9044,-0.9663,-1.0803,-1.0607,-1.0261,-0.9936,-0.9663,-0.9097,-0.8144,-0.8104,-0.8482,-0.9298,-0.9992,-1.171,-1.4529,-1.6582,-1.7735,-1.8024,-1.8198,-1.8573,-1.9016,-1.7973,-1.6733,-1.5364,-1.3885,0.0,0.0,0.0,0.0,0.0,0.0,0.0,0.0,0.0,0.0,0.0,0.0,0.0,0.0,0.0,0.0,0.0,0.0,0.0,0.0,0.0,0.0,0.0,0.0,0.0,0.0,0.0,0.0,0.0,0.0,0.0,0.0,0.0,0.0,0.0,0.0,0.0,0.0,0.0,-1.1504,-1.3444,-1.4192,-1.4633,-1.4598,0.0,0.0,0.0,0.0,0.0,0.0,0.0,0.0,0.0,-2.2551,-2.3441,-2.433,-2.5239,-2.6631,-2.7413,-2.7541,-2.8698,-2.9289,-2.9356,-2.9322,-2.9356,-2.9457,-2.9457,-2.876,-2.7488,-2.5236,-2.3675,-2.2563,0.0,0.0,0.0,0.0,-2.1179,-2.1111,0.0,0.0,0.0,0.0,0.0,0.0,0.0,0.0,0.0,0.0,0.0,0.0,-0.9253,-0.998,-1.0924,-1.2184,-1.2143,-1.1872,-1.1424,-1.0964,-1.022,-0.9171,-0.8982,-0.9325,-1.0228,-1.1764,-1.394,-1.6778,-1.8412,-1.9331,-1.9527,-1.9527,-1.9676,-1.9925,-1.9799,-1.8847,-1.7293,-1.5562,-1.413,0.0,0.0,0.0,0.0,0.0,0.0,0.0,0.0,0.0,0.0,0.0,0.0,0.0,0.0,0.0,0.0,0.0,0.0,0.0,0.0,0.0,0.0,0.0,0.0,0.0,0.0,0.0,0.0,0.0,0.0,0.0,0.0,0.0,0.0,0.0,0.0,0.0,0.0,-1.3467,-1.516,-1.5461,-1.6545,-1.6794,0.0,0.0,0.0,0.0,0.0,0.0,-2.189,-2.2817,-2.4031,-2.5658,-2.649,-2.7267,-2.7996,-2.8925,-2.9501,-2.974,-3.0263,-3.0559,-3.0616,-3.0511,-3.0546,-3.0651,-3.0651,-3.0734,-3.0649,-2.7922,-2.6457,-2.5819,-2.476,-2.4258,-2.4204,-2.4787,-2.4733,-2.457,0.0,0.0,0.0,0.0,0.0,0.0,0.0,0.0,0.0,0.0,0.0,-0.8645,-0.9819,-1.0886,-1.2238,-1.4002,-1.3649,-1.3295,0.0,-1.1655,-1.0422,-0.9787,-0.9208,-0.9452,-1.0637,-1.3958,-1.6292,-1.7537,-1.8732,-1.96,-2.015,-2.015,-2.0491,-2.1097,-2.0597,-2.0047,-1.9423,-1.7623,-1.6541,-1.5858,0.0,0.0,0.0,0.0,0.0,0.0,0.0,0.0,0.0,0.0,0.0,0.0,0.0,0.0,0.0,0.0,0.0,0.0,0.0,0.0,0.0,0.0,0.0,0.0,0.0,0.0,0.0,0.0,0.0,0.0,0.0,0.0,0.0,0.0,0.0,0.0,0.0,0.0,0.0,-1.78,-1.8937,0.0,0.0,0.0,0.0,-2.0648,-2.2586,-2.425,-2.5396,-2.629,-2.7525,-2.9178,-2.8819,-2.9037,-2.9954,-3.0396,-3.0704,-3.0917,-3.1717,-3.2087,-3.2087,-3.2087,-3.2087,-3.2087,-3.2087,-3.2087,-3.1938,-3.01,-2.894,-2.8356,-2.7732,-2.7104,-2.6684,-2.7311,-2.7501,-2.7569,0.0,0.0,0.0,-0.8272,-0.8171,-0.8076,-0.7942,-0.7724,-0.7537,-0.7446,-0.848,-0.969,-1.0902,-1.2401,-1.407,-1.5874,-1.5494,-1.5138,-1.5138,-1.343,-1.2509,-1.2699,-1.175,-1.2291,-1.458,-1.6302,-1.7902,-1.9391,-1.9853,-2.0388,-2.0968,-2.0968,-2.1099,-2.1313,-2.1124,-2.0955,-2.0667,-1.8921,-1.7596,-1.6641,-1.5349,-1.3695,0.0,0.0,0.0,0.0,0.0,0.0,0.0,0.0,0.0,0.0,0.0,0.0,0.0,0.0,0.0,0.0,0.0,0.0,0.0,0.0,0.0,0.0,0.0,0.0,0.0,0.0,0.0,0.0,0.0,0.0,0.0,0.0,0.0,0.0,0.0,0.0,0.0,-2.0152,-2.1302,0.0,-2.0949,-2.2073,-2.3111,-2.3703,-2.52,-2.6605,-2.7769,-2.8698,-2.9571,-3.0456,-3.0663,-3.0972,-3.146,-3.146,-3.1567,-3.1784,-3.2074,-3.2218,-3.2218,-3.2218,-3.2218,-3.2218,-3.2218,-3.2218,-3.2164,-3.1512,-3.0866,-3.0269,-2.9672,-2.9319,-2.9124,-2.9374,-2.9442,-2.9482,-0.8293,-0.8293,0.0,-0.8272,-0.8152,-0.8035,-0.7942,-0.7687,-0.7554,-0.7679,-0.8971,-1.0401,-1.1749,-1.3513,-1.525,-1.6851,-1.6457,-1.61,-1.61,-1.4612,-1.3798,-1.3988,-1.3606,-1.4498,-1.6823,-1.7936,-1.9149,-2.0425,-2.0684,-2.1019,-2.1399,-2.1602,-2.1683,-2.1697,-2.1914,-2.1887,-2.164,-2.046,-1.9266,-1.8079,-1.7109,-1.5752,-1.4189,0.0,0.0,0.0,0.0,0.0,0.0,0.0,0.0,0.0,0.0,0.0,0.0,0.0,0.0,0.0,0.0,0.0,0.0,0.0,0.0,0.0,0.0,0.0,0.0,0.0,0.0,0.0,0.0,0.0,0.0,0.0,0.0,0.0,0.0,0.0,-2.1132,-2.2324,-2.3592,-2.4181,-2.369,-2.4812,-2.5862,-2.6587,-2.766,-2.8705,-2.9711,-3.0502,-3.1072,-3.1402,-3.1711,-3.2,-3.2218,-3.2,-3.2,-3.2218,-3.2218,-3.2218,-3.2218,-3.2218,-3.2218,-3.2218,-3.2218,-3.2218,-3.2218,-3.2218,-3.1938,-3.1544,-3.1151,-3.1015,-3.1015,-3.1015,-3.1015,-3.1015,-0.8293,-0.8293,-0.8276,-0.8217,-0.819,-0.8114,-0.7841,-0.7739,-0.7836,-0.8252,-0.9307,-1.066,-1.2346,-1.4137,-1.5715,-1.6892,-1.6457,-1.61,-1.61,-1.4951,-1.4029,-1.3471,-1.4656,-1.5865,-1.7054,-1.8818,-1.9999,-2.0522,-2.1114,-2.1399,-2.144,-2.2034,-2.2319,-2.2359,-2.2944,-2.2876,-2.2332,-2.2332,-2.1629,-2.041,-1.8669,-1.7957,-1.7644,0.0,0.0,0.0,0.0,0.0,0.0,0.0,0.0,0.0,0.0,0.0,0.0,0.0,0.0,0.0,0.0,0.0,0.0,0.0,0.0,0.0,0.0,0.0,0.0,0.0,0.0,0.0,0.0,0.0,0.0,0.0,0.0,0.0,-2.0192,-2.1549,-2.3018,-2.4376,-2.5875,-2.6626,-2.6263,-2.7577,-2.8713,-2.9302,-3.0029,-3.0694,-3.1292,-3.169,-3.2,-3.2182,-3.2,-3.2013,-3.2246,-3.2027,-3.204,-3.2236,-3.2259,-3.2246,-3.2246,-3.2218,-3.2218,-3.2218,-3.2218,-3.2218,-3.2218,-3.2218,-3.2218,-3.2218,-3.2218,-3.2218,-3.2218,-3.2218,-3.2218,-3.2218,-0.8293,-0.8293,-0.8276,-0.8217,-0.8121,-0.8,-0.7834,-0.7627,-0.7687,-0.8235,-0.9584,-1.1178,-1.2956,-1.4775,-1.6159,-1.6932,-1.6457,-1.61,-1.61,-1.4555,-1.3961,-1.4669,-1.6693,-1.8174,-1.894,-1.9827,-2.0572,-2.1155,-2.1318,-2.1616,-2.2074,-2.2224,-2.2524,-2.2957,-2.3134,-2.312,-2.2957,-2.2957,-2.251,-2.1694,-2.0328,-1.9035,-1.778,0.0,0.0,0.0,0.0,0.0,0.0,0.0,0.0,0.0,0.0,0.0,0.0,0.0,0.0,0.0,0.0,0.0,0.0,0.0,0.0,0.0,0.0,0.0,0.0,0.0,0.0,0.0,0.0,0.0,0.0,0.0,0.0,-2.2847,-2.2604,-2.4268,-2.5897,-2.6963,-2.796,-2.8662,-2.8831,-2.9469,-3.0033,-3.0478,-3.1133,-3.1598,-3.1938,-3.2051,-3.2146,-3.2218,-3.2146,-3.2349,-3.2857,-3.2783,-3.3,-3.342,-3.3023,-3.2857,-3.2843,-3.2409,-3.2218,-3.2218,-3.2218,-3.2218,-3.2218,-3.2218,-3.2218,-3.2218,-3.2218,-3.2218,-3.2218,-3.2218,-3.2218,-3.2218,-0.8293,-0.8293,-0.8276,-0.8217,-0.8085,-0.7949,-0.7827,-0.7568,-0.7707,-0.8567,-0.9854,-1.1384,-1.32,-1.4789,-1.5969,-1.658,-1.629,-1.5978,-1.5738,-1.4734,-1.4928,-1.6625,-1.8058,-1.9193,-2.0017,-2.0586,-2.1169,-2.1765,-2.1765,-2.2077,-2.2673,-2.2956,-2.3228,-2.3594,-2.3838,-2.3811,-2.3581,-2.3581,-2.3228,-2.2603,-2.1873,-2.0699,-1.9279,-1.8452,-1.7692,-1.6979,-1.6123,-1.5263,-1.4487,-1.4246,0.0,0.0,0.0,0.0,0.0,0.0,0.0,0.0,0.0,0.0,0.0,0.0,0.0,0.0,0.0,0.0,0.0,0.0,0.0,0.0,0.0,0.0,0.0,0.0,-2.3463,-2.5432,-2.576,-2.678,-2.7974,-2.9159,-2.9644,-3.0113,-3.0686,-3.084,-3.1076,-3.146,-3.1761,-3.2,-3.2182,-3.2218,-3.2327,-3.2572,-3.2585,-3.287,-3.343,-3.343,-3.3607,-3.3908,-3.3593,-3.343,-3.3417,-3.3078,-3.2779,-3.2585,-3.2585,-3.2436,-3.2218,-3.2218,-3.2218,0.0,0.0,0.0,0.0,0.0,-3.2218,-3.2218,-0.8293,-0.8293,-0.8269,-0.8197,-0.8071,-0.7942,-0.779,-0.756,-0.7842,-0.9061,-1.004,-1.1314,-1.3121,-1.4346,-1.5271,-1.586,-1.5969,-1.5824,-1.5335,-1.5376,-1.6381,-1.8595,-1.8826,-1.9388,-2.0491,-2.1087,-2.1656,-2.221,-2.2278,-2.2591,-2.3215,-2.3825,-2.4136,-2.4218,-2.4774,-2.4706,-2.4191,-2.4191,-2.3852,-2.3308,-2.3309,-2.2554,-2.1301,-2.0284,-1.9799,-1.9551,-1.85,-1.7366,-1.6322,-1.5797,0.0,0.0,0.0,0.0,0.0,0.0,0.0,0.0,0.0,0.0,0.0,0.0,0.0,0.0,0.0,0.0,0.0,0.0,0.0,0.0,0.0,0.0,0.0,0.0,-2.6011,-2.7762,-2.9032,-2.9109,-2.9555,-3.086,-3.0913,-3.1118,-3.1873,-3.1743,-3.178,-3.2182,-3.2104,-3.2094,-3.2277,0.0,0.0,0.0,0.0,-3.3444,-3.4002,-3.4002,-3.4043,-3.4111,-3.4043,-3.4002,-3.4002,-3.3935,-3.3623,-3.3196,-3.3196,-3.2857,-3.2314,-3.2314,-3.2273,-3.2218,-3.2218,-3.2218,-3.2218,-3.2218,-3.2218,-3.2218,-0.8293,-0.8293,-0.8243,-0.8078,-0.8021,-0.7914,-0.7679,-0.7545,-0.7924,-0.9195,-0.9807,-1.081,-1.2636,-1.3487,-1.4098,-1.4602,-1.5189,-1.5644,0.0,0.0,-1.7087,-1.8024,-1.9016,-1.9836,-2.0504,-2.1087,-2.1453,-2.1562,-2.2074,-2.2591,-2.3215,-2.3825,-2.4353,-2.4842,-2.4951,-2.4951,-2.4842,-2.4842,-2.4462,-2.396,-2.4447,-2.3328,-2.1366,-2.1097,-2.0454,-1.9673,-1.9429,-1.8894,-1.8255,-1.8133,-1.7386,-1.6362,-1.5761,0.0,0.0,0.0,0.0,0.0,0.0,0.0,0.0,0.0,0.0,0.0,0.0,0.0,0.0,0.0,0.0,0.0,0.0,0.0,0.0,-2.5559,-2.7755,-2.9592,-3.025,-3.0891,-3.1285,-3.1257,-3.1361,-3.1609,-3.2096,-3.1963,-3.1927,-3.2182,-3.2616,-3.2888,-3.2925,-3.3349,-3.3623,-3.3731,-3.3745,-3.4016,-3.4612,-3.4626,-3.4856,-3.5331,0.0,0.0,-3.4612,-3.4124,-3.384,-3.3745,-3.3745,-3.343,-3.2938,-3.2938,-3.2653,-3.2218,-3.2218,-3.2218,-3.2218,-3.2218,-3.2218,-3.2218,-0.8299,-0.8293,-0.8236,-0.8034,-0.8,-0.7906,-0.7642,-0.7537,-0.7834,-0.8772,-0.9576,-1.0514,-1.1709,-1.2387,-1.2968,-1.3545,-1.4426,0.0,0.0,-1.6661,-1.7529,-1.8737,-1.9374,-2.0093,-2.0938,-2.125,-2.1697,-2.2307,-2.2591,-2.3201,-2.4109,-2.4394,-2.472,-2.5005,-2.5005,-2.5005,-2.5005,-2.5005,-2.4842,-2.4585,-2.5129,-2.4142,-2.2289,-2.2257,-2.1713,-2.0896,-2.032,-1.9741,-1.9206,-1.8894,-1.8201,-1.7394,-1.7095,-1.6598,-1.5915,0.0,0.0,0.0,0.0,0.0,0.0,0.0,0.0,0.0,0.0,0.0,0.0,0.0,0.0,-2.2405,0.0,0.0,-2.6974,-2.8206,-2.9547,-3.0641,-3.1208,-3.1738,-3.1965,-3.1775,-3.1861,-3.1963,-3.2182,-3.2109,-3.2231,-3.264,-3.2938,-3.3237,-3.3485,-3.3745,-3.4043,-3.4341,-3.4355,-3.4639,-3.5222,-3.5236,-3.5385,-3.571,-3.5371,-3.5236,-3.5222,-3.4924,-3.4639,-3.4355,-3.4355,-3.4016,-3.3485,-3.3224,-3.2748,-3.2218,-3.2218,-3.2218,-3.2218,-3.2218,-3.2218,-3.2218,-0.8335,-0.8299,-0.8243,-0.8078,-0.8021,-0.7914,-0.7679,-0.7568,-0.7743,-0.8365,-0.9213,-1.0014,-1.0641,-1.1134,-1.1753,-1.262,0.0,0.0,0.0,-1.6769,-1.7923,-1.9632,-1.97,-2.0229,-2.1372,-2.1399,-2.1927,-2.3039,-2.3147,-2.3757,-2.4842,-2.4951,-2.5005,-2.5005,-2.5005,-2.5005,-2.5005,-2.5005,-2.5005,-2.5035,-2.54,-2.4688,-2.3316,-2.3238,-2.2718,-2.1913,-2.0862,-2.0152,-1.9605,-1.9002,-1.8391,-1.7902,-1.7902,-1.7576,-1.7054,-1.6457,-1.5856,0.0,0.0,0.0,0.0,0.0,0.0,0.0,0.0,0.0,-2.1016,-2.2422,-2.4044,-2.5588,-2.6858,-2.7824,-2.8923,-3.0499,-3.1034,-3.1397,-3.1823,-3.2073,-3.2218,-3.2218,-3.2218,-3.2218,-3.2218,-3.2218,-3.2463,-3.3047,-3.321,-3.3498,-3.4057,-3.4192,-3.4463,-3.4951,-3.4965,-3.5195,-3.571,-3.571,-3.571,-3.571,-3.571,-3.571,-3.571,-3.571,-3.5412,-3.4965,-3.4843,-3.4517,-3.4016,-3.3349,-3.2816,-3.2368,-3.2259,-3.2218,-3.2218,-3.2218,-3.2218,-3.2218,-0.838,-0.8341,-0.8269,-0.8197,-0.8071,-0.7942,-0.779,-0.7672,-0.7821,-0.8491,-0.8582,-0.8867,-0.959,-0.967,-1.031,-1.1882,0.0,0.0,-1.6037,-1.7163,-1.8378,-1.9646,-1.97,-2.0229,-2.1372,-2.1399,-2.1724,-2.2414,-2.2944,-2.354,-2.4204,-2.4761,-2.5005,-2.5005,-2.5005,-2.5005,-2.5005,-2.5005,-2.5005,-2.5007,-2.5058,-2.4585,-2.3777,-2.3361,-2.2502,-2.139,-2.0745,-2.0152,-1.9605,-1.9002,-1.8391,-1.7902,-1.7902,-1.7848,-1.7685,-1.7082,0.0,-1.6764,-1.6696,-1.7416,-1.8446,-1.9472,-2.0284,-2.1774,0.0,0.0,-2.5522,-2.7403,-2.8134,-2.8638,-2.9091,-2.9976,-3.0712,-3.094,-3.1591,-3.2028,-3.1913,-3.2073,-3.2218,-3.2218,-3.2218,-3.2218,-3.2218,-3.2218,-3.2463,-3.3047,-3.3552,-3.407,-3.4666,-3.5195,-3.5547,-3.5615,-3.5615,-3.5642,-3.571,-3.571,-3.571,-3.571,-3.571,-3.571,-3.571,-3.571,-3.5683,-3.5588,-3.5019,-3.4748,-3.4612,-3.3525,-3.3061,-3.2952,-3.2422,-3.2218,-3.2218,-3.2218,-3.2218,-3.2218,-0.8399,-0.8348,-0.8296,-0.8258,-0.8188,-0.8043,-0.7834,-0.7746,-0.7819,-0.8099,-0.8419,-0.8773,-0.9108,-0.9395,-0.9831,-1.0453,-1.2421,-1.4079,-1.5113,-1.6633,-1.8003,-1.9125,-1.951,-2.008,-2.087,-2.1223,-2.1683,-2.2305,-2.2537,-2.3126,-2.4017,-2.4664,-2.4955,-2.4914,-2.5342,-2.5122,-2.4462,-2.4462,-2.4258,-2.3974,-2.4321,-2.3872,-2.2958,-2.274,-2.1926,-2.0843,-2.0599,-1.9944,0.0,0.0,-1.8391,-1.7902,-1.7902,-1.7902,-1.7848,-1.7603,-1.7963,0.0,-1.9606,0.0,0.0,0.0,-2.3474,-2.4947,-2.6661,-2.7126,-2.757,-2.8839,-2.9591,-3.0097,-3.0458,-3.1077,-3.1536,0.0,-3.1983,-3.2182,-3.2109,-3.2146,-3.2218,-3.2218,-3.2218,-3.2218,-3.2218,-3.2218,-3.2562,-3.3512,-3.3772,-3.4328,-3.5249,-3.5574,-3.571,-3.571,-3.571,-3.571,-3.571,-3.571,-3.571,-3.571,-3.571,-3.571,-3.571,-3.571,-3.571,-3.571,-3.5412,-3.51,-3.4734,-3.3932,-3.3376,-3.3047,-3.2449,-3.2218,-3.2218,-3.2218,-3.2218,-3.2218,-0.8438,-0.8374,-0.8328,-0.8299,-0.8252,-0.8161,-0.7942,-0.7878,-0.7856,-0.7856,-0.8274,-0.8604,-0.8636,-0.9032,-0.9345,-0.9483,-1.1565,-1.329,-1.4242,-1.6127,-1.7622,-1.8569,-1.9146,-1.9781,-2.0468,-2.0938,-2.1521,-2.2305,-2.2305,-2.2857,-2.3923,-2.4319,-2.4529,-2.4569,-2.4977,-2.468,-2.3852,-2.3852,-2.3608,-2.3214,-2.3488,-2.2995,-2.2043,-2.1978,-2.1056,-1.9786,-1.9786,-1.9252,0.0,0.0,-1.7889,-1.7658,-1.7658,-1.778,-1.797,-1.831,-1.929,-2.0496,-2.149,0.0,0.0,-2.4482,-2.6094,-2.7619,-2.7913,-2.8565,-2.9349,-3.0093,-3.0575,-3.0954,-3.1251,-3.1546,0.0,-3.1938,-3.211,-3.2218,-3.2218,-3.2218,-3.2218,-3.2218,-3.2218,-3.2218,-3.2218,-3.2218,-3.2671,-3.3813,-3.3908,-3.4423,-3.5655,-3.571,-3.571,-3.571,-3.571,-3.571,-3.571,-3.571,-3.571,-3.571,-3.571,-3.571,-3.571,-3.571,-3.571,-3.571,-3.571,-3.5425,-3.4978,-3.4219,-3.365,-3.324,-3.2467,-3.2218,-3.2218,-3.2218,-3.2218,-3.2218,-0.8503,-0.8444,-0.8374,-0.8306,-0.8293,-0.8278,-0.8204,-0.8071,-0.8,-0.8,-0.8015,-0.803,-0.803,-0.816,-0.8583,-0.9429,-1.1232,-1.2744,-1.3754,-1.5931,-1.7468,-1.8088,-1.8576,-1.9347,-2.0491,-2.0508,-2.1114,-2.2305,-2.2305,-2.2857,-2.3884,-2.345,-2.3502,-2.3912,-2.3478,-2.3256,-2.3242,-2.3242,-2.3228,-2.3161,-2.2576,-2.1979,-2.1407,-2.1208,-1.9812,-1.7984,-1.7984,0.0,0.0,0.0,-1.6566,-1.7027,-1.7027,-1.7421,0.0,-1.9293,-2.0867,0.0,0.0,0.0,-2.5925,-2.6311,-2.7931,-2.9666,-3.0643,-3.1059,-3.1382,-3.2001,-3.1667,-3.13,-3.13,-3.1314,-3.1314,-3.1327,-3.1802,-3.2218,-3.2218,-3.2218,-3.2218,-3.2218,-3.2218,-3.2218,0.0,-3.2218,-3.2671,-3.3813,-3.3908,-3.4423,-3.5655,-3.571,-3.571,-3.571,-3.571,-3.571,-3.571,-3.571,-3.571,-3.571,-3.571,-3.571,-3.571,-3.571,-3.571,-3.571,-3.571,-3.571,-3.5601,-3.4395,-3.3894,-3.3772,-3.263,-3.2218,-3.2218,-3.2218,-3.2218,-3.2218,-0.8569,-0.8476,-0.8387,-0.8367,-0.8335,-0.8296,-0.8272,-0.8195,-0.8135,-0.8135,-0.8173,0.0,0.0,0.0,0.0,0.0,-1.0456,-1.1722,-1.2856,-1.5074,-1.6624,-1.7215,-1.8387,-1.9188,-1.9565,-1.9835,-2.0175,-2.0568,-2.0568,-2.0919,-2.1594,-2.1871,-2.2217,-2.2578,-2.2866,-2.2701,-2.2212,-2.2212,-2.2249,-2.2291,-2.1631,-2.1526,-2.1605,-2.0414,-1.9286,-1.8163,0.0,0.0,0.0,-1.6236,-1.6512,-1.7,-1.7,0.0,0.0,-1.9773,0.0,0.0,0.0,0.0,-2.7371,-2.8589,-2.9794,-3.0893,-3.1622,-3.1834,-3.1829,-3.1626,-3.111,-3.0581,-3.0161,-3.0127,-3.0263,-3.0635,-3.1205,-3.1721,-3.2151,-3.2218,-3.2218,-3.2218,-3.2218,0.0,0.0,0.0,0.0,-3.3295,-3.3691,-3.4246,-3.5046,-3.5506,-3.571,-3.571,-3.571,-3.571,-3.571,-3.571,-3.571,-3.571,-3.571,-3.571,-3.571,-3.571,-3.571,-3.571,-3.571,-3.571,-3.5628,-3.4395,-3.3908,-3.3786,-3.2643,-3.2218,-3.2218,-3.2218,-3.2218,-3.2218,-0.861,-0.8507,-0.8425,-0.8393,-0.8348,0.0,0.0,0.0,0.0,0.0,0.0,0.0,0.0,0.0,0.0,0.0,0.0,-1.1219,-1.2126,-1.4211,-1.5664,-1.625,-1.7188,-1.803,-1.8767,-1.8758,-1.9093,-1.9801,-1.9766,-2.0119,-2.0816,-2.1098,-2.1427,-2.1802,-2.2076,-2.191,-2.1384,-2.1269,-2.1327,-2.1476,-2.0632,-2.0495,-2.0703,-1.9539,-1.8418,0.0,0.0,0.0,0.0,-1.5467,0.0,0.0,0.0,0.0,0.0,0.0,0.0,-2.3242,0.0,-2.7358,-2.869,-3.0159,-3.1094,-3.1653,-3.1829,-3.187,-3.1572,-3.054,-2.9862,-2.9252,-2.8641,-2.8343,-2.86,-2.9876,-3.0391,-3.1002,-3.2069,-3.2218,-3.2218,-3.2218,-3.2395,0.0,0.0,0.0,0.0,-3.3074,-3.381,-3.4395,-3.4775,-3.5358,-3.571,-3.571,-3.571,-3.571,-3.571,-3.571,-3.571,-3.571,-3.571,-3.571,-3.571,-3.571,-3.571,-3.571,-3.571,-3.571,-3.5628,-3.4395,-3.3908,-3.3786,-3.2643,-3.2336,-3.2574,-3.2574,-3.2704,-3.2881,-0.8622,-0.8551,-0.8472,0.0,0.0,0.0,0.0,0.0,0.0,0.0,0.0,0.0,0.0,0.0,0.0,0.0,0.0,0.0,-1.1467,-1.3323,0.0,-1.5154,-1.5211,-1.6111,-1.8074,-1.7352,-1.7906,-1.986,-1.9719,-2.024,-2.1347,-2.0907,-2.0947,-2.1381,-2.0927,-2.0738,-2.0738,-2.0358,-2.0435,-2.0723,-1.961,-1.9055,-1.889,-1.8558,0.0,0.0,0.0,0.0,0.0,0.0,0.0,0.0,0.0,0.0,0.0,0.0,0.0,-2.5493,-2.7311,-2.8668,-2.9882,-3.1042,-3.1734,-3.2015,-3.1422,-3.1219,-3.0649,-2.8872,-2.7976,-2.7339,0.0,0.0,-2.6606,-2.8999,-2.9475,-3.0181,-3.196,-3.2246,-3.2259,0.0,0.0,0.0,0.0,0.0,0.0,-3.3142,0.0,-3.4761,-3.4788,-3.5358,-3.571,-3.571,-3.571,-3.571,-3.571,-3.571,-3.571,-3.571,-3.571,-3.571,-3.571,-3.571,-3.571,-3.571,-3.571,-3.571,-3.5628,-3.4395,-3.3908,-3.3824,-3.2717,-3.2668,-3.3262,-3.3262,-3.3665,-3.4041,0.0,0.0,0.0,0.0,0.0,0.0,0.0,0.0,0.0,0.0,0.0,0.0,0.0,0.0,0.0,0.0,0.0,0.0,0.0,0.0,0.0,0.0,0.0,-1.5888,-1.6907,-1.6534,0.0,0.0,0.0,-1.7922,-1.8167,-1.81,-1.8276,-1.8604,-1.8483,-1.8601,-1.8887,-1.8786,-1.9105,-1.9619,0.0,-1.8744,-1.9088,0.0,0.0,0.0,0.0,0.0,0.0,0.0,0.0,0.0,0.0,0.0,-2.2373,0.0,0.0,-2.6755,-2.8532,-2.9903,-3.1015,-3.1762,-3.1734,-3.1477,-3.1327,-3.0256,-2.8899,-2.7556,-2.6047,-2.4692,-2.3648,0.0,0.0,-2.7257,-2.9007,0.0,-3.2028,-3.2599,0.0,0.0,0.0,-3.3691,-3.3691,-3.4122,0.0,0.0,-3.3962,-3.4328,-3.4775,-3.5358,-3.571,-3.571,-3.571,-3.571,-3.571,-3.571,-3.571,-3.571,-3.571,-3.571,-3.571,-3.571,-3.571,-3.571,-3.571,-3.571,-3.5628,-3.4395,-3.4238,-3.4613,-3.3412,-3.3402,-3.4007,-3.4007,-3.3802,-3.3422,0.0,0.0,0.0,0.0,0.0,0.0,0.0,0.0,0.0,0.0,0.0,0.0,0.0,0.0,0.0,0.0,0.0,0.0,0.0,0.0,0.0,0.0,0.0,-1.465,-1.5631,-1.5495,-1.5725,0.0,0.0,0.0,0.0,-1.674,-1.6832,-1.6985,-1.6985,-1.7258,-1.7746,-1.7578,0.0,0.0,0.0,0.0,0.0,0.0,0.0,0.0,0.0,0.0,0.0,0.0,0.0,-1.9863,-2.1629,-2.2781,-2.3852,-2.5656,0.0,-2.799,-2.9781,-3.0961,-3.1762,-3.2137,-3.1734,-3.1015,-2.9957,-2.8736,-2.7176,-2.4895,-2.3608,0.0,0.0,0.0,0.0,0.0,0.0,0.0,-3.1544,-3.2558,-3.3101,0.0,-3.3824,0.0,-3.4287,-3.4599,-3.4761,0.0,-3.468,-3.4707,-3.4788,-3.5358,-3.571,-3.571,-3.571,-3.571,-3.571,-3.571,-3.571,-3.571,-3.571,-3.571,-3.571,-3.571,-3.571,-3.571,0.0,-3.571,-3.5628,-3.4395,-3.4162,-3.4426,-3.3541,-3.3665,-3.4346,-3.4647,-3.4728,-3.4614,0.0,0.0,0.0,0.0,0.0,0.0,0.0,0.0,0.0,0.0,0.0,0.0,0.0,0.0,0.0,0.0,0.0,0.0,0.0,0.0,0.0,0.0,0.0,-1.301,-1.4411,0.0,0.0,0.0,0.0,0.0,0.0,0.0,0.0,0.0,0.0,0.0,0.0,0.0,0.0,0.0,0.0,0.0,0.0,0.0,0.0,0.0,0.0,0.0,0.0,0.0,-2.0206,-2.1158,-2.2998,-2.4463,-2.5826,-2.756,-2.8488,-2.9329,-3.1073,-3.1883,-3.2191,-3.2218,-3.1687,-3.0535,-2.8125,-2.7006,-2.5471,-2.1993,0.0,0.0,-2.0274,0.0,-2.2226,-2.5181,0.0,-2.8546,-3.0961,-3.2354,-3.3129,-3.321,-3.4163,-3.4816,-3.4897,-3.491,-3.5127,-3.5683,-3.571,-3.5493,-3.4938,-3.5398,-3.571,-3.571,-3.571,-3.571,-3.571,-3.571,-3.571,-3.571,-3.571,-3.571,-3.571,-3.571,-3.571,-3.571,-3.571,0.0,-3.5506,-3.4355,-3.3892,-3.3892,-3.3406,-3.3699,-3.4514,-3.5059,-3.5705,-3.6258,0.0,0.0,0.0,0.0,0.0,0.0,0.0,0.0,0.0,0.0,0.0,0.0,0.0,0.0,0.0,0.0,0.0,0.0,0.0,0.0,0.0,0.0,0.0,0.0,0.0,0.0,0.0,0.0,0.0,0.0,0.0,0.0,0.0,0.0,0.0,0.0,0.0,0.0,0.0,0.0,0.0,0.0,0.0,0.0,0.0,0.0,0.0,0.0,0.0,0.0,-2.1047,-2.3052,-2.4869,-2.6651,-2.8293,-2.9566,-3.0341,-3.114,-3.25,-3.255,-3.2227,-3.234,-3.1419,-2.9854,-2.7485,-2.5728,0.0,0.0,0.0,-1.907,-1.8452,-1.961,0.0,-2.3987,0.0,0.0,0.0,0.0,-3.324,0.0,0.0,0.0,0.0,0.0,0.0,0.0,0.0,-3.5669,-3.5574,-3.5655,-3.571,-3.571,-3.571,-3.571,-3.571,-3.571,-3.571,-3.571,-3.571,-3.571,-3.571,-3.571,-3.571,-3.571,-3.571,0.0,-3.4897,-3.4192,-3.396,-3.4022,-3.3438,-3.4027,-3.5157,-3.4681,-3.496,-3.5497,0.0,0.0,0.0,0.0,0.0,0.0,0.0,0.0,0.0,0.0,0.0,0.0,0.0,0.0,0.0,0.0,0.0,0.0,0.0,0.0,0.0,0.0,0.0,0.0,0.0,0.0,0.0,0.0,0.0,0.0,0.0,0.0,0.0,0.0,0.0,0.0,0.0,0.0,0.0,0.0,0.0,0.0,0.0,0.0,0.0,0.0,0.0,0.0,0.0,0.0,-2.0324,-2.2632,-2.4761,-2.6489,-2.7994,-2.95,-3.0411,-3.1274,-3.2839,-3.3251,-3.3226,-3.2944,-3.1589,-2.9567,-2.6593,0.0,0.0,0.0,0.0,-1.778,-1.7495,0.0,0.0,0.0,0.0,0.0,0.0,0.0,0.0,0.0,0.0,0.0,0.0,0.0,0.0,0.0,0.0,-3.571,-3.571,-3.571,-3.571,-3.571,-3.571,-3.571,-3.571,-3.571,-3.571,-3.571,-3.571,-3.571,-3.571,-3.571,-3.571,-3.5696,-3.5358,0.0,-3.4721,-3.3865,-3.3729,-3.407,-3.3872,-3.4447,-3.54,-3.5432,-3.5672,-3.5911,0.0,0.0,0.0,0.0,0.0,0.0,0.0,0.0,-0.9694,-1.0507,-1.0949,-1.0784,-0.9725,-0.9093,0.0,0.0,0.0,0.0,0.0,0.0,0.0,0.0,0.0,0.0,0.0,0.0,0.0,0.0,0.0,0.0,0.0,0.0,0.0,0.0,0.0,0.0,0.0,0.0,0.0,0.0,0.0,0.0,0.0,0.0,0.0,0.0,0.0,0.0,0.0,0.0,-1.9027,-2.1172,-2.3382,-2.5257,-2.6976,-2.8652,-2.9829,-3.1019,-3.3009,-3.3783,-3.3949,-3.3474,-3.1839,-2.9436,-2.5854,-2.3079,0.0,0.0,0.0,-1.7,-1.7,0.0,0.0,0.0,0.0,0.0,0.0,0.0,0.0,0.0,0.0,0.0,0.0,0.0,0.0,0.0,0.0,0.0,-3.571,-3.571,-3.571,-3.571,-3.5871,-3.5871,-3.571,-3.6057,-3.6123,-3.5937,-3.6123,-3.6189,-3.6189,-3.6065,-3.601,-3.5983,-3.5338,0.0,0.0,-3.3941,-3.3759,-3.4172,-3.4263,-3.4747,-3.5464,-3.5864,-3.6226,-3.6492,0.0,0.0,0.0,0.0,0.0,0.0,0.0,0.0,-0.9852,-1.1147,-1.0822,-1.0435,-1.0317,-1.0254,0.0,0.0,0.0,0.0,0.0,0.0,0.0,0.0,0.0,0.0,0.0,0.0,0.0,0.0,0.0,0.0,0.0,0.0,0.0,0.0,0.0,0.0,0.0,0.0,0.0,0.0,0.0,0.0,0.0,0.0,0.0,0.0,0.0,0.0,0.0,0.0,0.0,-1.9037,-2.0614,-2.3395,-2.6328,-2.7581,0.0,0.0,-3.3608,-3.3868,-3.3427,-3.3462,-3.1871,-2.9341,-2.5679,0.0,0.0,0.0,-1.7258,-1.7,-1.7,-1.757,0.0,0.0,0.0,0.0,0.0,0.0,0.0,0.0,0.0,0.0,0.0,0.0,0.0,0.0,0.0,0.0,-3.571,-3.571,-3.571,-3.571,-3.6401,-3.6441,-3.571,-3.7127,-3.751,-3.678,-3.751,-3.7875,-3.7861,-3.7247,-3.6973,-3.6944,-3.6266,0.0,0.0,-3.5056,-3.4701,-3.4283,-3.4293,-3.4747,-3.5335,-3.4714,-3.5367,-3.6383,0.0,0.0,0.0,0.0,0.0,0.0,0.0,0.0,-0.9883,-1.1226,-1.1557,-1.1501,-1.1048,-1.1001,0.0,0.0,0.0,0.0,0.0,0.0,0.0,0.0,0.0,0.0,0.0,0.0,0.0,0.0,0.0,0.0,0.0,0.0,0.0,0.0,0.0,0.0,0.0,0.0,0.0,0.0,0.0,0.0,0.0,0.0,0.0,0.0,0.0,0.0,0.0,0.0,0.0,0.0,-1.7874,-1.9924,0.0,0.0,-2.7917,-2.9545,-3.2414,-3.3592,-3.3924,-3.3529,-3.1582,-2.8979,-2.6072,0.0,0.0,-1.7458,-1.6739,-1.6471,-1.6471,-1.7244,-1.8255,0.0,-1.9781,-2.1057,0.0,0.0,0.0,0.0,0.0,0.0,0.0,0.0,0.0,0.0,0.0,0.0,-3.5836,-3.6194,-3.6441,-3.6441,-3.7218,-3.7472,-3.7127,-3.7762,-3.7725,-3.7014,-3.735,-3.7295,-3.691,-3.6613,-3.6498,-3.6469,-3.5817,0.0,0.0,-3.4815,-3.4781,-3.496,-3.496,-3.54,-3.6022,-3.5737,-3.6006,-3.646,0.0,0.0,0.0,0.0,0.0,0.0,-0.929,-0.9401,-0.9804,-1.0957,-1.1557,-1.169,-1.1158,-1.0931,-1.0207,-0.8724,0.0,0.0,0.0,0.0,0.0,0.0,0.0,0.0,0.0,0.0,0.0,0.0,0.0,0.0,0.0,0.0,0.0,0.0,0.0,0.0,0.0,0.0,0.0,0.0,0.0,0.0,0.0,0.0,0.0,0.0,0.0,0.0,0.0,0.0,0.0,0.0,0.0,0.0,0.0,0.0,-2.6204,-2.8073,-3.0785,-3.2521,-3.3473,-3.2936,-3.0797,-2.8262,0.0,0.0,-1.877,-1.7426,-1.6669,-1.6273,-1.6354,-1.7204,-1.8079,-1.8632,-1.8556,-1.9432,-2.2344,0.0,0.0,0.0,0.0,0.0,0.0,0.0,0.0,0.0,0.0,0.0,0.0,-3.6401,-3.6907,-3.6679,-3.7438,-3.777,-3.7512,-3.7988,-3.7862,-3.7155,-3.7384,-3.727,-3.6807,-3.6615,-3.6527,-3.6482,-3.5853,0.0,0.0,-3.5152,-3.527,-3.5737,-3.5737,-3.6038,-3.6492,-3.6492,-3.6492,-3.6492,0.0,0.0,0.0,0.0,0.0,0.0,0.0,0.0,-0.9646,-1.0317,-1.0428,-1.0428,-1.0404,-0.9812,-0.9378,-0.9295,0.0,0.0,0.0,0.0,0.0,0.0,0.0,0.0,0.0,0.0,0.0,0.0,0.0,0.0,0.0,0.0,0.0,0.0,0.0,0.0,0.0,0.0,0.0,0.0,0.0,0.0,0.0,0.0,0.0,0.0,0.0,0.0,0.0,0.0,0.0,0.0,0.0,0.0,0.0,0.0,-2.3999,-2.6954,-2.8909,-3.0412,-3.1439,-3.1439,-2.9396,-2.7057,0.0,-2.193,-1.8685,-1.8259,-1.7344,-1.6671,-1.6935,-1.7495,-1.8029,-1.8436,-1.9169,-2.0639,-2.3409,0.0,0.0,0.0,0.0,0.0,0.0,0.0,0.0,0.0,0.0,0.0,0.0,-3.6064,-3.6926,-3.6114,-3.6891,-3.6926,-3.6129,-3.7711,-3.8095,-3.7325,-3.8129,-3.8475,-3.8444,-3.7783,-3.7475,0.0,0.0,0.0,0.0,-3.6492,-3.6492,-3.6492,-3.6492,-3.6492,-3.6492,-3.6492,-3.6492,-3.6492,0.0,0.0,0.0,0.0,0.0,0.0,0.0,0.0,-0.891,-0.963,-0.9718,-0.9876,-1.0291,-0.9742,-0.9311,-0.9235,0.0,0.0,0.0,0.0,0.0,0.0,0.0,0.0,0.0,0.0,0.0,0.0,0.0,0.0,0.0,0.0,0.0,0.0,0.0,0.0,0.0,0.0,0.0,0.0,0.0,0.0,0.0,0.0,0.0,0.0,0.0,0.0,0.0,0.0,0.0,0.0,0.0,0.0,0.0,-1.8369,-2.0805,0.0,-2.5418,-2.6903,-2.7787,-2.7349,-2.6257,-2.5041,-2.4148,-2.1261,-1.8633,-1.8052,-1.7449,-1.6949,-1.6759,-1.7598,-1.8656,-1.9702,-2.0468,0.0,0.0,0.0,0.0,0.0,0.0,0.0,0.0,0.0,0.0,0.0,0.0,0.0,0.0,-3.6265,-3.6541,-3.6164,-3.7428,-3.8013,-3.7729,-3.8262,-3.8131,-3.7427,-3.7686,-3.7584,-3.7123,-3.6907,-3.6815,0.0,0.0,0.0,0.0,-3.6492,-3.6492,-3.6492,-3.6492,-3.6492,-3.6492,-3.6492,-3.6492,-3.6492,0.0,0.0,0.0,0.0,0.0,0.0,0.0,0.0,-0.8467,-0.8926,-0.8989,-0.9229,-0.986,0.0,0.0,0.0,0.0,0.0,0.0,0.0,0.0,0.0,0.0,0.0,0.0,0.0,0.0,0.0,0.0,0.0,0.0,0.0,0.0,0.0,0.0,0.0,0.0,0.0,0.0,0.0,0.0,0.0,-1.2436,0.0,0.0,0.0,0.0,0.0,0.0,0.0,0.0,0.0,0.0,0.0,0.0,0.0,-1.8141,-2.0155,0.0,-2.4148,-2.5127,-2.4958,-2.404,-2.3055,-2.2624,-2.0299,-1.812,-1.7793,-1.7312,-1.7017,-1.7149,-1.7678,-1.8574,-1.9964,-2.0514,0.0,0.0,0.0,0.0,0.0,0.0,0.0,0.0,0.0,0.0,0.0,0.0,0.0,0.0,-3.6112,-3.6259,-3.5903,-3.7107,-3.7754,-3.7754,-3.7754,-3.7538,-3.7123,-3.7123,-3.6892,-3.6492,-3.6492,-3.6492,0.0,0.0,0.0,0.0,-3.6492,-3.6492,-3.6492,-3.6492,-3.6492,-3.6492,-3.6492,-3.6492,-3.6492,0.0,0.0,0.0,0.0,0.0,0.0,0.0,0.0,0.0,0.0,0.0,-0.8542,-0.9153,0.0,0.0,0.0,0.0,0.0,0.0,0.0,0.0,0.0,0.0,0.0,0.0,0.0,0.0,-1.3201,-1.3901,-1.4317,-1.4424,-1.5027,0.0,0.0,0.0,0.0,0.0,0.0,0.0,0.0,0.0,-1.1789,0.0,0.0,0.0,0.0,0.0,0.0,0.0,0.0,0.0,0.0,0.0,0.0,0.0,0.0,0.0,0.0,0.0,-2.1916,-2.3086,-2.3656,-2.2424,-2.1088,-2.1088,-1.9069,0.0,-1.7507,-1.7085,-1.6959,-1.8022,-1.7884,-1.8112,-1.9738,0.0,0.0,0.0,0.0,0.0,0.0,0.0,0.0,0.0,0.0,0.0,0.0,0.0,0.0,0.0,-3.5705,-3.6148,-3.5497,-3.6148,-3.6492,-3.6492,-3.6492,-3.6492,-3.6492,-3.6492,-3.6492,-3.6492,-3.6492,-3.6492,0.0,0.0,0.0,0.0,-3.6492,-3.6492,-3.6492,-3.6492,-3.6492,-3.6492,-3.6492,-3.6492,-3.6492,0.0,0.0,0.0,0.0,0.0,0.0,0.0,0.0,0.0,0.0,0.0,0.0,0.0,0.0,0.0,0.0,0.0,0.0,0.0,0.0,0.0,0.0,0.0,0.0,0.0,0.0,0.0,-1.3201,-1.4282,-1.5367,-1.6415,-1.6467,0.0,0.0,0.0,0.0,0.0,0.0,0.0,0.0,-1.2123,-1.2092,0.0,0.0,0.0,0.0,-1.2306,-1.263,0.0,0.0,0.0,0.0,0.0,0.0,0.0,0.0,-1.467,-1.507,-1.69,0.0,-1.9313,-1.8961,-1.8898,-1.8929,0.0,-1.8023,-1.7209,-1.7288,0.0,-1.7516,-1.9051,-1.8821,-1.9387,0.0,0.0,0.0,0.0,0.0,0.0,0.0,0.0,0.0,0.0,0.0,0.0,0.0,0.0,0.0,0.0,-3.5769,-3.5847,-3.6226,-3.6429,-3.6492,-3.6492,-3.6492,-3.6492,-3.6492,-3.6492,-3.6492,-3.6492,-3.6492,-3.6492,0.0,0.0,0.0,-3.6492,-3.6492,-3.6492,-3.6492,-3.6492,-3.6492,-3.6492,-3.6492,-3.6492,-3.6492,0.0,0.0,0.0,0.0,0.0,0.0,0.0,0.0,0.0,0.0,0.0,0.0,0.0,0.0,0.0,0.0,0.0,0.0,0.0,0.0,0.0,0.0,0.0,0.0,0.0,0.0,0.0,0.0,0.0,-1.5459,0.0,0.0,0.0,0.0,0.0,0.0,0.0,0.0,0.0,0.0,-1.2061,0.0,0.0,0.0,0.0,0.0,-1.2143,-1.2341,0.0,-1.3049,-1.3652,-1.416,0.0,0.0,0.0,0.0,-1.3744,-1.4036,-1.5378,-1.6947,-1.8268,-1.8545,-1.8669,-1.87,-1.87,0.0,0.0,0.0,0.0,-1.7563,-1.879,0.0,0.0,0.0,0.0,0.0,0.0,0.0,0.0,0.0,0.0,0.0,0.0,0.0,0.0,0.0,0.0,0.0,0.0,-3.6116,-3.6085,-3.6492,-3.6492,-3.6492,-3.6492,-3.6492,-3.6492,-3.6492,-3.6492,-3.6492,-3.6492,-3.6492,-3.6492,0.0,0.0,0.0,-3.6492,-3.6492,-3.6492,-3.6492,-3.6492,-3.6492,-3.6492,-3.6492,-3.6492,-3.6492,0.0,0.0,0.0,0.0,0.0,0.0,0.0,0.0,0.0,0.0,0.0,0.0,0.0,0.0,0.0,0.0,0.0,0.0,0.0,0.0,0.0,0.0,0.0,0.0,0.0,0.0,0.0,0.0,0.0,0.0,0.0,0.0,-1.5866,0.0,0.0,0.0,0.0,0.0,0.0,0.0,0.0,0.0,0.0,0.0,0.0,0.0,0.0,0.0,0.0,-1.2862,-1.3421,-1.3806,-1.3232,0.0,0.0,0.0,0.0,0.0,-1.4809,-1.6671,-1.8453,-1.9546,-1.9471,-1.9132,-1.9132,0.0,0.0,0.0,0.0,0.0,0.0,0.0,0.0,0.0,0.0,0.0,0.0,0.0,0.0,0.0,0.0,0.0,0.0,0.0,0.0,0.0,0.0,0.0,0.0,-3.6492,-3.6492,-3.6492,-3.6492,-3.6492,-3.6492,-3.6492,-3.6492,-3.6492,-3.6492,-3.6492,-3.6492,-3.6492,-3.6492,-3.6492,0.0,0.0,-3.6492,-3.6492,-3.6492,-3.6492,-3.6492,-3.6492,-3.6492,-3.6492,-3.6492,-3.6492,0.0,0.0,0.0,0.0,0.0,0.0,0.0,0.0,0.0,0.0,0.0,0.0,0.0,0.0,0.0,0.0,0.0,0.0,0.0,0.0,0.0,0.0,0.0,0.0,0.0,0.0,0.0,0.0,0.0,0.0,-1.694,-1.7871,-1.7074,-1.4845,0.0,0.0,0.0,0.0,0.0,0.0,0.0,0.0,0.0,0.0,0.0,0.0,0.0,0.0,0.0,-1.2323,-1.2416,-1.2493,-1.2385,0.0,0.0,0.0,0.0,0.0,-1.467,-1.6671,-1.813,-1.7761,-1.8038,-1.8361,-1.8361,0.0,0.0,0.0,0.0,0.0,0.0,0.0,0.0,0.0,0.0,0.0,0.0,0.0,0.0,0.0,0.0,0.0,0.0,0.0,0.0,0.0,0.0,0.0,0.0,-3.6492,-3.6492,-3.6492,-3.6492,-3.6492,-3.6492,-3.6492,-3.6492,-3.6492,-3.6492,-3.6492,-3.6492,-3.6492,-3.6492,-3.6492,0.0,-3.6492,-3.6492,-3.6492,-3.6492,-3.6492,-3.6492,-3.6492,-3.6492,-3.6492,-3.6492,-3.6492,0.0,0.0,0.0,0.0,0.0,0.0,0.0,0.0,0.0,0.0,0.0,0.0,0.0,0.0,0.0,0.0,0.0,0.0,0.0,0.0,0.0,0.0,0.0,0.0,0.0,0.0,0.0,0.0,0.0,-1.5855,-1.6894,-1.6683,-1.5784,-1.4304,0.0,0.0,0.0,0.0,0.0,-1.22,0.0,0.0,0.0,0.0,0.0,0.0,0.0,0.0,0.0,0.0,-1.2113,-1.2677,-1.2308,0.0,0.0,0.0,0.0,0.0,-1.4221,-1.587,-1.73,-1.813,-1.9377,-2.0314,-1.9962,0.0,0.0,0.0,0.0,0.0,0.0,0.0,0.0,0.0,0.0,0.0,0.0,0.0,0.0,0.0,0.0,0.0,0.0,0.0,0.0,0.0,0.0,0.0,0.0,0.0,-3.6492,-3.6492,-3.6492,-3.6492,-3.6492,-3.6492,-3.6492,-3.6492,-3.6492,-3.6492,-3.6492,-3.6492,-3.6492,-3.6492,0.0,-3.6492,-3.6492,-3.6492,-3.6492,-3.6492,-3.6492,-3.6492,-3.6492,-3.6492,-3.6492,-3.6492,0.0,0.0,0.0,0.0,0.0,0.0,0.0,0.0,0.0,0.0,0.0,0.0,0.0,0.0,0.0,0.0,0.0,0.0,0.0,0.0,0.0,0.0,0.0,0.0,0.0,0.0,-1.1854,-1.3115,-1.4455,-1.5644,-1.6608,-1.5378,-1.4313,-1.341,0.0,0.0,0.0,0.0,-1.1938,-1.1953,0.0,0.0,0.0,0.0,0.0,0.0,0.0,0.0,0.0,0.0,0.0,0.0,0.0,0.0,0.0,-1.2354,-1.22,-1.2493,-1.3836,-1.5178,-1.6654,-1.8577,-2.0456,-2.1827,-2.1781,-2.1365,0.0,0.0,0.0,0.0,0.0,0.0,0.0,0.0,0.0,0.0,0.0,0.0,0.0,0.0,0.0,0.0,0.0,0.0,0.0,0.0,0.0,0.0,0.0,-3.6492,-3.6492,-3.6492,-3.6492,-3.6492,-3.6492,-3.6492,-3.6492,-3.6492,-3.6492,-3.6492,-3.6492,-3.6492,-3.6492,-3.6492,-3.6492,-3.6492,-3.6492,-3.6492,-3.6492,-3.6492,-3.6492,-3.6492,-3.6492,-3.6492,-3.6492,-3.6492,0.0,0.0,0.0,0.0,0.0,0.0,0.0,0.0,0.0,0.0,0.0,0.0,0.0,0.0,0.0,0.0,0.0,0.0,0.0,0.0,0.0,0.0,0.0,0.0,0.0,-1.1881,-1.253,-1.3735,-1.5076,-1.5767,-1.5858,-1.514,-1.3855,-1.2128,0.0,0.0,0.0,0.0,-1.118,-1.1241,-1.1923,0.0,0.0,0.0,0.0,0.0,0.0,0.0,0.0,0.0,0.0,0.0,0.0,0.0,-1.2262,-1.22,-1.22,-1.2493,-1.3836,-1.5178,-1.6532,-1.793,-1.9377,0.0,-2.2732,-2.3117,0.0,-2.4666,0.0,0.0,0.0,0.0,0.0,0.0,0.0,0.0,0.0,0.0,0.0,0.0,0.0,0.0,0.0,0.0,0.0,0.0,0.0,0.0,0.0,-3.6492,-3.6492,-3.6492,-3.6492,-3.6492,-3.6492,-3.6492,-3.6492,-3.6492,-3.6492,-3.6492,-3.6492,-3.6492,-3.6492,-3.6492,-3.6492,-3.6492,-3.6492,-3.6492,-3.6492,-3.6492,-3.6492,-3.6492,-3.6492,-3.6492,-3.6492,-3.6492,0.0,0.0,0.0,0.0,0.0,0.0,0.0,0.0,0.0,0.0,0.0,0.0,0.0,0.0,0.0,0.0,0.0,0.0,0.0,0.0,0.0,0.0,0.0,-0.9779,-1.1273,-1.2134,-1.3175,-1.4423,-1.4929,-1.4988,-1.4596,-1.3918,0.0,0.0,0.0,0.0,0.0,0.0,0.0,-1.1087,-1.0958,-1.0481,0.0,0.0,0.0,0.0,0.0,0.0,0.0,0.0,-1.0411,-1.1149,-1.1435,-1.183,-1.22,-1.22,-1.22,-1.24,-1.334,-1.5162,-1.7039,-1.7961,-1.9883,0.0,0.0,-2.4235,-2.5056,-2.6872,0.0,0.0,0.0,0.0,0.0,0.0,0.0,0.0,0.0,0.0,0.0,0.0,0.0,0.0,0.0,0.0,0.0,0.0,0.0,0.0,0.0,-3.6492,-3.6492,-3.6492,-3.6492,-3.6492,-3.6492,-3.6492,-3.6492,-3.6492,-3.6492,-3.6492,-3.6492,-3.6492,-3.6492,-3.6492,-3.6492,-3.6492,-3.6492,-3.6492,-3.6492,-3.6492,-3.6492,-3.6492,-3.6492,-3.6492,-3.6492,-3.6492,0.0,0.0,0.0,0.0,0.0,0.0,0.0,0.0,0.0,0.0,0.0,0.0,0.0,0.0,0.0,0.0,0.0,0.0,0.0,0.0,0.0,0.0,0.0,-0.9551,-1.0599,-1.19,-1.3097,-1.4167,-1.4167,-1.3968,-1.3567,0.0,0.0,0.0,0.0,0.0,0.0,0.0,0.0,0.0,-1.0518,-0.9896,0.0,0.0,0.0,0.0,0.0,0.0,0.0,0.0,-0.9712,-1.0534,-1.0964,-1.1451,-1.1907,-1.2123,-1.2493,-1.2939,-1.339,-1.5316,-1.7408,-1.8315,0.0,0.0,-2.4779,-2.5641,-2.6565,-2.8611,0.0,0.0,0.0,0.0,0.0,0.0,0.0,0.0,0.0,0.0,0.0,0.0,0.0,0.0,0.0,0.0,0.0,0.0,0.0,0.0,0.0,-3.5968,-3.5891,-3.5891,-3.5891,-3.5891,-3.5891,-3.5891,-3.5891,-3.5861,-3.6076,-3.6292,-3.6492,-3.6492,-3.6492,-3.6492,-3.6492,-3.6492,-3.6492,-3.6492,-3.6492,-3.6492,-3.6492,-3.6492,-3.6492,-3.6492,-3.6492,-3.6492,0.0,0.0,0.0,0.0,0.0,0.0,0.0,0.0,0.0,0.0,0.0,0.0,0.0,0.0,0.0,0.0,0.0,0.0,0.0,0.0,0.0,0.0,0.0,-0.9307,-0.9972,-1.1218,-1.2167,-1.2786,-1.2786,-1.2824,-1.2878,-1.2203,0.0,0.0,0.0,0.0,0.0,0.0,0.0,0.0,-1.0826,-1.0296,-0.9173,0.0,0.0,0.0,0.0,0.0,0.0,0.0,-0.9104,-0.9327,-1.0672,-1.1093,-1.1256,-1.1984,-1.3155,-1.4221,-1.4206,-1.567,-1.7561,0.0,0.0,0.0,-2.6472,-2.7396,-2.798,0.0,0.0,0.0,0.0,0.0,0.0,0.0,0.0,0.0,0.0,0.0,0.0,0.0,0.0,0.0,0.0,0.0,0.0,0.0,0.0,0.0,0.0,-3.4874,-3.4505,-3.4505,-3.4505,-3.4505,-3.4505,-3.4505,-3.4505,-3.452,-3.5183,-3.583,-3.6476,-3.6476,-3.6476,-3.6476,-3.6476,-3.6476,-3.6476,-3.6476,-3.6476,-3.6476,-3.6476,-3.6476,-3.6476,-3.6476,-3.6476,-3.6476,0.0,0.0,0.0,0.0,0.0,0.0,0.0,0.0,0.0,0.0,0.0,0.0,0.0,0.0,0.0,0.0,0.0,0.0,0.0,0.0,0.0,0.0,0.0,0.0,0.0,0.0,-1.0547,-1.21,-1.21,-1.1904,0.0,0.0,0.0,-1.2164,0.0,0.0,0.0,0.0,0.0,0.0,-0.9804,-0.945,-0.9119,0.0,0.0,0.0,0.0,0.0,0.0,0.0,0.0,0.0,-1.0119,-1.1405,-1.2528,-1.2277,-1.3482,-1.4793,-1.4329,-1.6024,0.0,0.0,0.0,0.0,0.0,-2.7765,0.0,0.0,0.0,0.0,0.0,0.0,0.0,0.0,0.0,0.0,0.0,0.0,0.0,0.0,0.0,0.0,0.0,0.0,0.0,0.0,0.0,0.0,0.0,-3.4613,-3.4505,-3.4505,-3.4505,-3.4505,-3.4505,-3.4505,-3.4505,-3.4505,-3.4705,-3.5152,-3.5784,-3.5784,-3.5784,-3.5753,-3.5306,-3.5106,-3.5106,-3.5106,-3.5106,-3.5106,-3.5106,-3.5106,-3.5106,-3.5106,-3.5106,-3.5106,0.0,0.0,0.0,0.0,0.0,0.0,0.0,0.0,0.0,0.0,0.0,-0.8094,0.0,0.0,0.0,0.0,0.0,0.0,0.0,0.0,0.0,0.0,0.0,0.0,0.0,-0.8726,-0.9508,0.0,0.0,0.0,0.0,0.0,0.0,-1.2585,0.0,-1.1953,0.0,0.0,0.0,0.0,-0.9665,-0.9342,-0.9135,0.0,0.0,0.0,0.0,0.0,0.0,0.0,0.0,0.0,-0.9496,-1.0558,-1.1707,-1.24,-1.3836,-1.5285,-1.5685,0.0,0.0,0.0,0.0,0.0,0.0,0.0,0.0,0.0,0.0,0.0,0.0,0.0,0.0,0.0,0.0,0.0,0.0,0.0,0.0,0.0,0.0,0.0,0.0,0.0,0.0,0.0,0.0,0.0,0.0,-3.3827,-3.3673,-3.3673,-3.3673,-3.3673,-3.3673,-3.3673,-3.3673,-3.3688,-3.395,-3.426,-3.4675,-3.4982,-3.5106,-3.509,-3.469,-3.4505,-3.4505,-3.4505,-3.4505,-3.4505,-3.4505,-3.4505,-3.4505,-3.4505,-3.4505,-3.4505,0.0,0.0,-0.5312,-0.529,0.0,0.0,0.0,0.0,0.0,0.0,-0.8094,-0.8094,0.0,0.0,0.0,-0.8094,0.0,0.0,0.0,0.0,0.0,0.0,0.0,0.0,0.0,0.0,0.0,0.0,0.0,0.0,0.0,0.0,-1.1698,-1.3078,0.0,-1.2061,0.0,0.0,0.0,-1.0019,-1.0019,-0.965,-0.9165,-0.9773,0.0,0.0,0.0,0.0,0.0,0.0,0.0,0.0,-0.8888,-0.9181,-0.9773,-1.2277,-1.4098,-1.5685,0.0,0.0,0.0,0.0,0.0,0.0,0.0,0.0,0.0,0.0,0.0,0.0,0.0,0.0,0.0,0.0,0.0,0.0,0.0,0.0,0.0,0.0,0.0,0.0,0.0,0.0,0.0,0.0,0.0,0.0,0.0,-3.2736,-3.2398,-3.2398,-3.2398,-3.2398,-3.2398,-3.2398,-3.2398,-3.2398,-3.3013,-3.3306,-3.3336,-3.4073,-3.4366,-3.4305,-3.4305,-3.4305,-3.4305,-3.4305,-3.4305,-3.4305,-3.4305,-3.4305,-3.4305,-3.4305,-3.4305,-3.4305,0.0,0.0,-0.6276,-0.6672,0.0,0.0,0.0,0.0,-0.8094,-0.8094,-0.8094,-0.8094,-0.8094,-0.8094,0.0,-0.8094,-0.8104,0.0,0.0,0.0,0.0,0.0,0.0,0.0,0.0,0.0,0.0,0.0,0.0,0.0,0.0,0.0,0.0,-1.2385,0.0,-1.1041,0.0,0.0,0.0,-0.9311,-0.9311,-0.9219,-0.9119,-0.925,-0.8811,0.0,0.0,0.0,0.0,0.0,0.0,0.0,-0.8888,-0.9819,-1.0795,-1.1379,-1.3655,-1.6085,0.0,0.0,0.0,0.0,0.0,0.0,0.0,0.0,0.0,0.0,0.0,0.0,0.0,0.0,0.0,0.0,0.0,0.0,0.0,0.0,0.0,0.0,0.0,0.0,0.0,0.0,0.0,0.0,0.0,0.0,-3.2767,-3.2545,-3.2398,-3.2398,-3.2398,-3.2398,-3.2398,-3.2398,-3.2398,0.0,-3.2552,-3.2613,-3.2628,-3.3321,-3.3336,-3.2844,-3.2844,-3.2844,-3.2844,-3.2844,-3.2844,-3.2844,-3.2844,-3.2844,-3.2844,-3.2844,-3.2844,-3.2844,0.0,0.0,0.0,0.0,0.0,0.0,0.0,0.0,-0.7808,-0.807,-0.8155,-0.8169,-0.8101,-0.8094,0.0,0.0,-0.8096,-0.8104,0.0,0.0,0.0,0.0,0.0,0.0,0.0,0.0,0.0,0.0,0.0,0.0,0.0,0.0,0.0,-1.2647,0.0,-1.1235,0.0,0.0,-0.9104,-0.9104,-0.9104,-0.9104,-0.9104,-0.9104,-0.8688,-0.8094,-0.8094,0.0,0.0,0.0,0.0,0.0,0.0,0.0,-1.0343,-1.1328,-1.3113,-1.5116,0.0,0.0,0.0,0.0,0.0,0.0,0.0,0.0,0.0,0.0,0.0,0.0,0.0,0.0,0.0,0.0,0.0,0.0,0.0,0.0,0.0,0.0,0.0,0.0,0.0,0.0,0.0,0.0,0.0,-3.2703,-3.2621,-3.2523,-3.2453,-3.2398,-3.2398,-3.2398,-3.2398,-3.2398,-3.2398,-3.2398,-3.2398,-3.2398,-3.2398,-3.2752,-3.2721,-3.2398,-3.2398,-3.2398,-3.2398,-3.2398,-3.2398,-3.2398,-3.2398,-3.2398,-3.2398,-3.2398,-3.2398,-3.2398,0.0,0.0,0.0,0.0,0.0,0.0,0.0,0.0,0.0,-0.8053,-0.8223,-0.8256,-0.8108,-0.8094,-0.8094,0.0,0.0,0.0,-0.8094,0.0,0.0,0.0,0.0,0.0,0.0,0.0,0.0,0.0,0.0,0.0,0.0,0.0,0.0,-1.317,0.0,0.0,0.0,0.0,-0.9057,-0.8957,-0.8942,-0.8934,-0.8934,-0.8934,-0.858,-0.8094,-0.8094,-0.8094,-0.8094,-0.8094,0.0,0.0,0.0,0.0,-0.9443,-1.1152,-1.2308,-1.3632,0.0,0.0,0.0,0.0,0.0,0.0,0.0,0.0,0.0,0.0,0.0,0.0,0.0,0.0,0.0,0.0,0.0,0.0,0.0,0.0,0.0,0.0,0.0,0.0,0.0,0.0,0.0,0.0,0.0,-3.2485,-3.2292,-3.2265,-3.2195,-3.2059,-3.2044,-3.2044,-3.2044,-3.2044,-3.2044,-3.2044,-3.2044,-3.2044,-3.2059,-3.2167,-3.2275,-3.2398,-3.2398,-3.2398,-3.2398,-3.2398,-3.2398,-3.2398,-3.2398,-3.2398,-3.2398,-3.2398,-3.2398,-3.2398,0.0,0.0,0.0,0.0,0.0,0.0,0.0,0.0,0.0,0.0,-0.8223,-0.8256,-0.8108,-0.8094,-0.8094,-0.8094,-0.8094,-0.8094,0.0,0.0,0.0,0.0,0.0,0.0,0.0,0.0,0.0,0.0,0.0,0.0,0.0,0.0,0.0,-1.3182,0.0,0.0,0.0,0.0,-0.8839,-0.8395,-0.8281,-0.8233,-0.8233,-0.8233,-0.8171,-0.8094,-0.8094,-0.8094,-0.8094,-0.8094,-0.8549,0.0,0.0,0.0,0.0,0.0,-1.0847,-1.2427,0.0,0.0,0.0,0.0,0.0,0.0,0.0,0.0,0.0,0.0,0.0,0.0,0.0,0.0,0.0,0.0,0.0,0.0,0.0,0.0,0.0,0.0,0.0,0.0,0.0,0.0,0.0,0.0,-3.1332,-3.1189,-3.1046,-3.0933,-3.0804,-3.0663,-3.0663,-3.0663,-3.0663,-3.0663,-3.0663,-3.0663,-3.0663,-3.0663,-3.0678,-3.1259,-3.1844,-3.2398,-3.2398,-3.2398,-3.2398,-3.2398,-3.2398,-3.2398,-3.2398,-3.2398,-3.2398,-3.2398,-3.2398,-3.2398,0.0,0.0,0.0,0.0,0.0,0.0,0.0,0.0,0.0,0.0,0.0,-0.8256,-0.8108,-0.8094,-0.8094,-0.8094,-0.8094,0.0,0.0,0.0,0.0,0.0,0.0,0.0,0.0,0.0,0.0,0.0,0.0,0.0,0.0,-1.3137,-1.4128,0.0,0.0,0.0,0.0,0.0,-0.9077,-0.8705,-0.8276,-0.8935,-1.004,-0.8664,-0.8996,-1.0001,-0.8649,-0.8139,-0.8094,-0.8094,-0.8796,-0.9481,-0.8433,0.0,0.0,0.0,0.0,0.0,0.0,0.0,0.0,0.0,0.0,0.0,0.0,0.0,0.0,0.0,0.0,0.0,0.0,0.0,0.0,0.0,0.0,0.0,0.0,0.0,0.0,0.0,0.0,0.0,0.0,0.0,0.0,0.0,-3.1149,-3.1049,-3.0923,-3.0873,-3.0721,-3.0516,-3.0516,-3.0479,-3.0402,-3.0402,-3.0402,-3.0402,-3.0402,-3.0402,-3.0402,-3.072,-3.1213,-3.1844,-3.2228,-3.2398,-3.2398,-3.2398,-3.2398,-3.2398,-3.2398,-3.2398,-3.2398,-3.2398,-3.2398,-3.2398,0.0,0.0,0.0,0.0,0.0,0.0,0.0,0.0,0.0,0.0,0.0,-0.828,-0.8114,0.0,0.0,0.0,-0.8094,0.0,0.0,0.0,0.0,0.0,0.0,0.0,0.0,0.0,0.0,0.0,0.0,0.0,-1.3808,-1.4198,-1.602,0.0,-1.6891,0.0,0.0,0.0,0.0,-0.9614,-0.9073,-0.9962,-1.1481,-1.0211,-1.0852,-1.2155,-1.0,0.0,0.0,0.0,0.0,0.0,0.0,0.0,0.0,0.0,0.0,0.0,0.0,0.0,0.0,0.0,0.0,0.0,0.0,0.0,0.0,0.0,0.0,0.0,0.0,0.0,0.0,0.0,0.0,0.0,0.0,0.0,0.0,0.0,0.0,0.0,0.0,0.0,0.0,0.0,-3.0661,-3.0613,-3.0465,-3.0465,-3.0366,-3.0157,-3.0142,-3.0082,-2.993,-2.9904,-2.9879,-2.9879,-2.9879,-2.9879,-2.9894,-3.0063,-3.0428,-3.092,-3.1597,-3.189,-3.189,-3.189,-3.189,-3.189,-3.189,-3.189,-3.189,-3.189,-3.189,-3.1921,0.0,0.0,0.0,0.0,0.0,0.0,0.0,0.0,0.0,0.0,0.0,-0.839,-0.8128,-0.8094,-0.8094,-0.8094,-0.8094,0.0,0.0,0.0,0.0,0.0,0.0,0.0,0.0,0.0,0.0,0.0,0.0,0.0,-1.4081,-1.4431,-1.69,-2.0964,-1.9207,-1.6301,-1.2706,0.0,0.0,-1.1174,-1.1005,-1.102,-1.1331,-1.3201,-1.4015,-1.3977,0.0,0.0,0.0,0.0,0.0,0.0,0.0,0.0,0.0,0.0,0.0,0.0,0.0,0.0,0.0,0.0,0.0,0.0,0.0,0.0,0.0,0.0,0.0,0.0,0.0,0.0,0.0,0.0,0.0,0.0,0.0,0.0,0.0,0.0,0.0,0.0,0.0,0.0,0.0,0.0,-2.9209,-2.9162,-2.903,-2.9014,-2.8975,-2.8904,-2.8904,-2.8817,-2.8682,-2.8576,-2.8504,-2.8504,-2.8504,-2.8504,-2.8535,-2.9156,-2.9489,-2.9525,-3.0202,-3.0494,-3.0494,-3.0494,-3.0494,-3.0494,-3.0494,-3.0494,-3.0494,-3.0494,-3.0494,-3.0586,0.0,0.0,0.0,0.0,0.0,0.0,0.0,0.0,0.0,0.0,0.0,0.0,0.0,-0.8094,-0.8094,-0.8094,-0.8094,0.0,0.0,0.0,0.0,0.0,0.0,0.0,0.0,0.0,0.0,0.0,0.0,-1.0196,-1.2839,-1.3515,-1.4924,-1.6919,-1.7276,-1.6969,-1.6021,-1.3413,0.0,0.0,-1.2145,-1.3152,-1.4877,-1.4704,-1.565,-1.6812,0.0,0.0,0.0,0.0,0.0,0.0,0.0,-0.9742,-0.9535,-0.8498,0.0,0.0,0.0,0.0,0.0,0.0,0.0,0.0,0.0,0.0,0.0,0.0,0.0,0.0,0.0,0.0,0.0,0.0,0.0,0.0,0.0,0.0,0.0,0.0,0.0,0.0,0.0,0.0,0.0,0.0,0.0,-2.9075,-2.9029,-2.9029,-2.8982,-2.8865,-2.8865,-2.8771,-2.8597,-2.8468,-2.8411,-2.8411,-2.8411,-2.8411,-2.8411,-2.8658,-2.8765,-2.8781,-2.9027,-2.9587,-3.0402,-3.0402,-3.0402,-3.0402,-3.0402,-3.0402,-3.0402,-3.0402,-3.0402,-3.0432,0.0,0.0,0.0,-0.8709,0.0,-0.8453,-0.8312,-0.8269,-0.8203,-0.8108,0.0,0.0,0.0,0.0,-0.8189,-0.8236,-0.8243,-0.8267,-0.8358,0.0,0.0,0.0,0.0,0.0,0.0,0.0,0.0,0.0,0.0,0.0,0.0,-1.2365,-1.3336,-1.455,-1.5063,-1.6137,0.0,0.0,0.0,-1.4069,0.0,0.0,-1.6993,0.0,-1.8133,0.0,0.0,0.0,0.0,0.0,0.0,0.0,0.0,-1.0654,-0.9622,-0.8548,-0.9098,0.0,0.0,0.0,0.0,0.0,0.0,0.0,0.0,0.0,0.0,0.0,0.0,0.0,0.0,0.0,0.0,0.0,0.0,0.0,0.0,0.0,0.0,0.0,0.0,0.0,0.0,0.0,0.0,0.0,0.0,0.0,-2.8435,-2.8435,-2.8397,-2.829,-2.8426,-2.8436,-2.8303,-2.852,-2.8629,-2.8645,-2.8795,-2.8795,-2.8629,-2.8629,-2.8549,-2.8411,-2.8411,-2.8919,-2.9725,-2.9725,-2.9725,-2.9725,-2.9725,-2.9725,-2.9725,-2.9725,-2.9725,-2.9756,-0.8919,-0.8801,-0.8703,-0.8703,-0.8589,-0.8453,-0.8319,-0.8409,-0.8396,-0.8135,0.0,0.0,0.0,0.0,0.0,-0.8491,-0.8497,-0.8503,-0.8503,-0.8626,0.0,0.0,0.0,0.0,0.0,0.0,0.0,0.0,0.0,0.0,0.0,0.0,-1.2364,-1.4442,-1.296,-1.3749,-1.6199,0.0,-1.5977,-1.5903,0.0,-1.691,-1.7339,0.0,0.0,0.0,-2.0012,-1.9504,0.0,0.0,0.0,0.0,0.0,-1.1766,-0.9239,-0.8555,-0.8905,0.0,0.0,0.0,0.0,0.0,0.0,0.0,0.0,0.0,0.0,0.0,0.0,0.0,0.0,0.0,0.0,0.0,0.0,0.0,0.0,0.0,0.0,0.0,0.0,0.0,0.0,0.0,0.0,0.0,-2.7099,-2.7099,-2.7099,-2.7099,-2.7099,-2.7099,-2.7471,-2.7687,-2.7687,-2.8581,-2.9027,-2.9027,-2.9486,-2.9486,-2.9034,-2.9034,-2.8826,-2.8429,-2.8429,-2.8405,-2.842,-2.8411,-2.8411,-2.8411,-2.8411,-2.8411,-2.8411,-2.8411,-2.8411,-2.8488,-0.8919,-0.8869,-0.8846,-0.8846,-0.865,-0.8485,-0.8447,-0.839,-0.8325,0.0,0.0,0.0,-0.839,-0.8422,-0.846,-0.8497,-0.8497,-0.854,-0.8638,-0.8673,-0.876,-0.8914,-0.8948,0.0,0.0,0.0,0.0,0.0,0.0,0.0,0.0,0.0,0.0,0.0,-1.2324,-1.3087,-1.4192,-1.2949,0.0,0.0,-1.5868,-1.7163,0.0,0.0,0.0,0.0,0.0,-2.2065,-2.1476,0.0,-1.9621,-1.7896,0.0,0.0,-1.0888,-1.0065,-1.0782,-1.1648,-1.0615,0.0,0.0,0.0,0.0,0.0,0.0,0.0,0.0,0.0,0.0,0.0,0.0,0.0,0.0,0.0,0.0,0.0,0.0,0.0,0.0,0.0,0.0,0.0,0.0,0.0,0.0,0.0,-2.7099,-2.7099,-2.7099,-2.7099,-2.7099,-2.7099,-2.7105,-2.7133,-2.7133,-2.7277,-2.7371,-2.7371,-2.7676,-2.7768,-2.7676,-2.7897,-2.8228,-2.862,-2.862,-2.8729,-2.8873,-2.8525,-2.8411,-2.8411,-2.8411,-2.8411,-2.8411,-2.8411,-2.8411,-2.8427,-0.8919,-0.8897,-0.8897,-0.8897,-0.9029,-0.9105,-0.9055,-0.8977,-0.8905,0.0,0.0,0.0,-0.8577,-0.9137,-0.9278,-0.8711,-0.869,-0.8742,-0.8812,-0.8829,-0.8875,-0.8987,-0.9009,-0.8998,0.0,0.0,0.0,0.0,0.0,0.0,0.0,0.0,0.0,0.0,-1.082,-1.1421,-1.2049,-1.0686,0.0,0.0,-1.682,0.0,0.0,-2.136,-2.2153,0.0,0.0,0.0,-2.3317,-2.2777,-2.1362,0.0,0.0,-1.4447,-1.3458,-1.1996,-1.266,0.0,0.0,0.0,0.0,0.0,0.0,0.0,0.0,0.0,0.0,0.0,0.0,0.0,0.0,0.0,0.0,0.0,0.0,0.0,0.0,0.0,0.0,0.0,0.0,0.0,0.0,-2.6864,-2.7014,-2.6707,-2.6675,-2.6615,-2.6434,-2.6413,-2.6368,-2.6235,-2.6377,-2.6439,-2.6439,-2.6824,-2.6987,-2.6987,-2.7488,-2.7615,-2.741,-2.7757,-2.8062,-2.8246,-2.8246,-2.8501,-2.8895,-2.8427,-2.8301,-2.8411,-2.8411,-2.8411,-2.8411,-2.8411,-2.8411,-2.8411,0.0,-0.8914,-0.8931,-0.901,-0.9545,-0.996,-0.9922,-0.9925,-0.9885,0.0,-0.9255,-0.9002,-0.9203,-1.0329,-1.0578,-0.9388,-0.9191,-0.9129,-0.9129,-0.9049,-0.8997,-0.9002,-0.9002,-0.9002,-0.9008,0.0,0.0,0.0,0.0,0.0,0.0,0.0,0.0,-0.9104,-0.9104,-0.9467,-1.0054,-0.9582,0.0,-1.564,-1.8124,-1.9597,0.0,0.0,-2.2989,0.0,-2.3759,-2.4261,-2.4682,-2.4069,-2.2245,0.0,0.0,-1.7094,-1.6442,-1.4309,-1.4694,0.0,-1.4109,-1.4241,0.0,0.0,0.0,0.0,-1.8182,-1.7388,0.0,0.0,0.0,0.0,0.0,0.0,0.0,0.0,0.0,0.0,0.0,0.0,0.0,0.0,0.0,0.0,-2.5333,-2.612,-2.6488,-2.5896,-2.5929,-2.5817,-2.5465,-2.5484,-2.5349,-2.5048,-2.5555,-2.5814,-2.5814,-2.6778,-2.7242,-2.7242,-2.8001,-2.8099,-2.7653,-2.8023,-2.8012,-2.762,-2.762,-2.8025,-2.8632,-2.82,-2.8222,-2.8468,-2.842,-2.8411,-2.8411,-2.8411,-2.8411,-2.8411,-0.8976,-0.8987,-0.9145,-0.9692,-0.9823,-1.0035,-1.0594,-1.0722,-1.0746,-1.0665,-1.1179,-1.1821,-1.248,-1.2298,-1.1972,-1.1659,-1.0565,-0.989,-0.9883,-0.9327,-0.9008,-0.8995,-0.8995,-0.9028,-0.9083,-0.8933,0.0,0.0,0.0,0.0,0.0,0.0,0.0,-0.9104,-0.9104,-0.9173,-0.945,-1.1487,0.0,-1.4976,-1.5418,0.0,-2.1339,-2.1686,-2.2229,-2.2969,-2.4219,-2.469,-2.4787,0.0,-2.3796,-2.1603,0.0,0.0,0.0,-1.7076,0.0,-1.8036,-1.7211,-1.7478,-1.7822,-1.7072,0.0,0.0,0.0,-1.5807,0.0,0.0,0.0,0.0,0.0,0.0,0.0,0.0,0.0,0.0,0.0,0.0,0.0,0.0,0.0,0.0,-2.3419,-2.3604,-2.3914,-2.4292,-2.4885,-2.5185,-2.5107,-2.5349,-2.5465,-2.5389,-2.5817,-2.6049,-2.6049,-2.6252,-2.6332,-2.629,-2.6641,-2.6765,-2.6587,-2.6906,-2.7295,-2.7759,-2.7759,-2.7992,-2.8379,-2.8279,-2.8533,-2.8943,-2.8549,-2.8411,-2.8411,-2.8411,-2.8411,-2.8411,-0.9003,-0.8998,-0.9225,-0.992,-1.0298,-1.0747,-1.1487,-1.1656,-1.1964,-1.2702,-1.3846,-1.4306,-1.3572,-1.3503,-1.3196,-1.2419,-1.1346,-1.0531,-1.0176,-0.9806,-0.9434,-0.9072,-0.9055,-0.9066,-0.9104,-0.9104,-0.9104,0.0,0.0,0.0,0.0,-0.9104,0.0,0.0,-0.9449,-0.9726,-1.0842,0.0,-1.2903,-1.4943,-1.6669,0.0,-2.1643,-2.2009,-2.2599,-2.3299,-2.4073,-2.4574,-2.4854,-2.4854,-2.4024,0.0,0.0,-2.143,-2.0636,0.0,-1.9899,-2.0084,0.0,0.0,-1.9497,-1.8863,0.0,0.0,0.0,0.0,0.0,0.0,0.0,0.0,0.0,0.0,0.0,0.0,0.0,0.0,0.0,0.0,0.0,0.0,0.0,0.0,-2.3653,-2.3819,-2.41,-2.4414,-2.4795,-2.4907,-2.4715,-2.4699,-2.4863,-2.524,-2.5275,-2.5563,-2.6087,-2.6104,-2.6086,-2.6049,-2.6401,-2.6487,-2.6349,-2.6691,-2.7029,-2.7352,-2.7352,-2.7671,-2.8184,-2.7964,-2.8234,-2.8735,-2.804,-2.8005,-2.8326,-2.8116,-2.8294,-2.8604,-0.8996,-0.9003,-0.9225,-0.9974,-1.0712,-1.1454,-1.2205,-1.2497,-1.3227,-1.4907,-1.6294,-1.6541,-1.5001,-1.5223,-1.5017,-1.381,-1.2778,-1.1864,0.0,0.0,0.0,-0.957,-0.9259,-0.9173,-0.9311,-0.9173,-0.9104,0.0,0.0,0.0,-0.9104,-0.9104,-0.9847,-1.1125,0.0,0.0,0.0,0.0,0.0,-1.5917,0.0,-2.0438,-2.1251,-2.2147,-2.2854,-2.3422,-2.3698,-2.4405,-2.5092,-2.4301,0.0,-2.3905,-2.3147,-2.2802,0.0,0.0,0.0,0.0,0.0,0.0,0.0,0.0,0.0,-1.9027,0.0,0.0,0.0,-1.8416,0.0,0.0,0.0,0.0,0.0,0.0,0.0,0.0,0.0,0.0,0.0,0.0,0.0,0.0,0.0,-2.3952,-2.4235,-2.4466,-2.4408,-2.4292,-2.4223,-2.408,-2.4265,-2.4879,-2.4692,-2.509,-2.6098,-2.6098,-2.6165,-2.6298,-2.6624,-2.6674,-2.6538,-2.6842,-2.6959,-2.6926,-2.6909,-2.7283,-2.7862,-2.7483,-2.7678,-2.8157,-2.7486,-2.762,-2.8158,-2.7841,-2.8108,-2.8612,-0.9011,-0.9001,-0.923,-0.9976,-1.0711,-1.1472,-1.2267,-1.3006,-1.4238,-1.6365,-1.7422,-1.8394,0.0,0.0,0.0,0.0,0.0,0.0,-1.4246,0.0,0.0,-1.1149,-0.9829,-0.9415,-1.0065,-0.9432,-0.9104,0.0,0.0,0.0,0.0,-0.9104,-0.9536,-1.0359,-1.09,0.0,0.0,0.0,-1.6013,0.0,-1.9218,-1.947,0.0,-2.1165,-2.1768,-2.2009,-2.3336,-2.4732,-2.5853,0.0,-2.4867,-2.4729,0.0,-2.3233,0.0,0.0,0.0,0.0,0.0,0.0,0.0,0.0,-2.1302,0.0,0.0,0.0,-1.7704,-1.6536,0.0,0.0,0.0,0.0,0.0,0.0,0.0,0.0,0.0,0.0,0.0,0.0,0.0,0.0,0.0,-2.1019,-2.1446,-2.2524,-2.2223,-2.2421,-2.3467,-2.4048,-2.4384,-2.4468,-2.4779,-2.5322,-2.609,-2.6107,-2.6402,-2.6989,-2.7021,-2.7006,-2.6942,-2.6926,-2.6942,-2.6992,-2.6926,-2.6993,-2.7127,-2.7061,-2.7128,-2.7299,-2.7594,-2.7778,-2.7843,-2.7802,-2.7831,-2.7932,-0.9066,-0.9022,-0.9241,-1.0028,-1.0411,-1.1017,-1.2212,-1.459,-1.6603,-1.7532,-1.9097,0.0,0.0,0.0,0.0,0.0,0.0,-1.6708,0.0,0.0,0.0,-1.2697,-1.1246,-1.0572,-1.0883,-1.014,0.0,0.0,-0.9104,0.0,0.0,0.0,-0.9968,-1.155,-1.1885,0.0,-1.5563,0.0,0.0,0.0,0.0,0.0,0.0,-2.132,-2.2233,-2.2319,-2.294,-2.3853,-2.4715,0.0,-2.4301,0.0,0.0,0.0,0.0,0.0,0.0,0.0,0.0,0.0,0.0,0.0,0.0,0.0,-1.8962,0.0,-1.8211,0.0,0.0,0.0,0.0,0.0,0.0,0.0,0.0,0.0,0.0,0.0,0.0,0.0,0.0,0.0,0.0,0.0,0.0,0.0,-2.1282,-2.1332,-2.2293,-2.2847,-2.3401,-2.4035,-2.4069,-2.4518,-2.5439,-2.5902,-2.6234,-2.653,-2.6993,-2.7152,-2.7055,-2.7039,-2.7039,-2.7055,-2.7023,-2.7088,-2.717,-2.717,-2.7202,-2.7237,-2.7419,-2.7593,-2.7722,-2.7512,-2.7698,-2.8043,-0.9398,0.0,0.0,0.0,-1.0248,-1.1166,-1.3079,-1.5932,-1.8097,0.0,0.0,0.0,-2.1342,-2.0842,0.0,0.0,0.0,-1.8786,0.0,0.0,-1.5236,-1.4874,-1.3035,0.0,0.0,0.0,0.0,-0.9398,-0.9208,-0.9104,0.0,0.0,-1.0089,-1.1896,0.0,-1.4365,-1.6974,0.0,0.0,-1.8586,-1.8752,-1.9062,-1.9648,-2.163,-2.2526,-2.2699,-2.2699,-2.3181,-2.3767,-2.3578,-2.3629,0.0,-2.4264,0.0,0.0,0.0,0.0,0.0,-2.2699,0.0,0.0,0.0,0.0,0.0,0.0,0.0,0.0,0.0,0.0,0.0,0.0,0.0,0.0,0.0,0.0,0.0,0.0,0.0,0.0,0.0,0.0,0.0,0.0,0.0,0.0,0.0,0.0,-2.0061,-2.1391,-2.1839,-2.2497,-2.346,-2.3311,-2.3688,-2.4646,-2.5198,-2.5577,-2.5816,-2.6385,-2.6613,-2.6533,-2.6706,-2.6809,-2.6842,-2.7016,-2.7184,-2.7299,-2.7299,-2.7299,-2.7299,-2.7299,-2.7414,-2.7555,-2.7327,-2.7538,-2.7937,-1.0163,-0.9582,0.0,0.0,0.0,-1.2362,-1.533,-1.6502,-1.7828,0.0,0.0,0.0,0.0,0.0,0.0,0.0,0.0,-2.1906,-2.036,0.0,-1.7259,0.0,0.0,-1.389,0.0,0.0,-1.097,-1.0163,-0.9449,-0.9104,0.0,0.0,0.0,0.0,0.0,-1.4848,-1.7053,-1.7821,-1.9838,-2.2388,-2.0911,-2.1221,-2.2492,0.0,-2.2078,-2.2699,-2.2699,0.0,0.0,-2.2974,-2.3216,0.0,0.0,0.0,0.0,0.0,0.0,0.0,0.0,0.0,0.0,-2.1082,0.0,0.0,0.0,0.0,-1.9467,0.0,0.0,0.0,0.0,0.0,-1.8724,-1.7208,0.0,0.0,0.0,0.0,0.0,0.0,0.0,0.0,0.0,0.0,0.0,0.0,0.0,0.0,-2.097,-2.1439,-2.1957,-2.2716,-2.2733,-2.3081,-2.3836,-2.3871,-2.4267,-2.504,-2.5057,-2.5074,-2.5077,-2.5741,-2.6067,-2.6163,-2.6808,-2.7184,-2.7299,-2.7299,-2.7299,-2.7299,-2.7299,-2.7316,-2.7318,-2.7302,-2.7302,-2.7336,0.0,0.0,0.0,0.0,0.0,-1.1883,-1.548,-1.7458,0.0,0.0,0.0,0.0,0.0,0.0,-2.4594,0.0,0.0,-2.356,-2.2026,-2.0734,0.0,0.0,0.0,-1.6511,0.0,0.0,-1.3025,-1.1723,-1.0445,0.0,0.0,0.0,0.0,0.0,0.0,-1.5668,0.0,0.0,0.0,0.0,0.0,-2.132,-2.2664,0.0,0.0,-2.2699,-2.2699,-2.2854,0.0,-2.3353,-2.3267,-2.3216,-2.3974,-2.3509,-2.2802,-2.3285,-2.3078,0.0,0.0,0.0,-2.3438,-2.173,0.0,0.0,0.0,0.0,0.0,0.0,0.0,0.0,0.0,0.0,-1.8976,-1.7959,-1.6932,0.0,0.0,0.0,0.0,0.0,0.0,0.0,0.0,0.0,0.0,0.0,-1.7724,0.0,0.0,-2.17,-2.244,-2.2699,-2.2699,-2.2819,-2.3078,-2.356,-2.3939,-2.4215,-2.4747,-2.5005,-2.5023,-2.5235,-2.5355,-2.5404,-2.613,-2.6458,-2.6557,-2.7075,-2.7299,-2.7299,-2.7299,-2.7299,-2.7299,-2.7299,-2.7299,-2.725,-1.1833,0.0,0.0,0.0,0.0,0.0,0.0,0.0,0.0,0.0,-2.3805,0.0,-2.5316,0.0,-2.5402,0.0,-2.5402,-2.4747,-2.3198,-2.2647,0.0,-2.1251,-2.0062,0.0,0.0,0.0,-1.5133,-1.3317,0.0,-1.1432,0.0,0.0,0.0,0.0,0.0,0.0,0.0,0.0,-2.0722,0.0,0.0,-2.182,0.0,0.0,-2.2699,-2.2699,0.0,-2.2699,-2.2767,-2.325,-2.3095,-2.2871,-2.3871,-2.3491,-2.2836,-2.3578,-2.3285,-2.275,-2.3026,-2.3304,0.0,-2.2027,-2.1979,0.0,-2.0372,0.0,0.0,0.0,0.0,0.0,0.0,0.0,-1.9734,-1.8439,-1.7142,-1.5667,0.0,0.0,0.0,0.0,0.0,0.0,0.0,0.0,-1.5339,-1.6871,0.0,0.0,0.0,0.0,-2.213,-2.2681,-2.2699,-2.2699,-2.2699,-2.3181,-2.3422,-2.3422,-2.3922,-2.4178,-2.4181,-2.4439,-2.456,-2.4612,-2.5385,-2.5697,-2.5781,-2.6557,-2.6868,-2.6902,-2.7178,-2.7299,-2.7299,-2.7299,-2.7299,-2.725,0.0,0.0,0.0,0.0,-1.3511,0.0,0.0,0.0,-2.221,0.0,-2.4625,-2.54,-2.6092,-2.6146,-2.6146,-2.6146,-2.6146,0.0,-2.4008,-2.3922,0.0,0.0,-2.2108,-2.1349,-2.0532,0.0,0.0,0.0,0.0,0.0,0.0,0.0,0.0,0.0,-1.3001,0.0,-1.7208,-1.9447,-2.1302,-2.2699,-2.2699,-2.2699,-2.2699,-2.2699,-2.2699,-2.2699,-2.2699,-2.2699,-2.2699,-2.2699,-2.2699,-2.2699,-2.2763,-2.2759,-2.2863,-2.3605,-2.3342,-2.2928,-2.3601,-2.3344,-2.2729,-2.2056,-2.2431,0.0,0.0,0.0,-2.2863,0.0,0.0,0.0,0.0,0.0,0.0,-1.8721,-1.7586,-1.6226,0.0,0.0,0.0,0.0,0.0,0.0,0.0,0.0,-1.3735,-1.6622,-1.5633,0.0,0.0,0.0,-2.1083,-2.2595,-2.2681,-2.2699,-2.2699,-2.2699,-2.2699,-2.2699,-2.2699,-2.2699,-2.2716,-2.344,-2.375,-2.3802,-2.4594,-2.4936,-2.5005,-2.5766,-2.6094,-2.618,-2.6988,-2.7299,-2.7299,-2.7299,-2.7299,-2.7299,-1.4252,-1.5176,-1.6124,0.0,-1.663,-1.7503,0.0,0.0,0.0,0.0,-2.545,-2.6197,-2.6918,-2.6988,-2.6988,-2.6988,-2.6988,0.0,0.0,0.0,0.0,-2.4436,-2.3746,-2.2985,-2.213,-1.9545,0.0,-1.7324,0.0,0.0,-1.3016,0.0,0.0,0.0,0.0,0.0,-1.8011,-1.97,-2.1302,-2.2699,-2.2699,-2.2699,0.0,0.0,-2.2699,-2.2699,-2.2699,-2.2699,-2.2699,-2.2699,-2.2699,-2.2824,-2.3576,-2.3431,-2.3185,-2.4123,-2.4256,-2.4033,-2.3601,-2.3892,-2.4112,-2.332,-2.2909,-2.2599,0.0,0.0,0.0,0.0,0.0,0.0,0.0,0.0,0.0,0.0,-1.7931,0.0,0.0,0.0,0.0,0.0,0.0,0.0,0.0,-1.2904,-1.3631,-1.44,-1.5684,0.0,0.0,0.0,0.0,-2.1854,-2.2406,-2.2699,-2.2699,-2.2699,-2.2699,-2.2699,-2.2699,-2.2699,-2.2699,-2.2905,-2.2974,-2.3026,-2.3784,-2.4112,-2.4215,-2.5542,-2.6094,-2.618,-2.6988,-2.7299,-2.7299,-2.7299,-2.7299,-2.7299,-1.5858,0.0,0.0,-1.9279,0.0,0.0,-2.1482,0.0,0.0,-2.487,-2.5729,0.0,-2.6728,-2.7092,-2.7299,-2.7299,-2.7405,0.0,0.0,0.0,0.0,-2.5262,-2.5174,-2.4557,-2.3336,-2.1766,0.0,-1.825,0.0,0.0,-1.3134,0.0,0.0,0.0,0.0,-1.5875,0.0,-2.0343,-2.1906,-2.2699,-2.2699,0.0,0.0,-2.2699,-2.2905,-2.3147,-2.2819,-2.2699,-2.2699,-2.2699,-2.2777,-2.2976,-2.3535,-2.3497,-2.3419,-2.4331,-2.4355,-2.4046,-2.3945,-2.4109,-2.4174,-2.3714,-2.3613,-2.3516,-2.32,-2.3371,-2.3474,0.0,-2.3286,-2.3399,0.0,0.0,0.0,0.0,0.0,0.0,0.0,0.0,0.0,0.0,0.0,0.0,-1.1661,-1.2438,-1.326,-1.3588,-1.4486,0.0,0.0,0.0,0.0,-2.1044,-2.213,-2.2699,-2.2699,-2.2699,-2.2699,-2.2699,-2.2699,-2.2699,-2.2699,-2.2699,-2.2699,-2.2716,-2.3147,-2.3319,-2.3422,-2.4594,-2.5301,-2.5715,-2.6851,-2.7299,-2.7299,-2.7299,-2.7299,-2.7299,0.0,0.0,0.0,0.0,0.0,0.0,0.0,-2.392,0.0,-2.5294,0.0,-2.6608,-2.6521,-2.7145,-2.7527,-2.7405,0.0,-2.749,-2.6852,-2.7433,-2.7229,-2.5919,-2.6352,-2.5918,-2.4371,-2.4212,0.0,0.0,0.0,0.0,-1.2589,0.0,0.0,0.0,0.0,0.0,0.0,-2.1113,-2.2664,-2.2836,-2.2836,-2.2836,-2.2854,-2.2957,-2.3336,-2.3733,-2.3181,-2.2923,-2.2836,-2.2733,-2.2881,-2.3089,-2.3126,-2.3277,-2.3591,-2.4318,-2.4127,-2.3797,-2.4395,-2.4199,-2.3829,-2.3732,-2.4273,-2.4682,-2.4042,-2.4395,-2.4664,-2.3993,-2.3847,-2.3801,0.0,0.0,0.0,0.0,0.0,0.0,0.0,0.0,0.0,0.0,0.0,0.0,0.0,-1.2334,-1.2828,-1.3277,-1.2811,0.0,0.0,0.0,0.0,-2.036,-2.1802,-2.2595,-2.2699,-2.2699,-2.2699,-2.2699,-2.2699,-2.2699,-2.2699,-2.2699,-2.2699,-2.2699,-2.2699,-2.2699,-2.275,-2.3509,-2.4267,-2.5143,-2.6575,-2.7144,-2.7161,-2.7247,-2.7299,-2.7299,0.0,0.0,0.0,0.0,0.0,-2.5177,-2.599,-2.5728,-2.5884,-2.7222,-2.8284,-2.8877,-2.8742,-2.887,-2.8674,-2.8021,-2.8047,0.0,0.0,0.0,0.0,-2.7825,-2.7184,-2.6449,-2.5594,-2.3417,-2.1364,0.0,-1.7304,-1.4976,-1.2599,0.0,0.0,0.0,0.0,0.0,-1.9895,-2.1234,0.0,-2.3612,-2.3612,-2.3612,-2.3681,-2.4336,-2.4267,-2.3871,-2.4405,-2.4163,-2.3509,-2.2905,-2.2881,-2.3126,-2.3301,-2.3522,-2.3792,-2.415,-2.463,-2.4943,-2.4415,-2.4712,-2.5019,-2.4413,-2.4414,-2.4542,-2.4413,-2.4487,-2.4469,-2.4115,-2.4058,-2.379,-2.296,0.0,0.0,0.0,0.0,0.0,0.0,0.0,0.0,0.0,0.0,0.0,0.0,0.0,-1.2966,-1.1868,0.0,0.0,0.0,0.0,0.0,0.0,-2.1302,0.0,0.0,0.0,-2.2699,-2.2699,-2.2699,-2.2699,-2.2699,-2.2699,-2.2699,-2.2699,-2.2699,-2.2699,-2.275,-2.3509,-2.4267,-2.5092,-2.5971,-2.6301,-2.6402,-2.7057,-2.7299,-2.7299,0.0,0.0,0.0,0.0,0.0,0.0,0.0,-2.8335,0.0,-2.877,-2.9187,-2.948,-2.942,-2.9751,-2.9647,-2.8846,-2.8994,-2.8949,-2.8502,-2.8516,-2.8584,-2.8602,-2.8153,0.0,-2.67,-2.4974,-2.291,-2.0471,-1.7925,-1.5471,-1.3164,-1.2712,0.0,-1.211,0.0,-1.7987,0.0,0.0,0.0,-2.3836,-2.425,-2.4422,-2.4456,-2.485,-2.5005,-2.4991,-2.5005,-2.5005,-2.487,-2.4129,-2.4152,-2.4518,-2.4605,-2.4638,-2.4657,-2.4776,-2.4797,-2.4697,-2.4311,-2.4552,-2.4838,-2.4487,-2.4447,-2.45,-2.45,-2.45,-2.4455,-2.4339,-2.4312,-2.3999,-2.2959,-2.1901,0.0,0.0,0.0,0.0,0.0,0.0,0.0,0.0,0.0,0.0,0.0,0.0,0.0,0.0,0.0,0.0,0.0,0.0,0.0,0.0,0.0,0.0,0.0,0.0,-2.2699,-2.2699,-2.2699,-2.2699,-2.2699,-2.2699,-2.2699,-2.2699,-2.2699,-2.2699,-2.275,-2.3509,-2.4026,-2.4491,-2.5646,-2.6094,-2.6197,-2.7006,-2.7299,-2.7299,0.0,-2.6313,0.0,0.0,-2.8107,0.0,-2.9487,-3.0822,-3.1407,-3.0314,-3.0179,-3.0197,-3.0184,-3.0713,-3.0735,-2.9945,-3.017,-3.0076,-2.9374,-2.9197,-2.9147,-2.9267,-2.8989,-2.8443,-2.757,-2.6834,-2.4827,0.0,-1.9219,0.0,0.0,-1.3397,-1.3154,-1.362,0.0,0.0,0.0,0.0,-2.3853,-2.4336,-2.4974,-2.5229,-2.5264,-2.5419,-2.5747,-2.6042,-2.5643,-2.5868,-2.6281,-2.5678,-2.5586,-2.5712,-2.5775,-2.5671,-2.556,-2.5629,-2.5082,-2.4449,-2.4468,-2.4423,-2.4394,-2.4412,-2.4465,-2.45,-2.45,-2.45,-2.45,-2.45,-2.45,-2.4188,-2.3161,-2.2382,0.0,0.0,0.0,0.0,0.0,0.0,0.0,0.0,0.0,0.0,0.0,0.0,0.0,0.0,0.0,0.0,-1.2621,0.0,0.0,0.0,0.0,-2.1716,-2.2457,0.0,-2.2699,-2.2699,-2.2699,-2.2699,-2.2699,-2.2699,-2.2699,-2.2699,-2.2699,-2.2699,-2.275,-2.3336,-2.3578,-2.3698,-2.5077,-2.5715,-2.5971,-2.6747,-2.7144,-2.7299,0.0,0.0,0.0,0.0,0.0,0.0,-3.0952,-3.2356,-3.3063,-3.2156,-3.2318,-3.2458,-3.2414,-3.252,-3.2262,-3.1464,-3.148,-3.1508,-3.1416,-3.0787,-3.0431,-3.0431,-2.9491,-2.8666,-2.8054,-2.7547,-2.5823,0.0,0.0,-1.9199,0.0,-1.51,-1.5332,-1.6753,-1.8492,0.0,0.0,-2.2742,-2.3991,-2.5887,-2.5956,-2.6006,-2.6092,-2.6816,-2.6678,-2.6195,-2.6851,-2.7126,-2.7178,-2.7109,-2.6303,-2.5407,-2.5712,-2.5919,-2.6093,-2.6391,-2.5925,-2.5294,-2.5354,-2.4866,-2.4339,-2.4465,-2.45,-2.45,-2.45,-2.45,-2.45,-2.45,-2.45,-2.4222,-2.3346,-2.3548,-2.3268,0.0,0.0,0.0,0.0,0.0,0.0,0.0,0.0,0.0,0.0,0.0,0.0,0.0,0.0,-1.0463,-1.3346,0.0,0.0,-1.9171,0.0,-2.0906,-2.1711,-2.2371,-2.2699,-2.2699,-2.2699,-2.2699,-2.2699,-2.2699,-2.2699,-2.2699,-2.2699,-2.2699,-2.2699,-2.2767,-2.2802,-2.2888,-2.3698,-2.4456,-2.5195,-2.5954,-2.6678,-2.7299,0.0,0.0,0.0,0.0,0.0,0.0,0.0,-3.3273,-3.3718,-3.3374,-3.3442,-3.353,-3.3543,-3.3568,-3.3266,-3.2445,-3.2437,-3.2268,-3.1785,-3.1485,-3.1329,-3.1329,-3.0443,-2.985,-2.9619,-2.8301,-2.6826,0.0,0.0,0.0,0.0,-1.7696,-1.7785,-1.9327,0.0,-2.2268,-2.3641,-2.4552,-2.5458,-2.6326,-2.6935,-2.7183,-2.7219,-2.7534,-2.7434,-2.715,-2.7301,-2.7329,-2.7299,-2.7299,-2.705,-2.6753,-2.6898,-2.691,-2.6898,-2.7034,-2.6644,-2.6086,-2.5622,-2.5291,-2.4986,-2.4612,-2.45,-2.45,-2.45,-2.45,-2.45,-2.45,-2.45,-2.4379,-2.4028,-2.3648,-2.3336,-2.3199,0.0,0.0,0.0,0.0,0.0,0.0,0.0,0.0,0.0,0.0,0.0,0.0,0.0,-1.0227,-1.2793,-1.3403,0.0,-1.8528,0.0,-2.0881,-2.1641,-2.2384,-2.2764,-2.2764,-2.2725,-2.2699,-2.2699,-2.2699,-2.2699,-2.2699,-2.2699,-2.2699,-2.2699,-2.2699,-2.2699,-2.2767,-2.3509,-2.4008,-2.437,-2.516,-2.5919,-2.6575,-3.1746,0.0,-3.1266,0.0,-3.2358,-3.248,-3.3382,-3.377,-3.3972,-3.3972,-3.3998,-3.4049,-3.4099,-3.4124,-3.3913,-3.3339,-3.3319,-3.3101,-3.2537,-3.2277,-3.2147,-3.2147,-3.1162,0.0,-3.0604,-2.9074,-2.7864,-2.7036,-2.4723,0.0,0.0,-2.1008,-2.0898,-2.1896,-2.3154,-2.4177,-2.4989,-2.6065,-2.6686,-2.7032,-2.7723,-2.802,-2.802,-2.802,-2.7996,-2.7915,-2.7644,-2.7496,-2.7436,-2.7392,-2.7465,-2.763,-2.7686,-2.7654,-2.7632,-2.7718,-2.7417,-2.6914,-2.6378,-2.591,-2.5458,-2.4965,-2.4667,-2.45,-2.45,-2.45,-2.45,-2.45,-2.45,-2.45,-2.45,-2.3877,-2.351,-2.395,0.0,0.0,0.0,0.0,0.0,0.0,0.0,-1.6765,0.0,0.0,0.0,0.0,0.0,-1.1422,-1.3398,-1.386,0.0,0.0,0.0,0.0,-2.1715,-2.2435,-2.2803,-2.2803,-2.2725,-2.2699,-2.2699,-2.2699,-2.2699,-2.2699,-2.2699,-2.2699,-2.2699,-2.2699,-2.2699,-2.275,-2.3267,-2.3612,-2.3871,-2.4439,-2.5129,-2.5781,-3.2532,-3.2616,-3.2821,-3.3642,-3.3788,-3.377,-3.3788,-3.3873,-3.3895,-3.3895,-3.4023,-3.4099,-3.4099,-3.4161,-3.4179,-3.4179,-3.4179,-3.4179,-3.416,-3.3429,-3.299,0.0,0.0,-3.0604,-3.0604,-2.9805,-2.8951,-2.8077,0.0,0.0,-2.5342,-2.5121,-2.4852,-2.4581,-2.5341,-2.6098,-2.6868,-2.6819,-2.738,-2.828,-2.8298,-2.8298,-2.8298,-2.8298,-2.8298,-2.8259,-2.7978,-2.7858,-2.776,-2.7554,-2.7452,-2.7438,-2.7644,-2.7883,-2.8152,-2.8495,-2.8208,-2.782,-2.7935,-2.6767,-2.5522,-2.5662,-2.5094,-2.45,-2.45,-2.45,-2.45,-2.45,-2.45,-2.45,-2.45,-2.45,-2.4133,-2.3088,0.0,0.0,0.0,0.0,0.0,0.0,-1.7875,-1.6876,-1.8583,0.0,0.0,0.0,0.0,0.0,-1.5796,0.0,0.0,-1.9282,-2.0947,0.0,-2.1805,-2.2461,-2.2803,-2.2803,-2.2725,-2.2699,-2.2699,-2.2699,-2.2699,-2.2699,-2.2699,-2.2699,-2.2699,-2.2699,-2.2699,-2.2699,-2.2716,-2.3164,-2.3802,-2.3819,-2.4319,-2.5023,-3.3529,-3.3578,-3.3823,-3.4666,-3.4321,-3.4149,-3.4787,-3.4373,-3.3998,-3.4099,-3.4099,-3.4124,-3.4161,-3.4185,-3.4197,0.0,-3.4197,-3.4197,0.0,-3.3956,-3.3807,-3.3807,-3.2797,-3.224,-3.224,-3.144,-3.0623,-2.9805,0.0,0.0,0.0,-2.5881,-2.61,-2.6513,-2.6748,-2.7282,-2.799,-2.7977,-2.8142,-2.8466,-2.8688,-2.8779,-2.8779,-2.8779,-2.8725,-2.8603,-2.8342,-2.8197,-2.8129,-2.8006,-2.7996,-2.8024,-2.8037,-2.8138,-2.8237,-2.8255,-2.8445,-2.8514,-2.8058,-2.7585,-2.6944,-2.5894,-2.5467,-2.5169,-2.463,-2.45,-2.45,-2.45,-2.45,-2.45,-2.45,-2.45,-2.4389,-2.4041,-2.4271,0.0,0.0,0.0,0.0,0.0,0.0,-1.9069,0.0,-1.8059,0.0,0.0,0.0,0.0,0.0,0.0,0.0,0.0,-2.0818,0.0,-2.186,-2.2574,-2.2902,-2.2868,-2.2803,-2.2751,-2.2699,-2.2699,-2.2699,-2.2699,-2.2699,-2.2699,-2.2699,-2.2699,-2.2699,-2.2699,-2.2699,-2.2836,-2.3043,-2.3043,-2.3526,-2.4181,-3.4973,-3.4966,-3.5119,-3.5655,-3.5304,-3.5132,-3.5721,-3.5338,-3.4986,-3.5069,-3.4803,-3.4631,-3.4643,-3.4371,0.0,-3.4197,-3.4221,-3.4233,-3.4233,-3.4233,-3.4233,-3.4233,-3.3441,-3.3001,-3.3001,-3.2221,0.0,-3.105,-3.0083,-2.9001,-2.7857,-2.7534,-2.7624,-2.8002,-2.8002,-2.8257,-2.8682,-2.8682,-2.8761,-2.8855,-2.9071,-2.9156,-2.9156,-2.9156,-2.9104,-2.8989,-2.8725,-2.8572,-2.8466,-2.835,-2.8311,-2.8324,-2.829,-2.8391,-2.8505,-2.8347,-2.8651,-2.8906,-2.8478,-2.8183,-2.7701,-2.6383,-2.5876,-2.5485,-2.4685,-2.45,-2.45,-2.45,-2.45,-2.45,-2.45,-2.45,-2.45,-2.45,-2.4231,-2.3721,-2.2868,0.0,0.0,0.0,0.0,0.0,0.0,-2.0117,-1.9863,0.0,0.0,0.0,0.0,0.0,0.0,-1.9678,-2.1572,-2.2494,-2.2357,-2.2775,-2.297,-2.2906,-2.2803,-2.2738,-2.2699,-2.2699,-2.2699,-2.2699,-2.2699,-2.2699,-2.2699,-2.2699,-2.2764,-2.2842,-2.2738,-2.2812,-2.2943,-2.2876,-2.315,-2.3549,-3.6607,-3.6554,-3.6532,0.0,-3.655,-3.6532,-3.6587,-3.6604,-3.6581,-3.6513,-3.5972,-3.5559,-3.5495,-3.481,-3.4346,-3.429,0.0,0.0,-3.4293,-3.4305,-3.4305,-3.4293,-3.352,-3.3094,-3.3083,-3.2351,-3.1942,-3.1886,-3.1087,-3.0679,-3.066,-2.9917,-2.9439,-2.9191,-2.9136,-2.9118,-2.9118,-2.9118,-2.9259,-2.9489,-2.9527,-2.9564,-2.9564,-2.9489,-2.9471,-2.945,-2.9141,-2.8962,-2.8814,-2.8615,-2.8516,-2.8471,-2.8471,-2.8682,-2.8905,-2.8743,-2.8858,-2.9028,-2.9096,-2.8618,-2.7885,-2.7022,-2.6191,-2.5429,-2.4667,-2.45,-2.45,-2.45,-2.45,-2.45,-2.45,-2.45,-2.45,-2.45,-2.3776,-2.2924,-2.2107,0.0,0.0,0.0,0.0,0.0,-2.1919,-2.1944,-2.2125,0.0,0.0,0.0,0.0,0.0,-1.9978,-2.1896,-2.2969,-2.3394,-2.3151,-2.3077,-2.3015,-2.2952,-2.2825,-2.2747,-2.2764,-2.2764,-2.2764,-2.2764,-2.2764,-2.2747,-2.276,-2.276,-2.2902,-2.3102,-2.285,-2.3042,-2.338,-2.3206,-2.3126,-2.3126,0.0,0.0,-3.6851,-3.7463,-3.7055,-3.6851,-3.7482,-3.7068,-3.666,-3.6647,-3.6506,-3.6408,-3.6395,-3.6222,-3.585,-3.525,-3.4648,-3.4293,-3.4293,-3.434,-3.4351,-3.4305,-3.4095,-3.3978,-3.393,-3.3733,-3.3324,-3.2723,-3.1905,-3.1515,-3.1515,-3.1329,-3.1203,-3.1121,-3.0491,-3.0213,-3.0213,-3.0213,-3.0264,-3.0363,-3.0976,-3.1236,-3.1162,-3.0549,-3.0326,-3.0233,-2.9548,-2.9275,-2.9243,-2.9138,-2.9127,-2.9149,-2.9093,-2.9134,-2.9134,-2.8796,-2.8909,-2.9163,-2.9167,-2.91,-2.8632,-2.718,-2.5783,-2.4723,-2.4537,-2.45,-2.45,-2.45,-2.45,-2.45,-2.45,-2.45,-2.45,-2.45,-2.3776,-2.2924,-2.2107,-2.1848,0.0,0.0,-2.1827,-2.2393,-2.2025,-2.3103,-2.309,0.0,0.0,0.0,-2.1779,-2.1917,-2.2135,-2.2432,-2.3285,-2.37,-2.3635,-2.3624,-2.358,-2.3506,-2.3427,-2.3352,-2.3306,-2.3306,-2.3306,-2.3306,-2.3306,-2.3341,-2.3393,-2.3393,-2.341,-2.3473,-2.3416,-2.3455,-2.3544,-2.3506,-2.345,-2.3416,-3.7801,-3.7801,-3.7931,-3.8377,-3.8079,-3.7931,-3.8377,-3.8079,-3.7801,-3.7801,-3.7458,-3.7204,-3.7243,-3.6883,-3.648,-3.6073,-3.5373,-3.4769,-3.4377,-3.4416,-3.4439,-3.4386,-3.4328,-3.4281,-3.4245,-3.4221,-3.3993,-3.3559,-3.2764,-3.2374,-3.2351,-3.1979,-3.1794,-3.1775,-3.1348,-3.1143,-3.1143,-3.1143,-3.1143,-3.1199,-3.1626,-3.1794,-3.1756,-3.131,-3.1143,-3.1087,-3.0641,-3.0493,-3.0437,-3.0023,-2.9933,-2.988,-2.9466,-2.9344,-2.9304,-2.9086,-2.9115,-2.92,-2.92,-2.9251,-2.8905,-2.7257,-2.594,-2.4946,-2.4574,-2.45,-2.45,-2.45,-2.45,-2.45,-2.45,-2.45,-2.4369,-2.3962,-2.3508,-2.2924,-2.2107,-2.1996,0.0,-2.1903,-2.2664,-2.3184,-2.3145,-2.3971,-2.3916,-2.2488,-2.3192,0.0,-2.2904,-2.3399,-2.3511,-2.3166,-2.3662,-2.3899,-2.3806,-2.3774,-2.3742,-2.3692,-2.3621,-2.3577,-2.3544,-2.3544,-2.3544,-2.3544,-2.3544,-2.3566,-2.3599,-2.3599,-2.3671,-2.3774,-2.3649,-2.3735,-2.3901,-2.3827,-2.3764,-2.3724,-3.9101,-3.9101,-3.9101,-3.9101,-3.9101,-3.9101,-3.9101,-3.9101,-3.9101,-3.9101,-3.847,-3.8016,-3.8079,-3.7431,-3.6954,-3.6891,-3.6373,-3.5625,-3.4647,-3.4547,-3.4495,-3.4495,-3.4374,-3.4305,-3.4293,-3.4233,-3.4197,-3.4197,-3.3569,-3.3234,-3.3157,-3.2481,-3.2165,-3.2165,-3.2035,-3.1979,-3.1979,-3.1979,-3.1979,-3.1998,-3.2109,-3.2165,-3.2147,-3.2035,-3.1979,-3.1979,-3.1849,-3.1794,-3.1682,-3.0864,-3.0604,-3.0456,-2.9638,-2.9396,-2.9396,-2.9396,-2.9315,-2.9222,-2.9222,-2.918,-2.8759,-2.7269,-2.6293,-2.5485,-2.4685,-2.45,-2.45,-2.45,-2.45,-2.45,-2.45,-2.45,-2.4212,-2.3333,-2.3203,-2.2924,-2.2107,0.0,-2.2423,-2.3128,-2.3314,-2.3694,-2.4425,-2.45,-2.45,-2.45,-2.45,-2.45,-2.45,-2.45,-2.4312,-2.3919,-2.4068,-2.4078,-2.3909,-2.3858,-2.3819,-2.3819,-2.3767,-2.3735,-2.3724,-2.3724,-2.3724,-2.3724,-2.3724,-2.3735,-2.3746,-2.3746,-2.3878,-2.4056,-2.3819,-2.3989,-2.4321,-2.4134,-2.4066,-2.4056,-3.9101,-3.9101,-3.9101,-3.9101,-3.9101,-3.9101,-3.9101,-3.9101,-3.9101,-3.9101,-3.8976,-3.8901,-3.8915,-3.879,-3.8437,-3.7764,-3.7676,-3.7032,-3.5581,-3.4873,-3.4495,-3.4495,-3.4439,-3.4351,-3.4293,-3.4233,-3.4197,-3.4197,-3.4079,-3.4023,-3.4011,-3.3881,-3.3826,-3.3788,-3.3131,-3.2816,-3.2816,-3.2816,-3.2816,-3.2871,-3.3559,-3.3826,-3.3751,-3.3076,-3.2816,-3.2723,-3.2035,-3.1794,-3.1682,-3.0864,-3.0604,-3.0456,-2.9638,-2.9396,-2.9396,-2.9396,-2.9386,-2.9376,-2.9376,-2.8837,-2.8067,-2.713,-2.6293,-2.5485,-2.4685,-2.45,-2.45,-2.45,-2.45,-2.45,-2.45,-2.45,-2.4212,-2.3333,-2.3203,-2.2924,-2.2107,0.0,-2.3054,-2.3184,-2.3851,-2.4351,-2.4481,-2.45,-2.45,-2.45,-2.45,-2.45,-2.45,-2.45,-2.4474,-2.4393,-2.442,-2.442,-2.4393,-2.4384,-2.4384,-2.4384,-2.4375,-2.4321,-2.4284,-2.4284,-2.4284,-2.4284,-2.4284,-2.4321,-2.4348,-2.4348,-2.4384,-2.4411,-2.4384,-2.4402,-2.4474,-2.442,-2.4394,-2.4349,-3.9101,-3.9101,-3.9101,-3.9101,-3.9101,-3.9101,-3.9101,-3.9101,-3.9101,-3.9101,-3.9059,-3.9045,-3.9101,-3.9059,-3.8897,-3.8581,-3.8221,-3.7541,-3.6422,-3.5584,-3.4974,-3.4569,-3.4461,-3.4351,-3.4245,-3.4245,-3.4233,-3.4197,-3.4233,-3.4233,-3.4197,-3.4197,-3.4197,-3.4179,-3.3807,-3.364,-3.364,-3.364,-3.364,-3.3677,-3.4048,-3.4197,-3.416,-3.3788,-3.364,-3.3603,-3.3231,-3.3094,-3.2983,-3.2165,-3.1608,-3.1106,-3.0288,-2.975,-2.9396,-2.9396,-2.9396,-2.9396,-2.9396,-2.9099,-2.8597,-2.7761,-2.6944,-2.6135,-2.5336,-2.4816,-2.45,-2.45,-2.45,-2.45,-2.45,-2.45,-2.4212,-2.3333,-2.3582,-2.3609,-2.2757,-2.3359,-2.3906,-2.3906,-2.4249,-2.45,-2.45,-2.45,-2.45,-2.45,-2.45,-2.45,-2.45,-2.45,-2.45,-2.45,-2.45,-2.45,-2.45,-2.45,-2.45,-2.45,-2.45,-2.4482,-2.4456,-2.4456,-2.4456,-2.4456,-2.4456,-2.4474,-2.45,-2.45,-2.45,-2.45,-2.45,-2.45,-2.45,-2.45,-2.4482,-2.4456,-3.9101,-3.9101,-3.9101,-3.9101,-3.9101,-3.9101,-3.9101,-3.9101,-3.9101,-3.9101,-3.9064,-3.905,-3.9101,-3.9045,-3.9031,-3.9101,-3.8611,-3.7895,-3.6951,-3.6339,-3.5585,-3.4639,-3.4484,-3.4381,-3.4245,-3.4281,-3.4269,-3.4221,-3.4257,-3.4245,-3.4197,-3.4197,-3.4197,-3.4197,-3.4197,-3.4197,-3.4197,-3.4197,-3.4197,-3.4197,-3.4197,-3.4197,-3.4197,-3.4197,-3.4197,-3.4197,-3.4197,-3.4197,-3.4067,-3.328,-3.2593,-3.1905,-3.0902,-3.0177,-2.9638,-2.9452,-2.9396,-2.9396,-2.9396,-2.9396,-2.9192,-2.8319,-2.7631,-2.6925,-2.5931,-2.5224,-2.4723,-2.4537,-2.45,-2.45,-2.45,-2.45,-2.4212,-2.3333,0.0,-2.4194,-2.3314,-2.3944,-2.45,-2.45,-2.45,-2.45,-2.45,-2.45,-2.45,-2.45,-2.45,-2.45,-2.45,-2.45,-2.45,-2.45,-2.45,-2.45,-2.45,-2.45,-2.45,-2.45,-2.45,-2.45,-2.45,-2.45,-2.45,-2.45,-2.45,-2.45,-2.45,-2.45,-2.45,-2.45,-2.45,-2.45,-2.45,-2.45,-2.45,-2.45,-3.9101,-3.9101,-3.9101,-3.9101,-3.9101,-3.9101,-3.9101,-3.9101,-3.9101,-3.9101,-3.9101,-3.9101,-3.9101,-3.9101,-3.9101,-3.9101,-3.91,-3.8478,-3.7007,-3.69,-3.6204,-3.4658,-3.4528,-3.4461,-3.4393,-3.4328,-3.4293,-3.4293,-3.4233,-3.4209,-3.4197,-3.4197,-3.4197,-3.4197,-3.4197,-3.4197,-3.4197,-3.4197,-3.4197,-3.4197,-3.4197,-3.4197,-3.4197,-3.4197,-3.4197,-3.4197,-3.4197,-3.4197,-3.4067,-3.328,-3.2953,-3.2648,-3.1087,-3.0567,-3.0363,-2.9619,-2.9396,-2.9396,-2.9396,-2.9396,-2.9192,-2.8319,-2.8059,-2.7613,-2.6052,-2.5652,-2.541,-2.4648,-2.45,-2.45,-2.45,-2.45,-2.4212,-2.3333,0.0,0.0,-2.3314,-2.3944,-2.45,-2.45,-2.45,-2.45,-2.45,-2.45,-2.45,-2.45,-2.45,-2.45,-2.45,-2.45,-2.45,-2.45,-2.45,-2.45,-2.45,-2.45,-2.45,-2.45,-2.45,-2.45,-2.45,-2.45,-2.45,-2.45,-2.45,-2.45,-2.45,-2.45,-2.45,-2.45,-2.45,-2.45,-2.45,-2.45,-2.45,-2.45,-3.9142,-3.9101,-3.9101,-3.9101,-3.9101,-3.9101,-3.9101,-3.9101,-3.9101,-3.9101,-3.9101,-3.9101,-3.9101,-3.9101,-3.9101,-3.9101,-3.9229,-3.8861,-3.7717,-3.7753,-3.6827,-3.4633,-3.4517,-3.4473,-3.4386,-3.4328,-3.4293,-3.4293,-3.4233,-3.4197,-3.4197,-3.4197,-3.4197,-3.4197,-3.4197,-3.4197,-3.4197,-3.4197,-3.4197,-3.4197,-3.4197,-3.4197,-3.4197,-3.4197,-3.4197,-3.4197,-3.4197,-3.4197,-3.4141,-3.3844,-3.3398,-3.289,-3.2277,-3.1403,-3.0437,-2.9638,-2.9396,-2.9396,-2.9396,-2.9396,-2.9322,-2.8988,-2.8505,-2.7817,-2.6702,-2.6061,-2.5466,-2.4667,-2.45,-2.45,-2.45,-2.45,-2.4388,-2.4063,0.0,-2.4388,-2.4045,-2.4286,-2.45,-2.45,-2.45,-2.45,-2.45,-2.45,-2.45,-2.45,-2.45,-2.45,-2.45,-2.45,-2.45,-2.45,-2.45,-2.45,-2.45,-2.45,-2.45,-2.45,-2.45,-2.45,-2.45,-2.45,-2.45,-2.45,-2.45,-2.45,-2.45,-2.45,-2.45,-2.45,-2.45,-2.45,-2.45,-2.45,-2.45,-2.45,-3.9137,-3.9101,-3.9101,-3.9101,-3.9101,-3.9101,-3.9101,-3.9101,-3.9101,-3.9101,-3.9101,-3.9101,-3.9101,-3.9101,-3.9115,-3.9129,-3.9288,-3.9031,-3.8184,-3.7996,-3.7031,-3.5034,-3.4678,-3.4506,-3.4461,-3.4404,-3.4351,-3.4351,-3.4293,-3.4257,-3.4257,-3.4245,-3.4233,-3.4233,-3.4209,-3.4209,-3.4233,-3.4233,-3.4233,-3.4233,-3.4233,-3.4221,-3.4197,-3.4197,-3.4197,-3.4197,-3.4197,-3.4197,-3.4197,-3.4197,-3.3826,-3.3324,-3.3083,-3.1905,-3.0437,-2.9638,-2.9396,-2.9396,-2.9396,-2.9396,-2.9396,-2.9396,-2.8951,-2.8282,-2.7464,-2.6646,-2.5856,-2.5039,-2.4685,-2.45,-2.45,-2.45,-2.4508,-2.4498,-2.4508,-2.4508,-2.4534,-2.4507,-2.4507,-2.4534,-2.4524,-2.4524,-2.4524,-2.4507,-2.4498,-2.4498,-2.4508,-2.45,-2.45,-2.45,-2.45,-2.45,-2.45,-2.45,-2.45,-2.45,-2.45,-2.45,-2.45,-2.45,-2.45,-2.45,-2.45,-2.45,-2.45,-2.45,-2.45,-2.45,-2.45,-2.45,-2.45,-2.45,-2.45,-2.45,-2.45,-2.45,-3.917,-3.9101,-3.9101,-3.9101,-3.9101,-3.9101,-3.9101,-3.9101,-3.9101,-3.9101,-3.9101,-3.9101,-3.9101,-3.9101,-3.9129,-3.9197,-3.9315,-3.9057,-3.8259,-3.7526,-3.6753,-3.5935,-3.5071,-3.4612,-3.4612,-3.4528,-3.4495,-3.4495,-3.442,-3.4386,-3.4404,-3.4328,-3.4293,-3.4293,-3.4233,-3.4233,-3.4293,-3.4293,-3.4293,-3.4293,-3.4293,-3.4257,-3.4197,-3.4197,-3.4197,-3.4197,-3.4197,-3.4197,-3.4197,-3.4197,-3.4197,-3.4061,-3.3243,-3.1886,-3.0448,-2.9649,-2.9407,-2.9407,-2.9407,-2.9407,-2.9407,-2.9407,-2.9396,-2.9174,-2.83,-2.7483,-2.6684,-2.5875,-2.5076,-2.4518,-2.45,-2.45,-2.4498,-2.4495,-2.4507,-2.4515,-2.459,-2.4547,-2.4539,-2.458,-2.4607,-2.4607,-2.4607,-2.4528,-2.4503,-2.4503,-2.4507,-2.4508,-2.45,-2.45,-2.45,-2.45,-2.45,-2.45,-2.45,-2.45,-2.45,-2.45,-2.45,-2.45,-2.45,-2.45,-2.45,-2.45,-2.45,-2.45,-2.45,-2.45,-2.45,-2.45,-2.45,-2.45,-2.45,-2.45,-2.45,-2.45,-3.9421,-3.9232,-3.9101,-3.9101,-3.9101,-3.9101,-3.9101,-3.9101,-3.9101,-3.9101,-3.9101,-3.9101,-3.9101,-3.9101,-3.9129,-3.9197,-3.9315,-3.9344,-3.9196,-3.8401,-3.7587,-3.6791,-3.5953,-3.5221,-3.4602,-3.4528,-3.4495,-3.4495,-3.442,-3.4393,-3.4328,-3.4305,-3.4293,-3.4293,-3.4281,-3.4305,-3.4381,-3.4316,-3.4328,-3.4351,-3.4269,-3.4245,-3.4269,-3.4269,-3.4245,-3.4209,-3.4257,-3.4245,-3.4197,-3.4197,-3.4328,-3.4263,-3.2983,-3.2251,-3.1572,-3.0167,-2.9753,-2.9753,-2.9753,-2.9753,-2.969,-2.946,-2.9396,-2.9174,-2.83,-2.791,-2.7352,-2.5987,-2.5549,-2.5231,-2.4617,-2.4549,-2.4574,-2.4564,-2.4574,-2.4574,-2.4599,-2.4572,-2.4621,-2.4734,-2.4749,-2.4787,-2.4867,-2.4867,-2.4842,-2.4842,-2.4806,-2.4778,-2.4775,-2.4775,-2.4742,-2.4637,-2.4637,-2.4599,-2.45,-2.45,-2.45,-2.45,-2.45,-2.45,-2.45,-2.45,-2.45,-2.45,-2.45,-2.45,-2.45,-2.45,-2.45,-2.45,-2.45,-2.45,-2.45,-2.45,-2.45,-2.45,-3.966,-3.9501,-3.9389,-3.9389,-3.9318,-3.9259,-3.9259,-3.9183,-3.9101,-3.9101,-3.9101,-3.9101,-3.9101,-3.9101,-3.9142,-3.9256,-3.9412,-3.9502,-3.9589,-3.877,-3.7943,-3.7148,-3.6329,-3.5484,-3.4631,-3.455,-3.4539,-3.4539,-3.4495,-3.4461,-3.4427,-3.4351,-3.434,-3.434,-3.4305,-3.4328,-3.4386,-3.4393,-3.4397,-3.442,-3.434,-3.4328,-3.434,-3.434,-3.4305,-3.4281,-3.4328,-3.4293,-3.4245,-3.4245,-3.4386,-3.4344,-3.2873,-3.2397,-3.2065,-3.0387,-2.9902,-2.9902,-2.9902,-2.9902,-2.9845,-2.9654,-2.9531,-2.9332,-2.8809,-2.8455,-2.7979,-2.7075,-2.6372,-2.5756,-2.5231,-2.4834,-2.4613,-2.4681,-2.4681,-2.4704,-2.4782,-2.4763,-2.4792,-2.4922,-2.491,-2.4942,-2.5037,-2.5012,-2.5,-2.5,-2.4962,-2.4942,-2.4942,-2.4942,-2.4902,-2.483,-2.4823,-2.4779,-2.4665,-2.4681,-2.4629,-2.45,-2.45,-2.45,-2.45,-2.45,-2.45,-2.45,-2.45,-2.45,-2.45,-2.45,-2.45,-2.45,-2.45,-2.45,-2.45,-2.45,-2.45,-2.45,-3.9893,-3.9819,-3.9808,-3.9808,-3.9656,-3.9532,-3.9532,-3.9292,-3.9142,-3.9142,-3.9115,-3.9101,-3.9101,-3.9101,-3.9188,-3.9373,-3.9514,-3.9589,-3.9589,-3.877,-3.7943,-3.7148,-3.6329,-3.5484,-3.4631,-3.4612,-3.4612,-3.4612,-3.4612,-3.4602,-3.4602,-3.4473,-3.4416,-3.4416,-3.434,-3.4351,-3.4427,-3.4484,-3.4506,-3.4506,-3.4495,-3.4461,-3.4416,-3.4416,-3.4386,-3.4386,-3.4397,-3.4351,-3.4293,-3.434,-3.4487,-3.4406,-3.3004,-3.2564,-3.2231,-3.0557,-3.0064,-3.0037,-2.9969,-2.9942,-2.9942,-2.9926,-2.9775,-2.9662,-2.9635,-2.9059,-2.8569,-2.8689,-2.7437,-2.6298,-2.6147,-2.5371,-2.4782,-2.4828,-2.4835,-2.4883,-2.5066,-2.5047,-2.5047,-2.5101,-2.5126,-2.5113,-2.5124,-2.5082,-2.5047,-2.5043,-2.5043,-2.5037,-2.5037,-2.5037,-2.5031,-2.5019,-2.5019,-2.4981,-2.4917,-2.4968,-2.484,-2.4532,-2.4541,-2.4532,-2.4534,-2.4515,-2.4517,-2.4508,-2.45,-2.45,-2.45,-2.45,-2.45,-2.45,-2.45,-2.45,-2.45,-2.45,-2.45,-2.45,-4.0119,-3.9935,-3.9808,-3.9808,-3.9765,-3.9731,-3.9731,-3.9549,-3.9408,-3.9408,-3.9232,-3.9101,-3.9101,-3.9101,-3.9188,-3.9373,-3.9514,-3.9589,-3.9589,-3.877,-3.7943,-3.7148,-3.6329,-3.5484,-3.4631,-3.4612,-3.4612,-3.4612,-3.4612,-3.4561,-3.4517,-3.4495,-3.4484,-3.4484,-3.4461,-3.4495,-3.455,-3.4517,-3.4528,-3.4561,-3.4461,-3.445,-3.4484,-3.4484,-3.4397,-3.4328,-3.445,-3.4381,-3.4281,-3.466,-3.4908,-3.492,-3.4086,-3.3803,-3.3484,-3.1802,-3.1309,-3.1162,-3.0471,-3.0286,-3.026,-3.0087,-3.0059,-3.0022,-2.9878,-2.9699,-2.9417,-2.8818,-2.8444,-2.7806,-2.6498,-2.6111,-2.5793,-2.5151,-2.5037,-2.5043,-2.5084,-2.5084,-2.5118,-2.5243,-2.5253,-2.5308,-2.5406,-2.5391,-2.5378,-2.5317,-2.5312,-2.5303,-2.5308,-2.5308,-2.5269,-2.5154,-2.5154,-2.5103,-2.4975,-2.4994,-2.4929,-2.4809,-2.4874,-2.4832,-2.4723,-2.4678,-2.4591,-2.4505,-2.4498,-2.45,-2.45,-2.45,-2.45,-2.45,-2.45,-2.45,-2.45,-2.45,-2.45,-2.45,-4.0386,-4.0248,-4.0129,-4.0129,-4.0053,-3.9983,-3.9983,-3.9794,-3.9637,-3.9637,-3.9519,-3.9433,-3.9433,-3.9458,-3.9549,-3.9717,-3.9743,-3.9731,-3.9731,-3.8465,-3.753,-3.7129,-3.5927,-3.5071,-3.4612,-3.4612,-3.4612,-3.4612,-3.4612,-3.4572,-3.4539,-3.4517,-3.4495,-3.4495,-3.4495,-3.4517,-3.455,-3.4539,-3.4561,-3.4583,-3.4517,-3.4517,-3.4539,-3.4539,-3.4506,-3.4461,-3.4517,-3.452,-3.4534,-3.4841,-3.5077,-3.5128,-3.4462,-3.4225,-3.3865,-3.2183,-3.1703,-3.1506,-3.0639,-3.0396,-3.0367,-3.026,-3.026,-3.0241,-3.0078,-3.0066,-2.9989,-2.9621,-2.9232,-2.8676,-2.78,-2.696,-2.6272,-2.5883,-2.5461,-2.5228,-2.5279,-2.5288,-2.5327,-2.5393,-2.5397,-2.5419,-2.5484,-2.5507,-2.5484,-2.5456,-2.5452,-2.5448,-2.5459,-2.5459,-2.5419,-2.5346,-2.5346,-2.5293,-2.5184,-2.5214,-2.5208,-2.5143,-2.5043,-2.4968,-2.4895,-2.4785,-2.4716,-2.4639,-2.459,-2.4541,-2.4541,-2.4541,-2.4541,-2.4541,-2.4541,-2.4541,-2.4541,-2.4541,-2.4524,-2.4507,-4.0603,-4.0565,-4.0504,-4.0496,-4.0356,-4.0251,-4.0251,-4.0023,-3.9861,-3.9872,-3.9829,-3.9789,-3.981,-3.9891,-3.9982,-4.0091,-4.001,-3.9937,-3.9937,-3.8213,-3.7197,-3.7197,-3.5585,-3.468,-3.468,-3.468,-3.4668,-3.4612,-3.4612,-3.4612,-3.4602,-3.4539,-3.4517,-3.4517,-3.4517,-3.4517,-3.4517,-3.4604,-3.4647,-3.4647,-3.4689,-3.468,-3.468,-3.4658,-3.4636,-3.4626,-3.4612,-3.4711,-3.4879,-3.5016,-3.5184,-3.5247,-3.4693,-3.4474,-3.4083,-3.2407,-3.1927,-3.1705,-3.0685,-3.039,-3.039,-3.0404,-3.041,-3.0373,-3.0273,-3.0298,-3.0364,-3.0476,-2.9901,-2.9305,-2.917,-2.7901,-2.6825,-2.6646,-2.6015,-2.5538,-2.5499,-2.5507,-2.5507,-2.5507,-2.5507,-2.5507,-2.5507,-2.5507,-2.5507,-2.5507,-2.5507,-2.5507,-2.5507,-2.5507,-2.5507,-2.5507,-2.5507,-2.546,-2.5425,-2.546,-2.546,-2.5406,-2.5192,-2.5074,-2.505,-2.4916,-2.4855,-2.4821,-2.4689,-2.4645,-2.4668,-2.4645,-2.4629,-2.4629,-2.4629,-2.4613,-2.4607,-2.4599,-2.4555,-2.4495,-4.0607,-4.0591,-4.0573,-4.0504,-4.0481,-4.0465,-4.0465,-4.0267,-4.0158,-4.0157,-3.9935,-3.9821,-3.9877,-4.0013,-4.0081,-4.0101,-4.0148,-4.0167,-4.0167,-3.8508,-3.7536,-3.7536,-3.5935,-3.5039,-3.5039,-3.5039,-3.4898,-3.4612,-3.4612,-3.4612,-3.4602,-3.4602,-3.4591,-3.4591,-3.4591,-3.4591,-3.4612,-3.4791,-3.487,-3.486,-3.4988,-3.5039,-3.5022,-3.4898,-3.4821,-3.4762,-3.4636,-3.4803,-3.5073,-3.5208,-3.539,-3.5532,-3.5443,-3.538,-3.4995,-3.3323,-3.2829,-3.2472,-3.0835,-3.0406,-3.04,-3.039,-3.0408,-3.0411,-3.0453,-3.0463,-3.0474,-3.051,-3.0453,-3.0173,-2.9404,-2.9066,-2.8419,-2.6936,-2.6588,-2.6264,-2.5604,-2.5507,-2.5507,-2.5507,-2.5507,-2.5507,-2.5507,-2.5507,-2.5507,-2.5507,-2.5507,-2.5507,-2.5507,-2.5507,-2.5507,-2.5507,-2.5507,-2.5507,-2.5484,-2.5507,-2.5507,-2.5484,-2.5459,-2.5364,-2.5253,-2.5179,-2.5088,-2.4968,-2.4828,-2.484,-2.4935,-2.4818,-2.4768,-2.4768,-2.4768,-2.4696,-2.458,-2.4528,-2.4503,-2.4495,-4.0614,-4.0564,-4.0531,-4.0516,-4.0496,-4.0496,-4.0496,-4.0468,-4.0417,-4.0414,-4.0317,-4.0253,-4.0296,-4.0375,-4.0446,-4.0489,-4.0425,-4.0364,-4.0364,-3.8633,-3.7597,-3.7597,-3.5984,-3.5106,-3.5106,-3.5106,-3.503,-3.4879,-3.4879,-3.4841,-3.4771,-3.4832,-3.4841,-3.4781,-3.4851,-3.4879,-3.4889,-3.4971,-3.5006,-3.5015,-3.5073,-3.5106,-3.5098,-3.5041,-3.4997,-3.4952,-3.4907,-3.5047,-3.528,-3.5336,-3.549,-3.5668,-3.5651,-3.528,-3.46,-3.3401,-3.2684,-3.2019,-3.0791,-3.0428,-3.0392,-3.0394,-3.0406,-3.0422,-3.0474,-3.0495,-3.051,-3.0554,-3.0588,-3.0482,-3.0095,-2.9631,-2.905,-2.8277,-2.7735,-2.7136,-2.6281,-2.6165,-2.599,-2.5546,-2.5507,-2.5507,-2.5507,-2.5507,-2.5507,-2.5507,-2.5507,-2.5507,-2.5507,-2.5507,-2.5507,-2.5507,-2.5507,-2.5507,-2.5507,-2.5507,-2.5507,-2.5507,-2.5507,-2.5468,-2.5406,-2.5303,-2.5224,-2.5157,-2.5024,-2.4993,-2.5062,-2.4987,-2.4962,-2.4962,-2.4962,-2.4923,-2.4862,-2.4809,-2.4776,-2.4769]},{"header":{"parameterUnit":"m.s-1","parameterCategory":1,"la1":30.6,"la2":28.766,"lo1":-90.7593,"lo2":-88.6598,"dy":0.0162,"dx":0.0183,"nx":116,"ny":114,"refTime":"2024-07-03T12:00:00:Z","depth":0,"parameterNumber":3,"parameterNumberName":"V-component_of_WINDS"},"data":[0.0,0.0,0.0,0.0,0.0,0.0,0.0,0.0,0.0,0.0,0.0,0.0,0.0,0.0,0.0,0.0,0.0,0.0,0.0,0.0,0.0,0.0,0.0,0.0,0.0,0.0,0.0,0.0,0.0,0.0,0.0,0.0,0.0,0.0,0.0,0.0,0.0,0.0,0.0,0.0,0.0,0.0,0.0,0.0,0.0,0.0,0.0,0.0,0.0,0.0,0.0,0.0,0.0,0.0,0.0,0.0,0.0,0.0,0.0,0.0,0.0,0.0,0.0,0.0,0.0,0.0,0.0,0.0,0.0,0.0,0.0,0.0,0.0,0.0,0.0,0.0,0.0,0.0,0.0,0.0,0.0,0.0,0.0,0.0,0.0,0.0,0.0,0.0,0.0,0.0,0.0,0.0,0.0,0.0,0.0,0.0,0.0,0.0,0.0,0.0,0.0,0.0,0.0,0.0,0.0,0.0,0.0,0.0,0.0,0.0,0.0,0.0,0.0,0.0,0.0,0.0,0.0,0.0,0.0,0.0,0.0,0.0,0.0,0.0,0.0,0.0,0.0,0.0,0.0,0.0,0.0,0.0,0.0,0.0,0.0,0.0,0.0,0.0,0.0,0.0,0.0,0.0,0.0,0.0,0.0,0.0,0.0,0.0,0.0,0.0,0.0,0.0,0.0,0.0,0.0,0.0,0.0,0.0,0.0,0.0,0.0,0.0,0.0,0.0,0.0,0.0,0.0,0.0,0.0,0.0,0.0,0.0,0.0,0.0,0.0,0.0,0.0,0.0,0.0,0.0,0.0,0.0,0.0,0.0,0.0,0.0,0.0,0.0,0.0,0.0,0.0,0.0,0.0,0.0,0.0,0.0,0.0,0.0,0.0,0.0,0.0,0.0,0.0,0.0,0.0,0.0,0.0,0.0,0.0,0.0,0.0,0.0,0.0,0.0,0.0,0.0,0.0,0.0,0.0,0.0,0.0,0.0,0.0,0.0,0.0,0.0,0.0,0.0,0.0,0.0,0.0,0.0,0.0,0.0,0.0,0.0,0.0,0.0,0.0,0.0,0.0,0.0,0.0,0.0,0.0,0.0,0.0,0.0,0.0,0.0,0.0,0.0,0.0,0.0,0.0,0.0,0.0,0.0,0.0,0.0,0.0,0.0,0.0,0.0,0.0,0.0,0.0,0.0,0.0,0.0,0.0,0.0,0.0,0.0,0.0,0.0,0.0,0.0,0.0,0.0,0.0,0.0,0.0,0.0,0.0,0.0,0.0,0.0,0.0,0.0,0.0,0.0,0.0,0.0,0.0,0.0,0.0,0.0,0.0,0.0,0.0,0.0,0.0,0.0,0.0,0.0,0.0,0.0,0.0,0.0,0.0,0.0,0.0,0.0,0.0,0.0,0.0,0.0,0.0,0.0,0.0,0.0,0.0,0.0,0.0,0.0,0.0,0.0,0.0,0.0,0.0,0.0,0.0,0.0,0.0,0.0,0.0,0.0,0.0,0.0,0.0,0.0,0.0,0.0,0.0,0.0,0.0,0.0,0.0,0.0,0.0,0.0,0.0,0.0,0.0,0.0,0.0,0.0,0.0,0.0,0.0,0.0,0.0,0.0,0.0,0.0,0.0,0.0,0.0,0.0,0.0,0.0,0.0,0.0,0.0,0.0,0.0,0.0,0.0,0.0,0.0,0.0,0.0,0.0,0.0,0.0,0.0,0.0,0.0,0.0,0.0,0.0,0.0,0.0,0.0,0.0,0.0,0.0,0.0,0.0,0.0,0.0,0.0,0.0,0.0,0.0,0.0,0.0,0.0,0.0,0.0,0.0,0.0,0.0,0.0,0.0,0.0,0.0,0.0,0.0,0.0,0.0,0.0,0.0,0.0,0.0,0.0,0.0,0.0,0.0,0.0,0.0,0.0,0.0,0.0,0.0,0.0,0.0,0.0,0.0,0.0,0.0,0.0,0.0,0.0,0.0,0.0,0.0,0.0,0.0,0.0,0.0,0.0,0.0,0.0,0.0,0.0,0.0,0.0,0.0,0.0,0.0,0.0,0.0,0.0,0.0,0.0,0.0,0.0,0.0,0.0,0.0,0.0,0.0,0.0,0.0,0.0,0.0,0.0,0.0,0.0,0.0,0.0,0.0,0.0,0.0,0.0,0.0,0.0,0.0,0.0,0.0,0.0,0.0,0.0,0.0,0.0,0.0,0.0,0.0,0.0,0.0,0.0,0.0,0.0,0.0,0.0,0.0,0.0,0.0,0.0,0.0,0.0,0.0,0.0,0.0,0.0,0.0,0.0,0.0,0.0,0.0,0.0,0.0,0.0,0.0,0.0,0.0,0.0,0.0,0.0,0.0,0.0,0.0,0.0,0.0,0.0,0.0,0.0,0.0,0.0,0.0,0.0,0.0,0.0,0.0,0.0,0.0,0.0,0.0,0.0,0.0,0.0,0.0,0.0,0.0,0.0,0.0,0.0,0.0,0.0,0.0,0.0,0.0,0.0,0.0,0.0,0.0,0.0,0.0,0.0,0.0,0.0,0.0,0.0,0.0,0.0,0.0,0.0,0.0,0.0,0.0,0.0,0.0,0.0,0.0,0.0,0.0,0.0,0.0,0.0,0.0,0.0,0.0,0.0,0.0,0.0,0.0,0.0,0.0,0.0,0.0,0.0,0.0,0.0,0.0,0.0,0.0,0.0,0.0,0.0,0.0,0.0,0.0,0.0,0.0,0.0,0.0,0.0,0.0,0.0,0.0,0.0,0.0,0.0,0.0,0.0,0.0,0.0,0.0,0.0,0.0,0.0,0.0,0.0,0.0,0.0,0.0,0.0,0.0,0.0,0.0,0.0,0.0,0.0,0.0,0.0,0.0,0.0,0.0,0.0,0.0,0.0,0.0,0.0,0.0,0.0,0.0,0.0,0.0,0.0,0.0,0.0,0.0,0.0,0.0,0.0,0.0,0.0,0.0,0.0,0.0,0.0,0.0,0.0,0.0,0.0,0.0,0.0,0.0,0.0,0.0,0.0,0.0,0.0,0.0,0.0,0.0,0.0,0.0,0.0,0.0,0.0,0.0,0.0,0.0,0.0,0.0,0.0,0.0,0.0,0.0,0.0,0.0,0.0,0.0,0.0,0.0,0.0,0.0,0.0,0.0,0.0,0.0,0.0,0.0,0.0,0.0,0.0,0.0,0.0,0.0,0.0,0.0,0.0,0.0,0.0,0.0,0.0,0.0,0.0,0.0,0.0,0.0,0.0,0.0,0.0,0.0,0.0,0.0,0.0,0.0,0.0,0.0,0.0,0.0,0.0,0.0,0.0,0.0,0.0,0.0,0.0,0.0,0.0,0.0,0.0,0.0,0.0,0.0,0.0,0.0,0.0,0.0,0.0,0.0,0.0,0.0,0.0,0.0,0.0,0.0,0.0,0.0,0.0,0.0,0.0,0.0,0.0,0.0,0.0,0.0,0.0,0.0,0.0,0.0,0.0,0.0,0.0,0.0,0.0,0.0,0.0,0.0,0.0,0.0,0.0,0.0,0.0,0.0,0.0,0.0,0.0,0.0,0.0,0.0,0.0,0.0,0.0,0.0,0.0,0.0,0.0,0.0,0.0,0.0,0.0,0.0,0.0,0.0,0.0,0.0,0.0,0.0,0.0,0.0,0.0,0.0,0.0,0.0,0.0,0.0,0.0,0.0,0.0,0.0,0.0,0.0,0.0,0.0,0.0,0.0,0.0,0.0,0.0,0.0,0.0,0.0,0.0,0.0,0.0,0.0,0.0,0.0,0.0,0.0,0.0,0.0,0.0,0.0,0.0,0.0,0.0,0.0,0.0,0.0,0.0,0.0,0.0,0.0,0.0,0.0,0.0,0.0,0.0,0.0,0.0,0.0,0.0,0.0,0.0,0.0,0.0,0.0,0.0,0.0,0.0,0.0,0.0,0.0,0.0,0.0,0.0,0.0,0.0,0.0,0.0,0.0,0.0,0.0,0.0,0.0,0.0,0.0,0.0,0.0,0.0,0.0,0.0,0.0,0.0,0.0,0.0,0.0,0.0,0.0,0.0,0.0,0.0,0.0,0.0,0.0,0.0,0.0,0.0,0.0,0.0,0.0,0.0,0.0,0.0,0.0,0.0,0.0,0.0,0.0,0.0,0.0,0.0,0.0,0.0,0.0,0.0,0.0,0.0,0.0,0.0,0.0,0.0,0.0,0.0,0.0,0.0,0.0,0.0,0.0,0.0,0.0,0.0,0.0,0.0,0.0,0.0,0.0,0.0,0.0,0.0,0.0,0.0,0.0,0.0,0.0,0.0,0.0,0.0,0.0,0.0,0.0,0.0,0.0,0.0,0.0,0.0,0.0,0.0,0.0,0.0,0.0,0.0,0.0,0.0,0.0,0.0,0.0,0.0,0.0,0.0,0.0,0.0,0.0,0.0,0.0,0.0,0.0,0.0,0.0,0.0,0.0,0.0,0.0,0.0,0.0,0.0,0.0,0.0,0.0,0.0,0.0,0.0,0.0,0.0,0.0,0.0,0.0,0.0,0.0,0.0,0.0,0.0,0.0,0.0,0.0,0.0,0.0,0.0,0.0,0.0,0.0,0.0,0.0,0.0,0.0,0.0,0.0,0.0,0.0,0.0,0.0,0.0,0.0,0.0,0.0,0.0,0.0,0.0,0.0,0.0,0.0,0.0,0.0,0.0,0.0,0.0,0.0,0.0,0.0,0.0,0.0,0.0,0.0,0.0,0.0,0.0,0.0,0.0,0.0,0.0,0.0,0.0,0.0,0.0,0.0,0.0,0.0,0.0,0.0,0.0,0.0,0.0,0.0,0.0,0.0,0.0,0.0,0.0,0.0,0.0,0.0,0.0,0.0,0.0,0.0,0.0,0.0,0.0,0.0,0.0,0.0,0.0,0.0,0.0,0.0,0.0,0.0,0.0,0.0,0.0,0.0,0.0,0.0,0.0,0.0,0.0,0.0,0.0,0.0,0.0,0.0,0.0,0.0,0.0,0.0,0.0,0.0,0.0,0.0,0.0,0.0,0.0,0.0,0.0,0.0,0.0,0.0,0.0,0.0,0.0,0.0,0.0,0.0,0.0,0.0,0.0,0.0,0.0,0.0,0.0,0.0,0.0,0.0,0.0,0.0,0.0,0.0,0.0,0.0,0.0,0.0,0.0,0.0,0.0,0.0,0.0,0.0,0.0,0.0,0.0,0.0,0.0,0.0,0.0,0.0,0.0,0.0,0.0,0.0,0.0,0.0,0.0,0.0,0.0,0.0,0.0,0.0,0.0,0.0,0.0,0.0,0.0,0.0,0.0,0.0,0.0,0.0,0.0,0.0,0.0,0.0,0.0,0.0,0.0,0.0,0.0,0.0,0.0,0.0,0.0,0.0,0.0,0.0,0.0,0.0,0.0,0.0,0.0,0.0,0.0,0.0,0.0,0.0,0.0,0.0,0.0,0.0,0.0,0.0,0.0,0.0,0.0,0.0,0.0,0.0,0.0,0.0,0.0,0.0,0.0,0.0,0.0,0.0,0.0,0.0,0.0,0.0,0.0,0.0,0.0,0.0,0.0,0.0,0.0,0.0,0.0,0.0,0.0,0.0,0.0,0.0,0.0,0.0,0.0,0.0,0.0,0.0,0.0,0.0,0.0,0.0,0.0,0.0,0.0,0.0,0.0,0.0,0.0,0.0,0.0,0.0,0.0,0.0,0.0,0.0,0.0,0.0,0.0,0.0,0.0,0.0,0.0,0.0,0.0,0.0,0.0,0.0,0.0,0.0,0.0,0.0,0.0,0.0,0.0,0.0,0.0,0.0,0.0,0.0,0.0,0.0,0.0,0.0,0.0,0.0,0.0,0.0,0.0,0.0,0.0,0.0,0.0,0.0,0.0,0.0,0.0,0.0,0.0,0.0,0.0,0.0,0.0,0.0,0.0,0.0,0.0,0.0,0.0,0.0,0.0,0.0,0.0,0.0,0.0,0.0,0.0,0.0,0.0,0.0,0.0,0.0,0.0,0.0,0.0,0.0,0.0,0.0,0.0,0.0,0.0,0.0,0.0,0.0,0.0,0.0,0.0,0.0,0.0,0.0,0.0,0.0,0.0,0.0,-1.6386,0.0,0.0,0.0,0.0,0.0,0.0,0.0,0.0,0.0,0.0,0.0,0.0,0.0,0.0,0.0,0.0,0.0,0.0,0.0,0.0,0.0,0.0,0.0,0.0,-0.6841,-0.6965,-0.7134,-0.715,-0.7174,-0.7206,0.0,0.0,0.0,0.0,0.0,-0.6993,-0.7243,-0.7645,-0.8212,-0.8725,-0.9789,-1.1309,-1.0898,-1.0019,-0.879,0.0,0.0,0.0,0.0,0.0,0.0,0.0,0.0,0.0,0.0,0.0,0.0,0.0,0.0,0.0,0.0,0.0,0.0,0.0,0.0,0.0,0.0,0.0,0.0,0.0,0.0,0.0,0.0,0.0,0.0,0.0,0.0,0.0,0.0,0.0,0.0,0.0,0.0,0.0,0.0,0.0,0.0,0.0,0.0,0.0,0.0,0.0,0.0,0.0,0.0,0.0,0.0,0.0,0.0,0.0,0.0,0.0,0.0,0.0,0.0,0.0,0.0,0.0,0.0,0.0,0.0,0.0,0.0,0.0,0.0,0.0,-1.828,0.0,0.0,0.0,0.0,0.0,0.0,0.0,0.0,0.0,0.0,0.0,0.0,0.0,0.0,0.0,0.0,0.0,0.0,0.0,0.0,0.0,-0.6863,-0.6971,-0.7119,-0.7364,-0.7739,-0.7542,-0.7418,-0.7477,-0.7373,0.0,0.0,0.0,-0.7361,-0.7278,-0.798,-0.8722,-0.9451,-1.0943,-1.2485,-1.4071,-1.4662,-1.3548,-1.1039,-1.0989,0.0,0.0,0.0,0.0,0.0,0.0,0.0,0.0,0.0,0.0,0.0,0.0,0.0,0.0,0.0,0.0,0.0,0.0,0.0,0.0,0.0,0.0,0.0,0.0,0.0,0.0,0.0,0.0,0.0,0.0,0.0,0.0,0.0,0.0,0.0,0.0,0.0,0.0,0.0,0.0,0.0,0.0,0.0,0.0,0.0,0.0,0.0,0.0,0.0,0.0,0.0,0.0,0.0,0.0,0.0,0.0,0.0,0.0,0.0,0.0,0.0,0.0,0.0,-2.4363,-2.4991,-2.5429,-2.5503,-2.5712,-2.5857,-2.3692,-2.2165,-2.1102,-1.9838,0.0,0.0,0.0,0.0,0.0,0.0,0.0,0.0,0.0,0.0,0.0,0.0,0.0,0.0,0.0,0.0,0.0,0.0,0.0,-0.7108,-0.7699,-0.7932,-0.8466,-0.9557,-0.9246,-0.8996,-0.9006,-0.8468,0.0,0.0,-0.7384,-0.7578,-0.7959,-0.8636,-0.9727,-1.1253,-1.3576,-1.5139,-1.5972,-1.6727,-1.6964,-1.6625,-1.4584,-1.3304,-1.2573,0.0,0.0,0.0,0.0,0.0,0.0,0.0,0.0,0.0,0.0,0.0,0.0,0.0,0.0,0.0,0.0,0.0,0.0,0.0,0.0,0.0,0.0,0.0,0.0,0.0,0.0,0.0,0.0,0.0,0.0,0.0,0.0,0.0,0.0,0.0,0.0,0.0,0.0,0.0,0.0,0.0,-1.2567,-1.4371,0.0,0.0,0.0,0.0,0.0,0.0,0.0,0.0,0.0,0.0,0.0,0.0,0.0,-2.2717,-2.3875,-2.5739,-2.6703,-2.6804,-2.8295,-2.9043,-2.9098,-2.8993,-2.8975,-2.9015,-2.8647,0.0,-2.4303,-2.3013,0.0,0.0,0.0,0.0,0.0,0.0,0.0,0.0,0.0,0.0,0.0,0.0,0.0,0.0,0.0,0.0,0.0,0.0,0.0,0.0,0.0,-0.8965,-0.9727,-1.1017,-1.0936,-1.0672,-1.0334,-1.0028,-0.9461,-0.8508,-0.8465,-0.8669,-0.9097,-1.028,-1.2313,-1.5211,-1.6618,-1.7813,-1.8787,-1.9135,-1.9317,-1.9266,-1.821,-1.6661,-1.4708,-1.3061,0.0,0.0,0.0,0.0,0.0,0.0,0.0,0.0,0.0,0.0,0.0,0.0,0.0,0.0,0.0,0.0,0.0,0.0,0.0,0.0,0.0,0.0,0.0,0.0,0.0,0.0,0.0,0.0,0.0,0.0,0.0,0.0,0.0,0.0,0.0,0.0,0.0,0.0,0.0,-1.2665,-1.4833,-1.5658,-1.6181,-1.6213,0.0,0.0,0.0,0.0,0.0,0.0,0.0,0.0,0.0,-2.4236,-2.5303,-2.6263,-2.7125,-2.8684,-2.9397,-2.9277,-3.0441,-3.0931,-3.0867,-3.0899,-3.0867,-3.0771,-3.0771,-2.9978,-2.8464,-2.6132,-2.4517,-2.3364,0.0,0.0,0.0,0.0,-2.1931,-2.1861,0.0,0.0,0.0,0.0,0.0,0.0,0.0,0.0,0.0,0.0,0.0,0.0,-0.9253,-1.0045,-1.1117,-1.2589,-1.2574,-1.2293,-1.1856,-1.1378,-1.063,-0.958,-0.9382,-0.9593,-1.0184,-1.2343,-1.5015,-1.819,-1.8983,-1.9887,-2.0941,-2.0941,-2.0962,-2.0996,-2.0819,-1.9432,-1.7068,-1.5094,-1.3765,0.0,0.0,0.0,0.0,0.0,0.0,0.0,0.0,0.0,0.0,0.0,0.0,0.0,0.0,0.0,0.0,0.0,0.0,0.0,0.0,0.0,0.0,0.0,0.0,0.0,0.0,0.0,0.0,0.0,0.0,0.0,0.0,0.0,0.0,0.0,0.0,0.0,0.0,-1.4892,-1.6837,-1.7171,-1.8375,-1.8651,0.0,0.0,0.0,0.0,0.0,0.0,-2.3837,-2.4576,-2.5714,-2.7455,-2.8469,-2.924,-2.9761,-3.0951,-3.1429,-3.1203,-3.1891,-3.2203,-3.2122,-3.2222,-3.2188,-3.2088,-3.2088,-3.2035,-3.1738,-2.8914,-2.7397,-2.6736,-2.5696,-2.5175,-2.5119,-2.5724,-2.5667,-2.5499,0.0,0.0,0.0,0.0,0.0,0.0,0.0,0.0,0.0,0.0,0.0,-0.8645,-0.9819,-1.1126,-1.2645,-1.4499,-1.4134,-1.3797,0.0,-1.2095,-1.0815,-1.0179,-0.9598,-0.9852,-1.1015,-1.4676,-1.7281,-1.8765,-2.0,-2.0927,-2.1561,-2.1561,-2.1831,-2.228,-2.1705,-2.0987,-2.007,-1.817,-1.6906,-1.5962,0.0,0.0,0.0,0.0,0.0,0.0,0.0,0.0,0.0,0.0,0.0,0.0,0.0,0.0,0.0,0.0,0.0,0.0,0.0,0.0,0.0,0.0,0.0,0.0,0.0,0.0,0.0,0.0,0.0,0.0,0.0,0.0,0.0,0.0,0.0,0.0,0.0,0.0,0.0,-1.9769,-2.1032,0.0,0.0,0.0,0.0,-2.2485,-2.492,-2.6522,-2.6762,-2.8254,-2.9453,-3.0281,-3.0837,-3.1274,-3.1565,-3.2383,-3.2711,-3.2509,-3.2987,-3.3227,-3.3227,-3.3227,-3.3227,-3.3227,-3.3227,-3.3227,-3.3073,-3.1101,-2.9968,-2.9364,-2.8717,-2.8129,-2.7693,-2.8282,-2.8478,-2.8549,0.0,0.0,0.0,-0.6093,-0.6227,-0.6381,-0.6547,-0.6774,-0.6952,-0.705,-0.848,-0.9947,-1.1166,-1.2786,-1.4569,-1.6438,-1.6045,-1.571,-1.571,-1.3938,-1.2981,-1.315,-1.2221,-1.2839,-1.5297,-1.7029,-1.8742,-2.0479,-2.0875,-2.1391,-2.1999,-2.1999,-2.2089,-2.2263,-2.2066,-2.1795,-2.1448,-1.955,-1.8142,-1.7082,-1.5859,-1.4089,0.0,0.0,0.0,0.0,0.0,0.0,0.0,0.0,0.0,0.0,0.0,0.0,0.0,0.0,0.0,0.0,0.0,0.0,0.0,0.0,0.0,0.0,0.0,0.0,0.0,0.0,0.0,0.0,0.0,0.0,0.0,0.0,0.0,0.0,0.0,0.0,0.0,-2.2381,-2.3659,0.0,-2.3215,-2.4515,-2.5499,-2.5698,-2.7321,-2.8655,-2.9519,-3.0307,-3.1094,-3.1815,-3.2454,-3.278,-3.272,-3.3152,-3.3265,-3.3058,-3.3213,-3.329,-3.329,-3.329,-3.329,-3.329,-3.329,-3.329,-3.3234,-3.2561,-3.1963,-3.1345,-3.0726,-3.0361,-3.0224,-3.0417,-3.0488,-3.053,-0.5998,-0.5998,0.0,-0.6093,-0.6284,-0.6464,-0.6547,-0.6816,-0.7106,-0.7399,-0.901,-1.07,-1.2167,-1.3993,-1.5792,-1.745,-1.7042,-1.6708,-1.6708,-1.5131,-1.4288,-1.4485,-1.4121,-1.5079,-1.7612,-1.8655,-1.9873,-2.1383,-2.1513,-2.1814,-2.2208,-2.2419,-2.2503,-2.2517,-2.2742,-2.2714,-2.2409,-2.1187,-1.995,-1.8762,-1.7717,-1.6312,-1.4725,0.0,0.0,0.0,0.0,0.0,0.0,0.0,0.0,0.0,0.0,0.0,0.0,0.0,0.0,0.0,0.0,0.0,0.0,0.0,0.0,0.0,0.0,0.0,0.0,0.0,0.0,0.0,0.0,0.0,0.0,0.0,0.0,0.0,0.0,0.0,-2.3418,-2.4631,-2.6144,-2.6796,-2.6081,-2.7436,-2.8409,-2.8511,-2.9727,-3.0782,-3.1446,-3.1933,-3.2388,-3.2803,-3.3344,-3.3501,-3.329,-3.3501,-3.3501,-3.329,-3.329,-3.329,-3.329,-3.329,-3.329,-3.329,-3.329,-3.329,-3.329,-3.329,-3.3073,-3.2665,-3.2258,-3.2117,-3.2117,-3.2117,-3.2117,-3.2117,-0.5998,-0.5998,-0.6054,-0.6263,-0.6299,-0.6396,-0.6668,-0.6757,-0.7118,-0.7987,-0.9226,-1.0801,-1.2813,-1.464,-1.6238,-1.7492,-1.7042,-1.6708,-1.6708,-1.5483,-1.4527,-1.398,-1.5144,-1.6393,-1.766,-1.9487,-2.0709,-2.1344,-2.1912,-2.2208,-2.225,-2.2817,-2.3112,-2.3154,-2.3811,-2.3741,-2.3126,-2.3126,-2.2447,-2.1181,-1.9332,-1.8554,-1.8231,0.0,0.0,0.0,0.0,0.0,0.0,0.0,0.0,0.0,0.0,0.0,0.0,0.0,0.0,0.0,0.0,0.0,0.0,0.0,0.0,0.0,0.0,0.0,0.0,0.0,0.0,0.0,0.0,0.0,0.0,0.0,0.0,0.0,-2.1843,-2.3672,-2.5452,-2.6486,-2.8424,-2.9377,-2.8598,-3.036,-3.1334,-3.0811,-3.2272,-3.2987,-3.2475,-3.3176,-3.3501,-3.3326,-3.3501,-3.3515,-3.3319,-3.3529,-3.3543,-3.3382,-3.3333,-3.3319,-3.3319,-3.329,-3.329,-3.329,-3.329,-3.329,-3.329,-3.329,-3.329,-3.329,-3.329,-3.329,-3.329,-3.329,-3.329,-3.329,-0.5998,-0.5998,-0.6054,-0.6263,-0.6388,-0.6507,-0.6676,-0.6883,-0.7278,-0.8005,-0.9668,-1.1524,-1.3446,-1.53,-1.6733,-1.7534,-1.7042,-1.6708,-1.6708,-1.5105,-1.4457,-1.5158,-1.7249,-1.8779,-1.9613,-2.0576,-2.135,-2.1954,-2.2123,-2.2433,-2.2859,-2.3013,-2.3375,-2.3825,-2.4008,-2.3994,-2.3825,-2.3825,-2.3361,-2.2465,-2.1097,-1.9712,-1.8372,0.0,0.0,0.0,0.0,0.0,0.0,0.0,0.0,0.0,0.0,0.0,0.0,0.0,0.0,0.0,0.0,0.0,0.0,0.0,0.0,0.0,0.0,0.0,0.0,0.0,0.0,0.0,0.0,0.0,0.0,0.0,0.0,-2.5264,-2.4614,-2.6717,-2.851,-2.9042,-3.0646,-3.1486,-3.0985,-3.2019,-3.2561,-3.2118,-3.2951,-3.337,-3.3073,-3.3262,-3.3361,-3.329,-3.3361,-3.3572,-3.395,-3.4022,-3.4247,-3.4683,-3.4197,-3.395,-3.3936,-3.3487,-3.329,-3.329,-3.329,-3.329,-3.329,-3.329,-3.329,-3.329,-3.329,-3.329,-3.329,-3.329,-3.329,-3.329,-0.5998,-0.5998,-0.6054,-0.6263,-0.6402,-0.6538,-0.6685,-0.6919,-0.7427,-0.8364,-1.0005,-1.1814,-1.3699,-1.5314,-1.6536,-1.7169,-1.6905,-1.6582,-1.6298,-1.5258,-1.5424,-1.7179,-1.8618,-1.9831,-2.0773,-2.1364,-2.1969,-2.2587,-2.2587,-2.2911,-2.353,-2.3772,-2.4106,-2.4486,-2.4739,-2.4711,-2.4472,-2.4472,-2.4106,-2.3407,-2.2209,-2.1063,-1.9964,-1.9107,-1.8321,-1.7543,-1.6659,-1.5806,-1.5035,-1.4752,0.0,0.0,0.0,0.0,0.0,0.0,0.0,0.0,0.0,0.0,0.0,0.0,0.0,0.0,0.0,0.0,0.0,0.0,0.0,0.0,0.0,0.0,0.0,0.0,-2.5944,-2.7876,-2.7867,-2.929,-3.0528,-3.1133,-3.2069,-3.2647,-3.262,-3.3144,-3.3325,-3.2936,-3.3323,-3.3501,-3.3326,-3.329,-3.3403,-3.3655,-3.3669,-3.3964,-3.4618,-3.4618,-3.4801,-3.5189,-3.4787,-3.4618,-3.4604,-3.4253,-3.3944,-3.3669,-3.3669,-3.3515,-3.329,-3.329,-3.329,0.0,0.0,0.0,0.0,0.0,-3.329,-3.329,-0.5998,-0.5998,-0.6063,-0.629,-0.642,-0.6547,-0.6698,-0.6927,-0.754,-0.8808,-1.015,-1.1691,-1.3558,-1.4791,-1.5744,-1.6424,-1.6536,-1.6351,-1.5845,-1.5887,-1.6926,-1.9214,-1.9452,-2.0077,-2.1265,-2.1884,-2.2475,-2.2999,-2.3069,-2.3445,-2.4092,-2.4725,-2.5049,-2.5133,-2.5655,-2.5584,-2.5105,-2.5105,-2.4753,-2.4084,-2.2956,-2.2358,-2.2058,-2.0868,-2.0413,-2.0245,-1.9115,-1.7983,-1.6902,-1.6322,0.0,0.0,0.0,0.0,0.0,0.0,0.0,0.0,0.0,0.0,0.0,0.0,0.0,0.0,0.0,0.0,0.0,0.0,0.0,0.0,0.0,0.0,0.0,0.0,-2.8511,-3.0033,-3.1065,-3.1421,-3.1833,-3.259,-3.2862,-3.3152,-3.3514,-3.3744,-3.3709,-3.3326,-3.3536,-3.3599,-3.3424,0.0,0.0,0.0,0.0,-3.4632,-3.5287,-3.5287,-3.533,-3.54,-3.533,-3.5287,-3.5287,-3.5217,-3.4894,-3.4301,-3.4301,-3.395,-3.3389,-3.3389,-3.3347,-3.329,-3.329,-3.329,-3.329,-3.329,-3.329,-3.329,-0.5998,-0.5998,-0.6099,-0.6411,-0.6481,-0.6582,-0.6824,-0.6944,-0.7454,-0.8668,-0.9637,-1.0928,-1.2803,-1.3664,-1.4378,-1.5087,-1.5524,-1.5954,0.0,0.0,-1.7656,-1.8624,-1.9649,-2.054,-2.1279,-2.1884,-2.2264,-2.2376,-2.2859,-2.3445,-2.4092,-2.4725,-2.5274,-2.5725,-2.5837,-2.5837,-2.5725,-2.5725,-2.5386,-2.4757,-2.3971,-2.3075,-2.2077,-2.0914,-2.0454,-2.0372,-2.0119,-1.9522,-1.8863,-1.8736,-1.7964,-1.6944,-1.6357,0.0,0.0,0.0,0.0,0.0,0.0,0.0,0.0,0.0,0.0,0.0,0.0,0.0,0.0,0.0,0.0,0.0,0.0,0.0,0.0,-2.7893,-2.9959,-3.1664,-3.2439,-3.291,-3.2968,-3.2509,-3.3192,-3.3602,-3.3382,-3.3536,-3.357,-3.3326,-3.3775,-3.4056,-3.402,-3.4534,-3.4894,-3.5006,-3.502,-3.5302,-3.592,-3.5934,-3.6174,-3.6666,0.0,0.0,-3.592,-3.5414,-3.5119,-3.502,-3.502,-3.4618,-3.4034,-3.4034,-3.374,-3.329,-3.329,-3.329,-3.329,-3.329,-3.329,-3.329,-0.5988,-0.5998,-0.6108,-0.6434,-0.6507,-0.659,-0.6866,-0.6952,-0.7321,-0.8234,-0.9288,-1.0423,-1.1658,-1.2334,-1.2968,-1.3634,-1.4521,0.0,0.0,-1.7253,-1.8152,-1.9402,-2.0063,-2.0807,-2.1729,-2.2053,-2.2517,-2.315,-2.3445,-2.4078,-2.5021,-2.5316,-2.5598,-2.5893,-2.5893,-2.5893,-2.5893,-2.5893,-2.5725,-2.5348,-2.4109,-2.3416,-2.3031,-2.1824,-2.1152,-2.0896,-2.0859,-2.0442,-1.9845,-1.9522,-1.8807,-1.8012,-1.7702,-1.715,-1.648,0.0,0.0,0.0,0.0,0.0,0.0,0.0,0.0,0.0,0.0,0.0,0.0,0.0,0.0,-2.4504,0.0,0.0,-2.9245,-3.0446,-3.1547,-3.2501,-3.3175,-3.3372,-3.3318,-3.2904,-3.3282,-3.3536,-3.3326,-3.3396,-3.3522,-3.3726,-3.4034,-3.4343,-3.4674,-3.502,-3.533,-3.5639,-3.5653,-3.5949,-3.6553,-3.6567,-3.6722,-3.6978,-3.6708,-3.6567,-3.6553,-3.6244,-3.5949,-3.5653,-3.5653,-3.5302,-3.4674,-3.4329,-3.3838,-3.329,-3.329,-3.329,-3.329,-3.329,-3.329,-3.329,-0.5973,-0.5988,-0.6099,-0.6411,-0.6481,-0.6582,-0.6824,-0.6919,-0.7189,-0.7783,-0.8819,-0.9734,-1.0321,-1.0823,-1.1475,-1.2348,0.0,0.0,0.0,-1.7365,-1.8559,-2.033,-2.04,-2.0948,-2.218,-2.2208,-2.2756,-2.3909,-2.4022,-2.4655,-2.5725,-2.5837,-2.5893,-2.5893,-2.5893,-2.5893,-2.5893,-2.5893,-2.5893,-2.5755,-2.4051,-2.3582,-2.3831,-2.2637,-2.1939,-2.1534,-2.1368,-2.0914,-2.0302,-1.9635,-1.9003,-1.8498,-1.8498,-1.8161,-1.766,-1.7042,-1.6564,0.0,0.0,0.0,0.0,0.0,0.0,0.0,0.0,0.0,-2.2195,-2.3473,-2.5728,-2.768,-2.8364,-2.9708,-3.122,-3.2635,-3.2775,-3.2942,-3.3534,-3.3431,-3.329,-3.329,-3.329,-3.329,-3.329,-3.329,-3.3543,-3.4147,-3.4315,-3.4688,-3.5344,-3.5484,-3.5766,-3.6272,-3.6286,-3.6525,-3.6978,-3.6978,-3.6978,-3.6978,-3.6978,-3.6978,-3.6978,-3.6978,-3.675,-3.6286,-3.6159,-3.5822,-3.5302,-3.4534,-3.3908,-3.3445,-3.3333,-3.329,-3.329,-3.329,-3.329,-3.329,-0.5909,-0.5964,-0.6063,-0.629,-0.642,-0.6547,-0.6698,-0.6833,-0.7104,-0.7645,-0.7951,-0.8305,-0.8788,-0.9018,-0.9848,-1.1651,0.0,0.0,-1.6607,-1.7773,-1.8989,-2.0344,-2.04,-2.0948,-2.218,-2.2208,-2.2545,-2.321,-2.3811,-2.443,-2.5119,-2.564,-2.5893,-2.5893,-2.5893,-2.5893,-2.5893,-2.5893,-2.5893,-2.5783,-2.4464,-2.3689,-2.3315,-2.251,-2.2161,-2.2053,-2.1482,-2.0914,-2.0302,-1.9635,-1.9003,-1.8498,-1.8498,-1.8442,-1.8273,-1.7688,0.0,-1.7398,-1.7327,-1.8233,-1.9438,-2.0564,-2.1328,-2.2795,0.0,0.0,-2.6778,-2.8438,-2.9711,-3.0444,-3.0256,-3.1382,-3.2434,-3.2676,-3.3,-3.3311,-3.3556,-3.3431,-3.329,-3.329,-3.329,-3.329,-3.329,-3.329,-3.3543,-3.4147,-3.4745,-3.5358,-3.5977,-3.6525,-3.681,-3.688,-3.688,-3.6908,-3.6978,-3.6978,-3.6978,-3.6978,-3.6978,-3.6978,-3.6978,-3.6978,-3.695,-3.6852,-3.6342,-3.6061,-3.592,-3.4716,-3.4161,-3.4048,-3.3501,-3.329,-3.329,-3.329,-3.329,-3.329,-0.5881,-0.5954,-0.6027,-0.6111,-0.6269,-0.6455,-0.6676,-0.6748,-0.6872,-0.7087,-0.7432,-0.7711,-0.7831,-0.8275,-0.893,-0.9811,-1.2021,-1.3957,-1.5379,-1.6926,-1.84,-1.9761,-2.0203,-2.0793,-2.1659,-2.2025,-2.2503,-2.3097,-2.3389,-2.3688,-2.4017,-2.4557,-2.4846,-2.4914,-2.5232,-2.5397,-2.5386,-2.5386,-2.5175,-2.4771,-2.3848,-2.3357,-2.3059,-2.2056,-2.1688,-2.1631,-2.1378,-2.0653,0.0,0.0,-1.9003,-1.8498,-1.8498,-1.8498,-1.8442,-1.8189,-1.8683,0.0,-2.0706,0.0,0.0,0.0,-2.4575,-2.6003,-2.785,-2.846,-2.8926,-2.9929,-3.1183,-3.1994,-3.1678,-3.2464,-3.316,0.0,-3.3192,-3.3326,-3.3396,-3.3361,-3.329,-3.329,-3.329,-3.329,-3.329,-3.329,-3.3719,-3.4702,-3.5048,-3.5625,-3.6581,-3.6838,-3.6978,-3.6978,-3.6978,-3.6978,-3.6978,-3.6978,-3.6978,-3.6978,-3.6978,-3.6978,-3.6978,-3.6978,-3.6978,-3.6978,-3.675,-3.6427,-3.6047,-3.5138,-3.4562,-3.4147,-3.3529,-3.329,-3.329,-3.329,-3.329,-3.329,-0.5826,-0.5918,-0.5982,-0.5988,-0.612,-0.6305,-0.6547,-0.6625,-0.6651,-0.6651,-0.6973,-0.7187,-0.7087,-0.7528,-0.8035,-0.8557,-1.0738,-1.2723,-1.418,-1.6162,-1.7815,-1.902,-1.974,-2.0484,-2.1288,-2.1729,-2.2334,-2.3097,-2.3097,-2.3159,-2.3305,-2.3794,-2.3999,-2.3986,-2.4491,-2.4734,-2.4753,-2.4753,-2.45,-2.4039,-2.3385,-2.2995,-2.2726,-2.1551,-2.0873,-2.0534,-2.0534,-1.9936,0.0,0.0,-1.8484,-1.8245,-1.8245,-1.8372,-1.8568,-1.8919,-2.0063,-2.1504,-2.2795,0.0,0.0,-2.5799,-2.7258,-2.8663,-2.9031,-2.984,-3.0658,-3.1162,-3.2079,-3.269,-3.2432,-3.2881,0.0,-3.3073,-3.3178,-3.329,-3.329,-3.329,-3.329,-3.329,-3.329,-3.329,-3.329,-3.329,-3.3831,-3.5091,-3.5189,-3.5723,-3.6922,-3.6978,-3.6978,-3.6978,-3.6978,-3.6978,-3.6978,-3.6978,-3.6978,-3.6978,-3.6978,-3.6978,-3.6978,-3.6978,-3.6978,-3.6978,-3.6978,-3.6764,-3.63,-3.5513,-3.4922,-3.4421,-3.3621,-3.329,-3.329,-3.329,-3.329,-3.329,-0.5695,-0.5817,-0.5918,-0.5979,-0.5998,-0.6084,-0.6281,-0.642,-0.6507,-0.6507,-0.652,-0.6532,-0.6532,-0.6433,-0.6966,-0.8471,-1.0292,-1.1936,-1.334,-1.5861,-1.7583,-1.8206,-1.8986,-2.0035,-2.1265,-2.133,-2.1912,-2.3097,-2.3097,-2.3159,-2.3317,-2.3863,-2.3812,-2.3345,-2.3891,-2.4134,-2.412,-2.412,-2.4106,-2.4036,-2.3378,-2.276,-2.2119,-2.1024,-1.9769,-1.8582,-1.8582,0.0,0.0,0.0,-1.7155,-1.7632,-1.7632,-1.804,0.0,-1.9978,-2.1608,0.0,0.0,0.0,-2.6905,-2.7726,-2.9177,-3.0787,-3.215,-3.2374,-3.2497,-3.3066,-3.2792,-3.2412,-3.2412,-3.2426,-3.2426,-3.244,-3.2932,-3.329,-3.329,-3.329,-3.329,-3.329,-3.329,-3.329,0.0,-3.329,-3.3831,-3.5091,-3.5189,-3.5723,-3.6922,-3.6978,-3.6978,-3.6978,-3.6978,-3.6978,-3.6978,-3.6978,-3.6978,-3.6978,-3.6978,-3.6978,-3.6978,-3.6978,-3.6978,-3.6978,-3.6978,-3.6978,-3.6866,-3.5695,-3.5175,-3.5048,-3.3789,-3.329,-3.329,-3.329,-3.329,-3.329,-0.5631,-0.5771,-0.59,-0.5927,-0.5973,-0.6027,-0.6093,-0.626,-0.637,-0.637,-0.6257,0.0,0.0,0.0,0.0,0.0,-0.9049,-1.0508,-1.1729,-1.4305,-1.6019,-1.6588,-1.8267,-1.9398,-1.9822,-2.0405,-2.0892,-2.1299,-2.1299,-2.1148,-2.0853,-2.1353,-2.1361,-2.1008,-2.1557,-2.159,-2.131,-2.131,-2.1299,-2.1199,-2.0617,-2.0472,-2.0503,-1.9714,-1.8829,-1.7966,0.0,0.0,0.0,-1.6849,-1.7098,-1.7604,-1.7604,0.0,0.0,-2.052,0.0,0.0,0.0,0.0,-2.8468,-3.006,-3.1124,-3.1991,-3.2889,-3.3037,-3.296,-3.275,-3.2216,-3.1668,-3.1232,-3.1129,-3.1269,-3.1724,-3.2314,-3.2848,-3.322,-3.329,-3.329,-3.329,-3.329,0.0,0.0,0.0,0.0,-3.4478,-3.4964,-3.5541,-3.637,-3.6768,-3.6978,-3.6978,-3.6978,-3.6978,-3.6978,-3.6978,-3.6978,-3.6978,-3.6978,-3.6978,-3.6978,-3.6978,-3.6978,-3.6978,-3.6978,-3.6978,-3.6894,-3.5695,-3.5189,-3.5062,-3.3803,-3.329,-3.329,-3.329,-3.329,-3.329,-0.5605,-0.5725,-0.5845,-0.5891,-0.5954,0.0,0.0,0.0,0.0,0.0,0.0,0.0,0.0,0.0,0.0,0.0,0.0,-0.954,-1.0611,-1.2852,-1.4417,-1.5021,-1.6418,-1.7487,-1.8045,-1.8474,-1.8969,-1.9586,-1.9594,-1.9429,-1.9116,-1.9588,-1.9634,-1.9247,-1.9791,-1.9858,-1.9595,-1.9748,-1.9714,-1.9465,-1.9114,-1.8945,-1.8805,-1.8023,-1.7364,0.0,0.0,0.0,0.0,-1.6017,0.0,0.0,0.0,0.0,0.0,0.0,0.0,-2.412,0.0,-2.8454,-2.9774,-3.1505,-3.234,-3.2778,-3.296,-3.3002,-3.2693,-3.1626,-3.0923,-3.0291,-2.9659,-2.935,-2.9617,-3.0937,-3.1471,-3.2103,-3.3136,-3.329,-3.329,-3.329,-3.3473,0.0,0.0,0.0,0.0,-3.4175,-3.5012,-3.5695,-3.6089,-3.6694,-3.6978,-3.6978,-3.6978,-3.6978,-3.6978,-3.6978,-3.6978,-3.6978,-3.6978,-3.6978,-3.6978,-3.6978,-3.6978,-3.6978,-3.6978,-3.6978,-3.6894,-3.5695,-3.5189,-3.5062,-3.3803,-3.3122,-3.286,-3.286,-3.2704,-3.2525,-0.5586,-0.5659,-0.5741,0.0,0.0,0.0,0.0,0.0,0.0,0.0,0.0,0.0,0.0,0.0,0.0,0.0,0.0,0.0,-0.9881,-1.1556,0.0,-1.3496,-1.3696,-1.4507,-1.6061,-1.5727,-1.6336,-1.7961,-1.8029,-1.8065,-1.8071,-1.8578,-1.8533,-1.8061,-1.8555,-1.8796,-1.8796,-1.9235,-1.9182,-1.8783,-1.869,-1.8083,-1.7083,-1.6132,0.0,0.0,0.0,0.0,0.0,0.0,0.0,0.0,0.0,0.0,0.0,0.0,0.0,-2.6399,-2.8282,-2.9687,-3.0876,-3.2145,-3.2862,-3.308,-3.2539,-3.2328,-3.1738,-2.9897,-2.897,-2.831,0.0,0.0,-2.7551,-2.9964,-3.0455,-3.1185,-3.3024,-3.3319,-3.3333,0.0,0.0,0.0,0.0,0.0,0.0,-3.4245,0.0,-3.6075,-3.6103,-3.6694,-3.6978,-3.6978,-3.6978,-3.6978,-3.6978,-3.6978,-3.6978,-3.6978,-3.6978,-3.6978,-3.6978,-3.6978,-3.6978,-3.6978,-3.6978,-3.6978,-3.6894,-3.5695,-3.5189,-3.5026,-3.3732,-3.2739,-3.2051,-3.2051,-3.1599,-3.1193,0.0,0.0,0.0,0.0,0.0,0.0,0.0,0.0,0.0,0.0,0.0,0.0,0.0,0.0,0.0,0.0,0.0,0.0,0.0,0.0,0.0,0.0,0.0,-1.3934,-1.4697,-1.4854,0.0,0.0,0.0,-1.6173,-1.6251,-1.6297,-1.6099,-1.5749,-1.5891,-1.5782,-1.55,-1.5624,-1.5819,-1.5994,0.0,-1.552,-1.5595,0.0,0.0,0.0,0.0,0.0,0.0,0.0,0.0,0.0,0.0,0.0,-2.3168,0.0,0.0,-2.7706,-2.9546,-3.0965,-3.2117,-3.289,-3.2862,-3.2595,-3.244,-3.1331,-2.9926,-2.8535,-2.7032,-2.5625,-2.4488,0.0,0.0,-2.8226,-3.0038,0.0,-3.3094,-3.3683,0.0,0.0,0.0,-3.4964,-3.4964,-3.5335,0.0,0.0,-3.5245,-3.5625,-3.6089,-3.6694,-3.6978,-3.6978,-3.6978,-3.6978,-3.6978,-3.6978,-3.6978,-3.6978,-3.6978,-3.6978,-3.6978,-3.6978,-3.6978,-3.6978,-3.6978,-3.6978,-3.6894,-3.5695,-3.4841,-3.4163,-3.2905,-3.1905,-3.123,-3.123,-3.1452,-3.1856,0.0,0.0,0.0,0.0,0.0,0.0,0.0,0.0,0.0,0.0,0.0,0.0,0.0,0.0,0.0,0.0,0.0,0.0,0.0,0.0,0.0,0.0,0.0,-1.1889,-1.2601,-1.283,-1.3195,0.0,0.0,0.0,0.0,-1.4203,-1.4093,-1.3939,-1.3939,-1.3944,-1.3959,-1.4139,0.0,0.0,0.0,0.0,0.0,0.0,0.0,0.0,0.0,0.0,0.0,0.0,0.0,-2.0569,-2.2447,-2.3642,-2.4699,-2.6568,0.0,-2.8984,-3.0839,-3.2061,-3.289,-3.3206,-3.2862,-3.2117,-3.1021,-2.9757,-2.8141,-2.5836,-2.45,0.0,0.0,0.0,0.0,0.0,0.0,0.0,-3.2665,-3.3641,-3.4203,0.0,-3.5026,0.0,-3.5583,-3.5906,-3.6075,0.0,-3.5991,-3.6019,-3.6103,-3.6694,-3.6978,-3.6978,-3.6978,-3.6978,-3.6978,-3.6978,-3.6978,-3.6978,-3.6978,-3.6978,-3.6978,-3.6978,-3.6978,-3.6978,0.0,-3.6978,-3.6894,-3.5695,-3.4915,-3.4351,-3.2745,-3.1599,-3.0857,-3.0519,-3.0456,-3.0557,0.0,0.0,0.0,0.0,0.0,0.0,0.0,0.0,0.0,0.0,0.0,0.0,0.0,0.0,0.0,0.0,0.0,0.0,0.0,0.0,0.0,0.0,0.0,-0.9474,-1.047,0.0,0.0,0.0,0.0,0.0,0.0,0.0,0.0,0.0,0.0,0.0,0.0,0.0,0.0,0.0,0.0,0.0,0.0,0.0,0.0,0.0,0.0,0.0,0.0,0.0,-2.097,-2.2006,-2.3867,-2.5222,-2.6512,-2.8477,-2.9372,-3.0107,-3.1898,-3.28,-3.3262,-3.3073,-3.2527,-3.1413,-2.9125,-2.7844,-2.6204,-2.2774,0.0,0.0,-2.104,0.0,-2.3066,-2.6076,0.0,-2.956,-3.2061,-3.3431,-3.4231,-3.4315,-3.5377,-3.6131,-3.6216,-3.623,-3.6455,-3.695,-3.6978,-3.6754,-3.6258,-3.6736,-3.6978,-3.6978,-3.6978,-3.6978,-3.6978,-3.6978,-3.6978,-3.6978,-3.6978,-3.6978,-3.6978,-3.6978,-3.6978,-3.6978,-3.6978,0.0,-3.6768,-3.5653,-3.5096,-3.4715,-3.2828,-3.1563,-3.067,-3.0075,-2.9367,-2.8776,0.0,0.0,0.0,0.0,0.0,0.0,0.0,0.0,0.0,0.0,0.0,0.0,0.0,0.0,0.0,0.0,0.0,0.0,0.0,0.0,0.0,0.0,0.0,0.0,0.0,0.0,0.0,0.0,0.0,0.0,0.0,0.0,0.0,0.0,0.0,0.0,0.0,0.0,0.0,0.0,0.0,0.0,0.0,0.0,0.0,0.0,0.0,0.0,0.0,0.0,-2.1842,-2.3923,-2.5753,-2.6768,-2.7804,-3.0285,-3.0674,-3.0535,-3.1799,-3.2692,-3.301,-3.185,-3.0808,-2.9725,-2.8276,-2.5841,0.0,0.0,0.0,-1.9705,-1.9107,-2.0351,0.0,-2.4894,0.0,0.0,0.0,0.0,-3.4421,0.0,0.0,0.0,0.0,0.0,0.0,0.0,0.0,-3.6936,-3.6838,-3.6922,-3.6978,-3.6978,-3.6978,-3.6978,-3.6978,-3.6978,-3.6978,-3.6978,-3.6978,-3.6978,-3.6978,-3.6978,-3.6978,-3.6978,-3.6978,0.0,-3.6216,-3.5484,-3.4483,-3.3287,-3.2432,-3.118,-2.9961,-3.0481,-3.019,-2.9588,0.0,0.0,0.0,0.0,0.0,0.0,0.0,0.0,0.0,0.0,0.0,0.0,0.0,0.0,0.0,0.0,0.0,0.0,0.0,0.0,0.0,0.0,0.0,0.0,0.0,0.0,0.0,0.0,0.0,0.0,0.0,0.0,0.0,0.0,0.0,0.0,0.0,0.0,0.0,0.0,0.0,0.0,0.0,0.0,0.0,0.0,0.0,0.0,0.0,0.0,-2.1046,-2.3487,-2.564,-2.6956,-2.7994,-2.95,-2.9884,-3.0004,-3.0824,-3.1554,-3.1807,-3.0855,-2.9587,-2.8058,-2.619,0.0,0.0,0.0,0.0,-1.8372,-1.8077,0.0,0.0,0.0,0.0,0.0,0.0,0.0,0.0,0.0,0.0,0.0,0.0,0.0,0.0,0.0,0.0,-3.6978,-3.6978,-3.6978,-3.6978,-3.6978,-3.6978,-3.6978,-3.6978,-3.6978,-3.6978,-3.6978,-3.6978,-3.6978,-3.6978,-3.6978,-3.6978,-3.6964,-3.6694,0.0,-3.6033,-3.5068,-3.4025,-3.2901,-3.1864,-3.0745,-2.9704,-2.9665,-2.9406,-2.9145,0.0,0.0,0.0,0.0,0.0,0.0,0.0,0.0,-0.7027,-0.7669,-0.7991,-0.7853,-0.705,-0.6591,0.0,0.0,0.0,0.0,0.0,0.0,0.0,0.0,0.0,0.0,0.0,0.0,0.0,0.0,0.0,0.0,0.0,0.0,0.0,0.0,0.0,0.0,0.0,0.0,0.0,0.0,0.0,0.0,0.0,0.0,0.0,0.0,0.0,0.0,0.0,0.0,-1.9447,-2.1639,-2.3794,-2.5702,-2.7272,-2.7912,-2.8492,-2.9053,-2.9657,-3.0285,-3.0568,-2.9811,-2.8417,-2.6562,-2.411,-2.1758,0.0,0.0,0.0,-1.7604,-1.7604,0.0,0.0,0.0,0.0,0.0,0.0,0.0,0.0,0.0,0.0,0.0,0.0,0.0,0.0,0.0,0.0,0.0,-3.6978,-3.6978,-3.6978,-3.6978,-3.6822,-3.6822,-3.6978,-3.6612,-3.652,-3.673,-3.652,-3.6427,-3.6427,-3.6302,-3.6247,-3.6219,-3.5648,0.0,0.0,-3.409,-3.3248,-3.2428,-3.1327,-3.0405,-2.9626,-2.9172,-2.8816,-2.851,0.0,0.0,0.0,0.0,0.0,0.0,0.0,0.0,-0.7141,-0.8117,-0.7899,-0.7634,-0.7531,-0.7484,0.0,0.0,0.0,0.0,0.0,0.0,0.0,0.0,0.0,0.0,0.0,0.0,0.0,0.0,0.0,0.0,0.0,0.0,0.0,0.0,0.0,0.0,0.0,0.0,0.0,0.0,0.0,0.0,0.0,0.0,0.0,0.0,0.0,0.0,0.0,0.0,0.0,-1.8384,-1.9476,-2.2249,-2.5314,-2.6519,0.0,0.0,-2.8767,-2.9571,-2.9835,-2.8516,-2.7041,-2.5282,-2.297,0.0,0.0,0.0,-1.7296,-1.7604,-1.7604,-1.8194,0.0,0.0,0.0,0.0,0.0,0.0,0.0,0.0,0.0,0.0,0.0,0.0,0.0,0.0,0.0,0.0,-3.6978,-3.6978,-3.6978,-3.6978,-3.6243,-3.6203,-3.6978,-3.5386,-3.4979,-3.583,-3.4979,-3.4555,-3.4541,-3.4056,-3.3805,-3.3779,-3.3304,0.0,0.0,-3.2052,-3.1659,-3.1073,-3.0945,-3.0405,-2.9781,-3.0443,-2.9742,-2.8618,0.0,0.0,0.0,0.0,0.0,0.0,0.0,0.0,-0.7164,-0.8175,-0.8416,-0.8394,-0.8119,-0.8085,0.0,0.0,0.0,0.0,0.0,0.0,0.0,0.0,0.0,0.0,0.0,0.0,0.0,0.0,0.0,0.0,0.0,0.0,0.0,0.0,0.0,0.0,0.0,0.0,0.0,0.0,0.0,0.0,0.0,0.0,0.0,0.0,0.0,0.0,0.0,0.0,0.0,0.0,-1.6486,-1.8498,0.0,0.0,-2.4862,-2.591,-2.6542,-2.7446,-2.7965,-2.7091,-2.546,-2.3677,-2.2072,0.0,0.0,-1.6531,-1.6739,-1.7056,-1.7056,-1.7857,-1.8863,0.0,-2.0484,-2.1805,0.0,0.0,0.0,0.0,0.0,0.0,0.0,0.0,0.0,0.0,0.0,0.0,-3.5758,-3.6036,-3.6203,-3.6203,-3.5318,-3.502,-3.5386,-3.4678,-3.4342,-3.4365,-3.4,-3.3654,-3.338,-3.3184,-3.3079,-3.3053,-3.2463,0.0,0.0,-3.1416,-3.0839,-3.019,-3.019,-2.9704,-2.904,-2.9328,-2.9028,-2.855,0.0,0.0,0.0,0.0,0.0,0.0,-0.6719,-0.6799,-0.7107,-0.7979,-0.8416,-0.8532,-0.82,-0.8015,-0.7484,-0.6368,0.0,0.0,0.0,0.0,0.0,0.0,0.0,0.0,0.0,0.0,0.0,0.0,0.0,0.0,0.0,0.0,0.0,0.0,0.0,0.0,0.0,0.0,0.0,0.0,0.0,0.0,0.0,0.0,0.0,0.0,0.0,0.0,0.0,0.0,0.0,0.0,0.0,0.0,0.0,0.0,-2.2429,-2.403,-2.4487,-2.5408,-2.6093,-2.5733,-2.4061,-2.223,0.0,0.0,-1.6425,-1.6108,-1.6309,-1.6595,-1.6898,-1.7815,-1.8599,-1.8877,-1.9006,-2.0034,-2.2787,0.0,0.0,0.0,0.0,0.0,0.0,0.0,0.0,0.0,0.0,0.0,0.0,-3.4619,-3.4567,-3.4808,-3.3932,-3.3563,-3.385,-3.3315,-3.2985,-3.2872,-3.2641,-3.2327,-3.1996,-3.1829,-3.1752,-3.1714,-3.1098,0.0,0.0,-3.0356,-2.9858,-2.9328,-2.9328,-2.8988,-2.851,-2.851,-2.851,-2.851,0.0,0.0,0.0,0.0,0.0,0.0,0.0,0.0,-0.6992,-0.7531,-0.7611,-0.7611,-0.7611,-0.7129,-0.6829,-0.6878,0.0,0.0,0.0,0.0,0.0,0.0,0.0,0.0,0.0,0.0,0.0,0.0,0.0,0.0,0.0,0.0,0.0,0.0,0.0,0.0,0.0,0.0,0.0,0.0,0.0,0.0,0.0,0.0,0.0,0.0,0.0,0.0,0.0,0.0,0.0,0.0,0.0,0.0,0.0,0.0,-2.0137,-2.2418,-2.2892,-2.3761,-2.4508,-2.4508,-2.2967,-2.1139,0.0,-1.764,-1.5713,-1.6118,-1.6139,-1.6418,-1.7422,-1.8077,-1.8347,-1.7882,-1.9252,-2.1094,-2.3104,0.0,0.0,0.0,0.0,0.0,0.0,0.0,0.0,0.0,0.0,0.0,0.0,-3.283,-3.1888,-3.2804,-3.1928,-3.1888,-3.2817,-3.1017,-3.0575,-3.1389,-3.0533,-3.0128,-3.0103,-2.9586,-2.9345,0.0,0.0,0.0,0.0,-2.851,-2.851,-2.851,-2.851,-2.851,-2.851,-2.851,-2.851,-2.851,0.0,0.0,0.0,0.0,0.0,0.0,0.0,0.0,-0.6444,-0.6981,-0.706,-0.7208,-0.7632,-0.7192,-0.6921,-0.7022,0.0,0.0,0.0,0.0,0.0,0.0,0.0,0.0,0.0,0.0,0.0,0.0,0.0,0.0,0.0,0.0,0.0,0.0,0.0,0.0,0.0,0.0,0.0,0.0,0.0,0.0,0.0,0.0,0.0,0.0,0.0,0.0,0.0,0.0,0.0,0.0,0.0,0.0,0.0,-1.4776,-1.7074,0.0,-2.0128,-2.1019,-2.1759,-2.1368,-2.0514,-1.9564,-1.8867,-1.7102,-1.5532,-1.5282,-1.5472,-1.5875,-1.6469,-1.7369,-1.8494,-1.9961,-2.0246,0.0,0.0,0.0,0.0,0.0,0.0,0.0,0.0,0.0,0.0,0.0,0.0,0.0,0.0,-3.1248,-3.1347,-3.2633,-3.1267,-3.0646,-3.0964,-3.0367,-3.006,-2.9972,-2.9709,-2.9364,-2.9003,-2.8835,-2.8763,0.0,0.0,0.0,0.0,-2.851,-2.851,-2.851,-2.851,-2.851,-2.851,-2.851,-2.851,-2.851,0.0,0.0,0.0,0.0,0.0,0.0,0.0,0.0,-0.6123,-0.6455,-0.6501,-0.6736,-0.7329,0.0,0.0,0.0,0.0,0.0,0.0,0.0,0.0,0.0,0.0,0.0,0.0,0.0,0.0,0.0,0.0,0.0,0.0,0.0,0.0,0.0,0.0,0.0,0.0,0.0,0.0,0.0,0.0,0.0,-0.9716,0.0,0.0,0.0,0.0,0.0,0.0,0.0,0.0,0.0,0.0,0.0,0.0,0.0,-1.456,-1.6357,0.0,-1.8867,-1.9676,-1.9543,-1.8782,-1.8013,-1.7676,-1.6146,-1.4804,-1.4831,-1.4917,-1.5222,-1.6062,-1.6923,-1.7936,-1.9279,-1.9553,0.0,0.0,0.0,0.0,0.0,0.0,0.0,0.0,0.0,0.0,0.0,0.0,0.0,0.0,-3.01,-3.029,-3.1486,-3.0183,-2.9496,-2.9496,-2.9496,-2.9328,-2.9003,-2.9003,-2.8823,-2.851,-2.851,-2.851,0.0,0.0,0.0,0.0,-2.851,-2.851,-2.851,-2.851,-2.851,-2.851,-2.851,-2.851,-2.851,0.0,0.0,0.0,0.0,0.0,0.0,0.0,0.0,0.0,0.0,0.0,-0.622,-0.6773,0.0,0.0,0.0,0.0,0.0,0.0,0.0,0.0,0.0,0.0,0.0,0.0,0.0,0.0,-1.0291,-1.0885,-1.1211,-1.1295,-1.1793,0.0,0.0,0.0,0.0,0.0,0.0,0.0,0.0,0.0,-0.9211,0.0,0.0,0.0,0.0,0.0,0.0,0.0,0.0,0.0,0.0,0.0,0.0,0.0,0.0,0.0,0.0,0.0,-1.7123,-1.8037,-1.8482,-1.752,-1.6439,-1.6439,-1.4898,0.0,-1.4625,-1.44,-1.4548,-1.612,-1.6677,-1.689,-1.6858,0.0,0.0,0.0,0.0,0.0,0.0,0.0,0.0,0.0,0.0,0.0,0.0,0.0,0.0,0.0,-2.9367,-2.8882,-2.9588,-2.8882,-2.851,-2.851,-2.851,-2.851,-2.851,-2.851,-2.851,-2.851,-2.851,-2.851,0.0,0.0,0.0,0.0,-2.851,-2.851,-2.851,-2.851,-2.851,-2.851,-2.851,-2.851,-2.851,0.0,0.0,0.0,0.0,0.0,0.0,0.0,0.0,0.0,0.0,0.0,0.0,0.0,0.0,0.0,0.0,0.0,0.0,0.0,0.0,0.0,0.0,0.0,0.0,0.0,0.0,0.0,-1.0291,-1.1412,-1.2306,-1.3028,-1.3245,0.0,0.0,0.0,0.0,0.0,0.0,0.0,0.0,-0.945,-0.9426,0.0,0.0,0.0,0.0,-0.9723,-1.0069,0.0,0.0,0.0,0.0,0.0,0.0,0.0,0.0,-1.1487,-1.1801,-1.3233,0.0,-1.5157,-1.4847,-1.4832,-1.4856,0.0,-1.4144,-1.3567,-1.3782,0.0,-1.4216,-1.6128,-1.6217,-1.6965,0.0,0.0,0.0,0.0,0.0,0.0,0.0,0.0,0.0,0.0,0.0,0.0,0.0,0.0,0.0,0.0,-2.9289,-2.9223,-2.8816,-2.859,-2.851,-2.851,-2.851,-2.851,-2.851,-2.851,-2.851,-2.851,-2.851,-2.851,0.0,0.0,0.0,-2.851,-2.851,-2.851,-2.851,-2.851,-2.851,-2.851,-2.851,-2.851,-2.851,0.0,0.0,0.0,0.0,0.0,0.0,0.0,0.0,0.0,0.0,0.0,0.0,0.0,0.0,0.0,0.0,0.0,0.0,0.0,0.0,0.0,0.0,0.0,0.0,0.0,0.0,0.0,0.0,0.0,-1.2379,0.0,0.0,0.0,0.0,0.0,0.0,0.0,0.0,0.0,0.0,-0.9402,0.0,0.0,0.0,0.0,0.0,-0.9551,-0.9773,0.0,-1.0264,-1.0666,-1.1063,0.0,0.0,0.0,0.0,-1.0738,-1.0966,-1.2041,-1.33,-1.4337,-1.4522,-1.4586,-1.461,-1.461,0.0,0.0,0.0,0.0,-1.3907,-1.525,0.0,0.0,0.0,0.0,0.0,0.0,0.0,0.0,0.0,0.0,0.0,0.0,0.0,0.0,0.0,0.0,0.0,0.0,-2.8922,-2.8961,-2.851,-2.851,-2.851,-2.851,-2.851,-2.851,-2.851,-2.851,-2.851,-2.851,-2.851,-2.851,0.0,0.0,0.0,-2.851,-2.851,-2.851,-2.851,-2.851,-2.851,-2.851,-2.851,-2.851,-2.851,0.0,0.0,0.0,0.0,0.0,0.0,0.0,0.0,0.0,0.0,0.0,0.0,0.0,0.0,0.0,0.0,0.0,0.0,0.0,0.0,0.0,0.0,0.0,0.0,0.0,0.0,0.0,0.0,0.0,0.0,0.0,0.0,-1.2963,0.0,0.0,0.0,0.0,0.0,0.0,0.0,0.0,0.0,0.0,0.0,0.0,0.0,0.0,0.0,0.0,-1.0027,-1.0485,-1.0786,-1.0315,0.0,0.0,0.0,0.0,0.0,-1.1596,-1.3083,-1.4482,-1.5271,-1.5178,-1.4881,-1.4881,0.0,0.0,0.0,0.0,0.0,0.0,0.0,0.0,0.0,0.0,0.0,0.0,0.0,0.0,0.0,0.0,0.0,0.0,0.0,0.0,0.0,0.0,0.0,0.0,-2.851,-2.851,-2.851,-2.851,-2.851,-2.851,-2.851,-2.851,-2.851,-2.851,-2.851,-2.851,-2.851,-2.851,-2.851,0.0,0.0,-2.851,-2.851,-2.851,-2.851,-2.851,-2.851,-2.851,-2.851,-2.851,-2.851,0.0,0.0,0.0,0.0,0.0,0.0,0.0,0.0,0.0,0.0,0.0,0.0,0.0,0.0,0.0,0.0,0.0,0.0,0.0,0.0,0.0,0.0,0.0,0.0,0.0,0.0,0.0,0.0,0.0,0.0,-1.3871,-1.483,-1.42,-1.2237,0.0,0.0,0.0,0.0,0.0,0.0,0.0,0.0,0.0,0.0,0.0,0.0,0.0,0.0,0.0,-0.9606,-0.9678,-0.9738,-0.9654,0.0,0.0,0.0,0.0,0.0,-1.1487,-1.3083,-1.4229,-1.3939,-1.4125,-1.441,-1.441,0.0,0.0,0.0,0.0,0.0,0.0,0.0,0.0,0.0,0.0,0.0,0.0,0.0,0.0,0.0,0.0,0.0,0.0,0.0,0.0,0.0,0.0,0.0,0.0,-2.851,-2.851,-2.851,-2.851,-2.851,-2.851,-2.851,-2.851,-2.851,-2.851,-2.851,-2.851,-2.851,-2.851,-2.851,0.0,-2.851,-2.851,-2.851,-2.851,-2.851,-2.851,-2.851,-2.851,-2.851,-2.851,-2.851,0.0,0.0,0.0,0.0,0.0,0.0,0.0,0.0,0.0,0.0,0.0,0.0,0.0,0.0,0.0,0.0,0.0,0.0,0.0,0.0,0.0,0.0,0.0,0.0,0.0,0.0,0.0,0.0,0.0,-1.3099,-1.3896,-1.3906,-1.3185,-1.1818,0.0,0.0,0.0,0.0,0.0,-0.951,0.0,0.0,0.0,0.0,0.0,0.0,0.0,0.0,0.0,0.0,-0.9463,-0.9882,-0.9594,0.0,0.0,0.0,0.0,0.0,-1.1111,-1.2427,-1.3577,-1.4165,-1.5139,-1.5907,-1.5596,0.0,0.0,0.0,0.0,0.0,0.0,0.0,0.0,0.0,0.0,0.0,0.0,0.0,0.0,0.0,0.0,0.0,0.0,0.0,0.0,0.0,0.0,0.0,0.0,0.0,-2.851,-2.851,-2.851,-2.851,-2.851,-2.851,-2.851,-2.851,-2.851,-2.851,-2.851,-2.851,-2.851,-2.851,0.0,-2.851,-2.851,-2.851,-2.851,-2.851,-2.851,-2.851,-2.851,-2.851,-2.851,-2.851,0.0,0.0,0.0,0.0,0.0,0.0,0.0,0.0,0.0,0.0,0.0,0.0,0.0,0.0,0.0,0.0,0.0,0.0,0.0,0.0,0.0,0.0,0.0,0.0,0.0,0.0,-0.96,-1.0835,-1.1942,-1.2925,-1.3721,-1.2818,-1.193,-1.103,0.0,0.0,0.0,0.0,-0.9306,-0.9318,0.0,0.0,0.0,0.0,0.0,0.0,0.0,0.0,0.0,0.0,0.0,0.0,0.0,0.0,0.0,-0.963,-0.951,-0.9738,-1.081,-1.1885,-1.3041,-1.4481,-1.5946,-1.7015,-1.6979,-1.6655,0.0,0.0,0.0,0.0,0.0,0.0,0.0,0.0,0.0,0.0,0.0,0.0,0.0,0.0,0.0,0.0,0.0,0.0,0.0,0.0,0.0,0.0,0.0,-2.851,-2.851,-2.851,-2.851,-2.851,-2.851,-2.851,-2.851,-2.851,-2.851,-2.851,-2.851,-2.851,-2.851,-2.851,-2.851,-2.851,-2.851,-2.851,-2.851,-2.851,-2.851,-2.851,-2.851,-2.851,-2.851,-2.851,0.0,0.0,0.0,0.0,0.0,0.0,0.0,0.0,0.0,0.0,0.0,0.0,0.0,0.0,0.0,0.0,0.0,0.0,0.0,0.0,0.0,0.0,0.0,0.0,0.0,-0.9536,-1.0192,-1.1525,-1.2539,-1.3113,-1.3248,-1.2676,-1.1472,-0.9821,0.0,0.0,0.0,0.0,-0.8754,-0.8802,-0.9294,0.0,0.0,0.0,0.0,0.0,0.0,0.0,0.0,0.0,0.0,0.0,0.0,0.0,-0.9558,-0.951,-0.951,-0.9738,-1.081,-1.1885,-1.2975,-1.4072,-1.5139,0.0,-1.776,-1.8061,0.0,-1.9314,0.0,0.0,0.0,0.0,0.0,0.0,0.0,0.0,0.0,0.0,0.0,0.0,0.0,0.0,0.0,0.0,0.0,0.0,0.0,0.0,0.0,-2.851,-2.851,-2.851,-2.851,-2.851,-2.851,-2.851,-2.851,-2.851,-2.851,-2.851,-2.851,-2.851,-2.851,-2.851,-2.851,-2.851,-2.851,-2.851,-2.851,-2.851,-2.851,-2.851,-2.851,-2.851,-2.851,-2.851,0.0,0.0,0.0,0.0,0.0,0.0,0.0,0.0,0.0,0.0,0.0,0.0,0.0,0.0,0.0,0.0,0.0,0.0,0.0,0.0,0.0,0.0,0.0,-0.7848,-0.9231,-0.9936,-1.0885,-1.2102,-1.2472,-1.2493,-1.2139,-1.155,0.0,0.0,0.0,0.0,0.0,0.0,0.0,-0.8682,-0.8562,-0.8189,0.0,0.0,0.0,0.0,0.0,0.0,0.0,0.0,-0.8152,-0.873,-0.8934,-0.9222,-0.951,-0.951,-0.951,-0.9666,-1.0399,-1.1873,-1.3372,-1.4128,-1.557,0.0,0.0,-1.8977,-1.9576,-2.0995,0.0,0.0,0.0,0.0,0.0,0.0,0.0,0.0,0.0,0.0,0.0,0.0,0.0,0.0,0.0,0.0,0.0,0.0,0.0,0.0,0.0,-2.851,-2.851,-2.851,-2.851,-2.851,-2.851,-2.851,-2.851,-2.851,-2.851,-2.851,-2.851,-2.851,-2.851,-2.851,-2.851,-2.851,-2.851,-2.851,-2.851,-2.851,-2.851,-2.851,-2.851,-2.851,-2.851,-2.851,0.0,0.0,0.0,0.0,0.0,0.0,0.0,0.0,0.0,0.0,0.0,0.0,0.0,0.0,0.0,0.0,0.0,0.0,0.0,0.0,0.0,0.0,0.0,-0.7665,-0.8698,-0.9853,-1.0917,-1.1861,-1.1861,-1.1643,-1.1208,0.0,0.0,0.0,0.0,0.0,0.0,0.0,0.0,0.0,-0.8236,-0.7732,0.0,0.0,0.0,0.0,0.0,0.0,0.0,0.0,-0.7588,-0.8248,-0.8586,-0.8946,-0.9282,-0.945,-0.9738,-1.0087,-1.0461,-1.1993,-1.3662,-1.4341,0.0,0.0,-1.936,-2.0033,-2.0754,-2.2354,0.0,0.0,0.0,0.0,0.0,0.0,0.0,0.0,0.0,0.0,0.0,0.0,0.0,0.0,0.0,0.0,0.0,0.0,0.0,0.0,0.0,-2.8102,-2.7978,-2.7978,-2.7978,-2.7978,-2.7978,-2.7978,-2.7978,-2.8017,-2.8186,-2.8354,-2.851,-2.851,-2.851,-2.851,-2.851,-2.851,-2.851,-2.851,-2.851,-2.851,-2.851,-2.851,-2.851,-2.851,-2.851,-2.851,0.0,0.0,0.0,0.0,0.0,0.0,0.0,0.0,0.0,0.0,0.0,0.0,0.0,0.0,0.0,0.0,0.0,0.0,0.0,0.0,0.0,0.0,0.0,-0.7469,-0.8075,-0.9268,-1.0142,-1.0681,-1.0681,-1.0666,-1.0569,-1.0037,0.0,0.0,0.0,0.0,0.0,0.0,0.0,0.0,-0.8477,-0.8044,-0.7167,0.0,0.0,0.0,0.0,0.0,0.0,0.0,-0.7097,-0.7287,-0.8357,-0.8706,-0.8814,-0.9342,-1.0255,-1.1111,-1.1099,-1.227,-1.3751,0.0,0.0,0.0,-2.0682,-2.1404,-2.1861,0.0,0.0,0.0,0.0,0.0,0.0,0.0,0.0,0.0,0.0,0.0,0.0,0.0,0.0,0.0,0.0,0.0,0.0,0.0,0.0,0.0,0.0,-2.7186,-2.6898,-2.6898,-2.6898,-2.6898,-2.6898,-2.6898,-2.6898,-2.691,-2.7426,-2.7993,-2.8498,-2.8498,-2.8498,-2.8498,-2.8498,-2.8498,-2.8498,-2.8498,-2.8498,-2.8498,-2.8498,-2.8498,-2.8498,-2.8498,-2.8498,-2.8498,0.0,0.0,0.0,0.0,0.0,0.0,0.0,0.0,0.0,0.0,0.0,0.0,0.0,0.0,0.0,0.0,0.0,0.0,0.0,0.0,0.0,0.0,0.0,0.0,0.0,0.0,-0.8791,-1.0131,-1.0131,-0.9878,0.0,0.0,0.0,-0.9525,0.0,0.0,0.0,0.0,0.0,0.0,-0.766,-0.7383,-0.7109,0.0,0.0,0.0,0.0,0.0,0.0,0.0,0.0,0.0,-0.7923,-0.891,-0.9788,-0.957,-1.0534,-1.1584,-1.1195,-1.2547,0.0,0.0,0.0,0.0,0.0,-2.1692,0.0,0.0,0.0,0.0,0.0,0.0,0.0,0.0,0.0,0.0,0.0,0.0,0.0,0.0,0.0,0.0,0.0,0.0,0.0,0.0,0.0,0.0,0.0,-2.6982,-2.6898,-2.6898,-2.6898,-2.6898,-2.6898,-2.6898,-2.6898,-2.6898,-2.7054,-2.7402,-2.7957,-2.7957,-2.7957,-2.7933,-2.7522,-2.7366,-2.7366,-2.7366,-2.7366,-2.7366,-2.7366,-2.7366,-2.7366,-2.7366,-2.7366,-2.7366,0.0,0.0,0.0,0.0,0.0,0.0,0.0,0.0,0.0,0.0,0.0,-0.6295,0.0,0.0,0.0,0.0,0.0,0.0,0.0,0.0,0.0,0.0,0.0,0.0,0.0,-0.7193,-0.7872,0.0,0.0,0.0,0.0,0.0,0.0,-0.981,0.0,-0.9318,0.0,0.0,0.0,0.0,-0.7551,-0.7299,-0.7121,0.0,0.0,0.0,0.0,0.0,0.0,0.0,0.0,0.0,-0.7419,-0.8249,-0.9126,-0.9666,-1.081,-1.1969,-1.2282,0.0,0.0,0.0,0.0,0.0,0.0,0.0,0.0,0.0,0.0,0.0,0.0,0.0,0.0,0.0,0.0,0.0,0.0,0.0,0.0,0.0,0.0,0.0,0.0,0.0,0.0,0.0,0.0,0.0,0.0,-2.6369,-2.6249,-2.6249,-2.6249,-2.6249,-2.6249,-2.6249,-2.6249,-2.6261,-2.6465,-2.6767,-2.7091,-2.727,-2.7366,-2.7354,-2.7042,-2.6898,-2.6898,-2.6898,-2.6898,-2.6898,-2.6898,-2.6898,-2.6898,-2.6898,-2.6898,-2.6898,0.0,0.0,-0.3886,-0.4014,0.0,0.0,0.0,0.0,0.0,0.0,-0.6295,-0.6295,0.0,0.0,0.0,-0.6295,0.0,0.0,0.0,0.0,0.0,0.0,0.0,0.0,0.0,0.0,0.0,0.0,0.0,0.0,0.0,0.0,-0.9326,-1.0195,0.0,-0.9402,0.0,0.0,0.0,-0.7828,-0.7828,-0.7539,-0.7145,-0.7636,0.0,0.0,0.0,0.0,0.0,0.0,0.0,0.0,-0.6929,-0.7157,-0.7636,-0.957,-1.1015,-1.2282,0.0,0.0,0.0,0.0,0.0,0.0,0.0,0.0,0.0,0.0,0.0,0.0,0.0,0.0,0.0,0.0,0.0,0.0,0.0,0.0,0.0,0.0,0.0,0.0,0.0,0.0,0.0,0.0,0.0,0.0,0.0,-2.5576,-2.5312,-2.5312,-2.5312,-2.5312,-2.5312,-2.5312,-2.5312,-2.5312,-2.5793,-2.6021,-2.6045,-2.6561,-2.6789,-2.6741,-2.6741,-2.6741,-2.6741,-2.6741,-2.6741,-2.6741,-2.6741,-2.6741,-2.6741,-2.6741,-2.6741,-2.6741,0.0,0.0,-0.4385,-0.4971,0.0,0.0,0.0,0.0,-0.6295,-0.6295,-0.6295,-0.6295,-0.6295,-0.6295,0.0,-0.6295,-0.6346,0.0,0.0,0.0,0.0,0.0,0.0,0.0,0.0,0.0,0.0,0.0,0.0,0.0,0.0,0.0,0.0,-0.9654,0.0,-0.8646,0.0,0.0,0.0,-0.7275,-0.7275,-0.7203,-0.7109,-0.7227,-0.6868,0.0,0.0,0.0,0.0,0.0,0.0,0.0,-0.6929,-0.7672,-0.8453,-0.8911,-1.0693,-1.2595,0.0,0.0,0.0,0.0,0.0,0.0,0.0,0.0,0.0,0.0,0.0,0.0,0.0,0.0,0.0,0.0,0.0,0.0,0.0,0.0,0.0,0.0,0.0,0.0,0.0,0.0,0.0,0.0,0.0,0.0,-2.5314,-2.5313,-2.5312,-2.5312,-2.5312,-2.5312,-2.5312,-2.5312,-2.5312,0.0,-2.5432,-2.548,-2.5492,-2.6033,-2.6045,-2.5661,-2.5661,-2.5661,-2.5661,-2.5661,-2.5661,-2.5661,-2.5661,-2.5661,-2.5661,-2.5661,-2.5661,-2.5661,0.0,0.0,0.0,0.0,0.0,0.0,0.0,0.0,-0.5897,-0.6262,-0.6216,-0.6198,-0.6286,-0.6295,0.0,0.0,-0.6325,-0.6346,0.0,0.0,0.0,0.0,0.0,0.0,0.0,0.0,0.0,0.0,0.0,0.0,0.0,0.0,0.0,-0.9858,0.0,-0.8778,0.0,0.0,-0.7097,-0.7097,-0.7097,-0.7097,-0.7097,-0.7097,-0.6772,-0.6295,-0.6295,0.0,0.0,0.0,0.0,0.0,0.0,0.0,-0.8081,-0.885,-1.0245,-1.1837,0.0,0.0,0.0,0.0,0.0,0.0,0.0,0.0,0.0,0.0,0.0,0.0,0.0,0.0,0.0,0.0,0.0,0.0,0.0,0.0,0.0,0.0,0.0,0.0,0.0,0.0,0.0,0.0,0.0,-2.4981,-2.5087,-2.5182,-2.5241,-2.5312,-2.5312,-2.5312,-2.5312,-2.5312,-2.5312,-2.5312,-2.5312,-2.5312,-2.5312,-2.5588,-2.5564,-2.5312,-2.5312,-2.5312,-2.5312,-2.5312,-2.5312,-2.5312,-2.5312,-2.5312,-2.5312,-2.5312,-2.5312,-2.5312,0.0,0.0,0.0,0.0,0.0,0.0,0.0,0.0,0.0,-0.6221,-0.6126,-0.6081,-0.6278,-0.6295,-0.6295,0.0,0.0,0.0,-0.6295,0.0,0.0,0.0,0.0,0.0,0.0,0.0,0.0,0.0,0.0,0.0,0.0,0.0,0.0,-1.0267,0.0,0.0,0.0,0.0,-0.7029,-0.6904,-0.6955,-0.6965,-0.6965,-0.6965,-0.6688,-0.6295,-0.6295,-0.6295,-0.6295,-0.6295,0.0,0.0,0.0,0.0,-0.7361,-0.8694,-0.9594,-1.0627,0.0,0.0,0.0,0.0,0.0,0.0,0.0,0.0,0.0,0.0,0.0,0.0,0.0,0.0,0.0,0.0,0.0,0.0,0.0,0.0,0.0,0.0,0.0,0.0,0.0,0.0,0.0,0.0,0.0,-2.459,-2.4778,-2.4814,-2.4872,-2.5047,-2.5035,-2.5035,-2.5035,-2.5035,-2.5035,-2.5035,-2.5035,-2.5035,-2.5047,-2.5131,-2.5216,-2.5312,-2.5312,-2.5312,-2.5312,-2.5312,-2.5312,-2.5312,-2.5312,-2.5312,-2.5312,-2.5312,-2.5312,-2.5312,0.0,0.0,0.0,0.0,0.0,0.0,0.0,0.0,0.0,0.0,-0.6126,-0.6081,-0.6278,-0.6295,-0.6295,-0.6295,-0.6295,-0.6295,0.0,0.0,0.0,0.0,0.0,0.0,0.0,0.0,0.0,0.0,0.0,0.0,0.0,0.0,0.0,-1.0252,0.0,0.0,0.0,0.0,-0.6736,-0.6156,-0.634,-0.6403,-0.6403,-0.6403,-0.6355,-0.6295,-0.6295,-0.6295,-0.6295,-0.6295,-0.6664,0.0,0.0,0.0,0.0,0.0,-0.8418,-0.96,0.0,0.0,0.0,0.0,0.0,0.0,0.0,0.0,0.0,0.0,0.0,0.0,0.0,0.0,0.0,0.0,0.0,0.0,0.0,0.0,0.0,0.0,0.0,0.0,0.0,0.0,0.0,0.0,-2.3131,-2.329,-2.3448,-2.3629,-2.3797,-2.4011,-2.4011,-2.4011,-2.4011,-2.4011,-2.4011,-2.4011,-2.4011,-2.4011,-2.4023,-2.4422,-2.4879,-2.5312,-2.5312,-2.5312,-2.5312,-2.5312,-2.5312,-2.5312,-2.5312,-2.5312,-2.5312,-2.5312,-2.5312,-2.5312,0.0,0.0,0.0,0.0,0.0,0.0,0.0,0.0,0.0,0.0,0.0,-0.6081,-0.6278,-0.6295,-0.6295,-0.6295,-0.6295,0.0,0.0,0.0,0.0,0.0,0.0,0.0,0.0,0.0,0.0,0.0,0.0,0.0,0.0,-0.8674,-0.944,0.0,0.0,0.0,0.0,0.0,-0.6778,-0.659,-0.6379,-0.6642,-0.7079,-0.6514,-0.6657,-0.7068,-0.6502,-0.6302,-0.6295,-0.6295,-0.6856,-0.7407,-0.6559,0.0,0.0,0.0,0.0,0.0,0.0,0.0,0.0,0.0,0.0,0.0,0.0,0.0,0.0,0.0,0.0,0.0,0.0,0.0,0.0,0.0,0.0,0.0,0.0,0.0,0.0,0.0,0.0,0.0,0.0,0.0,0.0,0.0,-2.2787,-2.2923,-2.3092,-2.3159,-2.3361,-2.3628,-2.3628,-2.3706,-2.3806,-2.3806,-2.3806,-2.3806,-2.3806,-2.3806,-2.3806,-2.4001,-2.4386,-2.4879,-2.518,-2.5312,-2.5312,-2.5312,-2.5312,-2.5312,-2.5312,-2.5312,-2.5312,-2.5312,-2.5312,-2.5312,0.0,0.0,0.0,0.0,0.0,0.0,0.0,0.0,0.0,0.0,0.0,-0.6016,-0.6269,0.0,0.0,0.0,-0.6295,0.0,0.0,0.0,0.0,0.0,0.0,0.0,0.0,0.0,0.0,0.0,0.0,0.0,-0.9357,-0.8829,-0.9817,0.0,-1.0709,0.0,0.0,0.0,0.0,-0.7394,-0.7041,-0.7355,-0.7984,-0.7642,-0.7957,-0.8452,-0.7467,0.0,0.0,0.0,0.0,0.0,0.0,0.0,0.0,0.0,0.0,0.0,0.0,0.0,0.0,0.0,0.0,0.0,0.0,0.0,0.0,0.0,0.0,0.0,0.0,0.0,0.0,0.0,0.0,0.0,0.0,0.0,0.0,0.0,0.0,0.0,0.0,0.0,0.0,0.0,-2.2328,-2.2395,-2.2595,-2.2595,-2.2727,-2.3036,-2.3024,-2.3135,-2.3331,-2.3364,-2.3396,-2.3396,-2.3396,-2.3396,-2.3408,-2.3541,-2.3773,-2.4157,-2.4687,-2.4915,-2.4915,-2.4915,-2.4915,-2.4915,-2.4915,-2.4915,-2.4915,-2.4915,-2.4915,-2.4939,0.0,0.0,0.0,0.0,0.0,0.0,0.0,0.0,0.0,0.0,0.0,-0.5861,-0.6251,-0.6295,-0.6295,-0.6295,-0.6295,0.0,0.0,0.0,0.0,0.0,0.0,0.0,0.0,0.0,0.0,0.0,0.0,0.0,-0.9014,-0.848,-0.9635,-1.2165,-1.1569,-1.0435,-0.8959,0.0,0.0,-0.8344,-0.8502,-0.861,-0.8813,-1.0291,-1.0803,-1.0628,0.0,0.0,0.0,0.0,0.0,0.0,0.0,0.0,0.0,0.0,0.0,0.0,0.0,0.0,0.0,0.0,0.0,0.0,0.0,0.0,0.0,0.0,0.0,0.0,0.0,0.0,0.0,0.0,0.0,0.0,0.0,0.0,0.0,0.0,0.0,0.0,0.0,0.0,0.0,0.0,-2.127,-2.1334,-2.1481,-2.1469,-2.1588,-2.178,-2.178,-2.1863,-2.2008,-2.2176,-2.227,-2.227,-2.227,-2.227,-2.2294,-2.283,-2.3039,-2.3119,-2.3649,-2.3878,-2.3878,-2.3878,-2.3878,-2.3878,-2.3878,-2.3878,-2.3878,-2.3878,-2.3878,-2.395,0.0,0.0,0.0,0.0,0.0,0.0,0.0,0.0,0.0,0.0,0.0,0.0,0.0,-0.6295,-0.6295,-0.6295,-0.6295,0.0,0.0,0.0,0.0,0.0,0.0,0.0,0.0,0.0,0.0,0.0,0.0,-0.6126,-0.7906,-0.7842,-0.8486,-0.9719,-0.9999,-1.0399,-1.0756,-0.8752,0.0,0.0,-0.9132,-0.9577,-1.049,-1.0464,-1.0781,-1.1048,0.0,0.0,0.0,0.0,0.0,0.0,0.0,-0.7612,-0.7433,-0.6506,0.0,0.0,0.0,0.0,0.0,0.0,0.0,0.0,0.0,0.0,0.0,0.0,0.0,0.0,0.0,0.0,0.0,0.0,0.0,0.0,0.0,0.0,0.0,0.0,0.0,0.0,0.0,0.0,0.0,0.0,0.0,-2.1221,-2.1285,-2.1285,-2.1348,-2.1506,-2.1506,-2.1632,-2.1894,-2.2092,-2.2197,-2.2197,-2.2197,-2.2197,-2.2197,-2.239,-2.2474,-2.2486,-2.2678,-2.3168,-2.3806,-2.3806,-2.3806,-2.3806,-2.3806,-2.3806,-2.3806,-2.3806,-2.3806,-2.383,0.0,0.0,0.0,-0.5376,0.0,-0.5769,-0.597,-0.6063,-0.6153,-0.6278,0.0,0.0,0.0,0.0,-0.6171,-0.6108,-0.6099,-0.6034,-0.5907,0.0,0.0,0.0,0.0,0.0,0.0,0.0,0.0,0.0,0.0,0.0,0.0,-0.7139,-0.7564,-0.8274,-0.8479,-0.9624,0.0,0.0,0.0,-1.0506,0.0,0.0,-1.1516,0.0,-1.1776,0.0,0.0,0.0,0.0,0.0,0.0,0.0,0.0,-0.8028,-0.7384,-0.6441,-0.6717,0.0,0.0,0.0,0.0,0.0,0.0,0.0,0.0,0.0,0.0,0.0,0.0,0.0,0.0,0.0,0.0,0.0,0.0,0.0,0.0,0.0,0.0,0.0,0.0,0.0,0.0,0.0,0.0,0.0,0.0,0.0,-2.0707,-2.0707,-2.0726,-2.0838,-2.1082,-2.1331,-2.1571,-2.1737,-2.1819,-2.1831,-2.16,-2.16,-2.1819,-2.1819,-2.1956,-2.2197,-2.2197,-2.2594,-2.3276,-2.3276,-2.3276,-2.3276,-2.3276,-2.3276,-2.3276,-2.3276,-2.3276,-2.33,-0.5098,-0.5262,-0.5385,-0.5385,-0.5565,-0.5769,-0.5961,-0.5834,-0.5852,-0.6242,0.0,0.0,0.0,0.0,0.0,-0.5714,-0.5704,-0.5695,-0.5695,-0.5508,0.0,0.0,0.0,0.0,0.0,0.0,0.0,0.0,0.0,0.0,0.0,0.0,-0.6942,-0.8109,-0.7277,-0.8099,-1.0122,0.0,-1.0575,-1.1033,0.0,-1.1568,-1.1806,0.0,0.0,0.0,-1.2934,-1.2605,0.0,0.0,0.0,0.0,0.0,-0.8258,-0.6821,-0.6301,-0.6485,0.0,0.0,0.0,0.0,0.0,0.0,0.0,0.0,0.0,0.0,0.0,0.0,0.0,0.0,0.0,0.0,0.0,0.0,0.0,0.0,0.0,0.0,0.0,0.0,0.0,0.0,0.0,0.0,0.0,-1.9688,-1.9688,-1.9688,-1.9688,-1.9688,-1.9688,-2.0467,-2.0864,-2.0864,-2.1004,-2.1089,-2.1089,-2.0408,-2.0408,-2.1046,-2.1046,-2.1428,-2.2111,-2.2111,-2.2142,-2.2154,-2.2197,-2.2197,-2.2197,-2.2197,-2.2197,-2.2197,-2.2197,-2.2197,-2.2258,-0.5098,-0.5146,-0.5185,-0.5185,-0.5471,-0.5723,-0.5778,-0.5861,-0.5952,0.0,0.0,0.0,-0.5861,-0.5815,-0.576,-0.5704,-0.5704,-0.5639,-0.5489,-0.5433,-0.5329,-0.5185,-0.5127,0.0,0.0,0.0,0.0,0.0,0.0,0.0,0.0,0.0,0.0,0.0,-0.6814,-0.7329,-0.8153,-0.78,0.0,0.0,-1.0528,-1.1226,0.0,0.0,0.0,0.0,0.0,-1.2836,-1.2682,0.0,-1.2201,-1.1129,0.0,0.0,-0.7571,-0.7279,-0.762,-0.7949,-0.721,0.0,0.0,0.0,0.0,0.0,0.0,0.0,0.0,0.0,0.0,0.0,0.0,0.0,0.0,0.0,0.0,0.0,0.0,0.0,0.0,0.0,0.0,0.0,0.0,0.0,0.0,0.0,-1.9688,-1.9688,-1.9688,-1.9688,-1.9688,-1.9688,-2.0011,-2.0169,-2.0169,-2.0369,-2.0439,-2.0439,-1.9924,-1.9761,-1.9924,-1.9579,-1.9719,-2.018,-2.018,-2.0634,-2.1463,-2.1987,-2.2197,-2.2197,-2.2197,-2.2197,-2.2197,-2.2197,-2.2197,-2.2209,-0.5098,-0.5098,-0.5098,-0.5098,-0.5452,-0.5773,-0.5852,-0.597,-0.6077,0.0,0.0,0.0,-0.5583,-0.5905,-0.5939,-0.5483,-0.5443,-0.5396,-0.5282,-0.5253,-0.5175,-0.5059,-0.5058,-0.5039,0.0,0.0,0.0,0.0,0.0,0.0,0.0,0.0,0.0,0.0,-0.5859,-0.6185,-0.6542,-0.6139,0.0,0.0,-1.0639,0.0,0.0,-1.2301,-1.2566,0.0,0.0,0.0,-1.3125,-1.3283,-1.2646,0.0,0.0,-0.9093,-0.8574,-0.7921,-0.8261,0.0,0.0,0.0,0.0,0.0,0.0,0.0,0.0,0.0,0.0,0.0,0.0,0.0,0.0,0.0,0.0,0.0,0.0,0.0,0.0,0.0,0.0,0.0,0.0,0.0,0.0,-1.8636,-1.8523,-1.8313,-1.8291,-1.8378,-1.8638,-1.8667,-1.8765,-1.9017,-1.9385,-1.9564,-1.9564,-1.9668,-1.9742,-1.9742,-1.8936,-1.8715,-1.9015,-1.8503,-1.8574,-1.9142,-1.9142,-1.9634,-2.0468,-2.1179,-2.1766,-2.2197,-2.2197,-2.2197,-2.2197,-2.2197,-2.2197,-2.2197,0.0,-0.5108,-0.5117,-0.5176,-0.5538,-0.5911,-0.6125,-0.6157,-0.6222,0.0,-0.6082,-0.579,-0.5653,-0.6283,-0.6324,-0.5379,-0.5213,-0.5165,-0.5165,-0.5068,-0.5,-0.499,-0.499,-0.499,-0.498,0.0,0.0,0.0,0.0,0.0,0.0,0.0,0.0,-0.4802,-0.4802,-0.4994,-0.5346,-0.5394,0.0,-0.9121,-1.0944,-1.1601,0.0,0.0,-1.2385,0.0,-1.2933,-1.3276,-1.3646,-1.3342,-1.2522,0.0,0.0,-0.9845,-0.9685,-0.8534,-0.8764,0.0,-0.8373,-0.8494,0.0,0.0,0.0,0.0,-1.1334,-1.1238,0.0,0.0,0.0,0.0,0.0,0.0,0.0,0.0,0.0,0.0,0.0,0.0,0.0,0.0,0.0,0.0,-1.7208,-1.7084,-1.6875,-1.6458,-1.6479,-1.6726,-1.7257,-1.723,-1.7462,-1.7991,-1.8524,-1.8798,-1.8798,-1.8794,-1.8811,-1.8811,-1.7625,-1.7431,-1.813,-1.7553,-1.7717,-1.8498,-1.8498,-1.877,-1.9267,-1.993,-2.0931,-2.2092,-2.2154,-2.2197,-2.2197,-2.2197,-2.2197,-2.2197,-0.5078,-0.5098,-0.5214,-0.5596,-0.5873,-0.6165,-0.6524,-0.6538,-0.6537,-0.6632,-0.6651,-0.6791,-0.7133,-0.694,-0.6722,-0.6563,-0.5917,-0.5524,-0.5577,-0.521,-0.498,-0.4922,-0.4922,-0.4902,-0.4842,-0.475,0.0,0.0,0.0,0.0,0.0,0.0,0.0,-0.4802,-0.4802,-0.4839,-0.5025,-0.6666,0.0,-0.811,-0.8723,0.0,-1.1496,-1.1592,-1.1944,-1.2504,-1.315,-1.351,-1.3739,0.0,-1.3429,-1.2504,0.0,0.0,0.0,-1.0185,0.0,-1.044,-0.9837,-1.004,-1.0264,-0.9488,0.0,0.0,0.0,-0.8829,0.0,0.0,0.0,0.0,0.0,0.0,0.0,0.0,0.0,0.0,0.0,0.0,0.0,0.0,0.0,0.0,-1.6743,-1.672,-1.6823,-1.7168,-1.7546,-1.7799,-1.7909,-1.7462,-1.7257,-1.7368,-1.7047,-1.6835,-1.6835,-1.6845,-1.6937,-1.7073,-1.6446,-1.6281,-1.6533,-1.6047,-1.6118,-1.6638,-1.6638,-1.7195,-1.8123,-1.8277,-1.9519,-2.1368,-2.1956,-2.2197,-2.2197,-2.2197,-2.2197,-2.2197,-0.5029,-0.5078,-0.5232,-0.567,-0.5991,-0.6346,-0.6783,-0.6764,-0.6855,-0.7297,-0.7774,-0.7951,-0.7543,-0.7466,-0.7296,-0.6884,-0.6241,-0.5777,-0.5612,-0.5352,-0.5096,-0.4862,-0.4853,-0.4833,-0.4802,-0.4802,-0.4802,0.0,0.0,0.0,0.0,-0.4802,0.0,0.0,-0.4985,-0.5131,-0.5735,0.0,-0.7097,-0.7924,-0.9288,0.0,-1.1508,-1.1733,-1.208,-1.2552,-1.2969,-1.3273,-1.3495,-1.3495,-1.318,0.0,0.0,-1.1818,-1.1438,0.0,-1.1115,-1.1104,0.0,0.0,-1.0752,-1.0162,0.0,0.0,0.0,0.0,0.0,0.0,0.0,0.0,0.0,0.0,0.0,0.0,0.0,0.0,0.0,0.0,0.0,0.0,0.0,0.0,-1.5397,-1.5138,-1.5059,-1.533,-1.5569,-1.5829,-1.6127,-1.6116,-1.6223,-1.6431,-1.6414,-1.6364,-1.6301,-1.6312,-1.634,-1.6436,-1.5902,-1.5758,-1.5989,-1.5449,-1.537,-1.5633,-1.5633,-1.6056,-1.6726,-1.7053,-1.7987,-1.9291,-2.0419,-2.096,-2.1152,-2.1429,-2.1711,-2.1949,-0.4961,-0.5029,-0.5193,-0.5614,-0.6014,-0.6448,-0.6905,-0.6945,-0.7238,-0.8115,-0.8916,-0.9075,-0.8187,-0.8352,-0.8239,-0.7557,-0.692,-0.6392,0.0,0.0,0.0,-0.5049,-0.4884,-0.4839,-0.4912,-0.4839,-0.4802,0.0,0.0,0.0,-0.4802,-0.4802,-0.5194,-0.5869,0.0,0.0,0.0,0.0,0.0,-0.8463,0.0,-1.1271,-1.1329,-1.1807,-1.2183,-1.2487,-1.2634,-1.301,-1.3341,-1.2955,0.0,-1.2744,-1.234,-1.2156,0.0,0.0,0.0,0.0,0.0,0.0,0.0,0.0,0.0,-1.0144,0.0,0.0,0.0,-0.9921,0.0,0.0,0.0,0.0,0.0,0.0,0.0,0.0,0.0,0.0,0.0,0.0,0.0,0.0,0.0,-1.3551,-1.3365,-1.3632,-1.3495,-1.3744,-1.4483,-1.472,-1.5016,-1.5396,-1.5731,-1.5869,-1.5837,-1.5837,-1.5877,-1.5997,-1.5488,-1.5439,-1.571,-1.5264,-1.5098,-1.5156,-1.5186,-1.5318,-1.5524,-1.6068,-1.6507,-1.6961,-1.8627,-1.943,-1.9717,-2.0228,-2.0657,-2.1027,-0.4893,-0.4912,-0.5064,-0.553,-0.5937,-0.6376,-0.6835,-0.7154,-0.7751,-0.8909,-0.9459,-0.9961,0.0,0.0,0.0,0.0,0.0,0.0,-0.7735,0.0,0.0,-0.5866,-0.5185,-0.4967,-0.5324,-0.4976,-0.4802,0.0,0.0,0.0,0.0,-0.4802,-0.503,-0.5479,-0.575,0.0,0.0,0.0,-0.8492,0.0,-1.0326,-1.0434,0.0,-1.1283,-1.1605,-1.1733,-1.2441,-1.3185,-1.3782,0.0,-1.3222,-1.3149,0.0,-1.2386,0.0,0.0,0.0,0.0,0.0,0.0,0.0,0.0,-1.1357,0.0,0.0,0.0,-0.9513,-0.8839,0.0,0.0,0.0,0.0,0.0,0.0,0.0,0.0,0.0,0.0,0.0,0.0,0.0,0.0,0.0,-1.3134,-1.3629,-1.4803,-1.4226,-1.4387,-1.5643,-1.4809,-1.4327,-1.4377,-1.3913,-1.382,-1.4166,-1.4175,-1.441,-1.4883,-1.4824,-1.4893,-1.5088,-1.5156,-1.5127,-1.5039,-1.5156,-1.5156,-1.5076,-1.5155,-1.5115,-1.521,-1.7537,-1.8473,-1.8516,-1.8577,-1.864,-1.8664,-0.4833,-0.4873,-0.5043,-0.5516,-0.5712,-0.6029,-0.6734,-0.7922,-0.8921,-0.942,-1.0261,0.0,0.0,0.0,0.0,0.0,0.0,-0.8931,0.0,0.0,0.0,-0.6698,-0.5932,-0.5577,-0.5741,-0.5349,0.0,0.0,-0.4802,0.0,0.0,0.0,-0.5258,-0.6109,-0.627,0.0,-0.8297,0.0,0.0,0.0,0.0,0.0,0.0,-1.1366,-1.1853,-1.1899,-1.2229,-1.2716,-1.3176,0.0,-1.2955,0.0,0.0,0.0,0.0,0.0,0.0,0.0,0.0,0.0,0.0,0.0,0.0,0.0,-0.9976,0.0,-0.943,0.0,0.0,0.0,0.0,0.0,0.0,0.0,0.0,0.0,0.0,0.0,0.0,0.0,0.0,0.0,0.0,0.0,0.0,0.0,-1.2474,-1.2503,-1.3296,-1.3357,-1.3375,-1.3323,-1.3342,-1.3416,-1.3562,-1.3772,-1.4022,-1.4255,-1.4466,-1.4666,-1.4843,-1.4872,-1.4872,-1.4843,-1.4902,-1.4823,-1.4714,-1.4714,-1.4654,-1.4673,-1.5711,-1.6497,-1.7113,-1.7485,-1.7773,-1.7995,-0.4957,0.0,0.0,0.0,-0.5521,-0.6,-0.7101,-0.856,-0.9648,0.0,0.0,0.0,-1.1407,-1.114,0.0,0.0,0.0,-1.0015,0.0,0.0,-0.808,-0.7888,-0.6894,0.0,0.0,0.0,0.0,-0.4957,-0.4857,-0.4802,0.0,0.0,-0.5322,-0.6292,0.0,-0.7638,-0.9097,0.0,0.0,-0.9934,-0.9997,-1.0162,-1.0474,-1.1531,-1.2009,-1.2101,-1.2101,-1.2358,-1.267,-1.2569,-1.2597,0.0,-1.2901,0.0,0.0,0.0,0.0,0.0,-1.2101,0.0,0.0,0.0,0.0,0.0,0.0,0.0,0.0,0.0,0.0,0.0,0.0,0.0,0.0,0.0,0.0,0.0,0.0,0.0,0.0,0.0,0.0,0.0,0.0,0.0,0.0,0.0,0.0,-1.0779,-1.1645,-1.2168,-1.2471,-1.254,-1.2855,-1.3063,-1.3139,-1.3433,-1.3635,-1.3727,-1.4029,-1.4225,-1.4331,-1.4463,-1.4518,-1.4499,-1.463,-1.4606,-1.4515,-1.4515,-1.4515,-1.4515,-1.4515,-1.5001,-1.5789,-1.6218,-1.6588,-1.6911,-0.539,-0.5068,0.0,0.0,0.0,-0.6538,-0.8194,-0.882,-0.9529,0.0,0.0,0.0,0.0,0.0,0.0,0.0,0.0,-1.1678,-1.0883,0.0,-0.9225,0.0,0.0,-0.7366,0.0,0.0,-0.5787,-0.539,-0.4985,-0.4802,0.0,0.0,0.0,0.0,0.0,-0.7895,-0.9115,-0.9501,-1.0576,-1.1935,-1.1177,-1.1343,-1.1991,0.0,-1.177,-1.2101,-1.2101,0.0,0.0,-1.2248,-1.2376,0.0,0.0,0.0,0.0,0.0,0.0,0.0,0.0,0.0,0.0,-1.1063,0.0,0.0,0.0,0.0,-0.9892,0.0,0.0,0.0,0.0,0.0,-1.0008,-0.9198,0.0,0.0,0.0,0.0,0.0,0.0,0.0,0.0,0.0,0.0,0.0,0.0,0.0,0.0,-1.2077,-1.1762,-1.1706,-1.211,-1.2119,-1.2337,-1.2707,-1.2726,-1.2937,-1.3314,-1.3323,-1.3332,-1.3369,-1.3867,-1.4043,-1.3948,-1.448,-1.4606,-1.4515,-1.4515,-1.4515,-1.4515,-1.4515,-1.4524,-1.4563,-1.4593,-1.4593,-1.4611,0.0,0.0,0.0,0.0,0.0,-0.6104,-0.7951,-0.9185,0.0,0.0,0.0,0.0,0.0,0.0,-1.3111,0.0,0.0,-1.256,-1.1742,-1.1053,0.0,0.0,0.0,-0.8802,0.0,0.0,-0.6871,-0.62,-0.5525,0.0,0.0,0.0,0.0,0.0,0.0,-0.8309,0.0,0.0,0.0,0.0,0.0,-1.1366,-1.2082,0.0,0.0,-1.2101,-1.2101,-1.2183,0.0,-1.245,-1.2404,-1.2376,-1.2781,-1.2533,-1.2156,-1.2413,-1.2303,0.0,0.0,0.0,-1.2331,-1.1342,0.0,0.0,0.0,0.0,0.0,0.0,0.0,0.0,0.0,0.0,-1.0116,-0.9574,-0.905,0.0,0.0,0.0,0.0,0.0,0.0,0.0,0.0,0.0,0.0,0.0,-0.9598,0.0,0.0,-1.169,-1.1963,-1.2101,-1.2101,-1.2165,-1.2303,-1.256,-1.2762,-1.2909,-1.3158,-1.3296,-1.3305,-1.3488,-1.3553,-1.3543,-1.3967,-1.4142,-1.4121,-1.4396,-1.4515,-1.4515,-1.4515,-1.4515,-1.4515,-1.4515,-1.4515,-1.4565,-0.6242,0.0,0.0,0.0,0.0,0.0,0.0,0.0,0.0,0.0,-1.2558,0.0,-1.3461,0.0,-1.3506,0.0,-1.3506,-1.3158,-1.2367,-1.2073,0.0,-1.1329,-1.0695,0.0,0.0,0.0,-0.7983,-0.6988,0.0,-0.5999,0.0,0.0,0.0,0.0,0.0,0.0,0.0,0.0,-1.1076,0.0,0.0,-1.1632,0.0,0.0,-1.2101,-1.2101,0.0,-1.2101,-1.2138,-1.2395,-1.2312,-1.2193,-1.2726,-1.2523,-1.2174,-1.2569,-1.2413,-1.2128,-1.2275,-1.2293,0.0,-1.1405,-1.1199,0.0,-1.0046,0.0,0.0,0.0,0.0,0.0,0.0,0.0,-1.0438,-0.9753,-0.9114,-0.8352,0.0,0.0,0.0,0.0,0.0,0.0,0.0,0.0,-0.8177,-0.9041,0.0,0.0,0.0,0.0,-1.1798,-1.2092,-1.2101,-1.2101,-1.2101,-1.2358,-1.2487,-1.2487,-1.2753,-1.2855,-1.2891,-1.3029,-1.3093,-1.3121,-1.3497,-1.37,-1.3708,-1.4121,-1.4286,-1.4304,-1.4451,-1.4515,-1.4515,-1.4515,-1.4515,-1.4565,0.0,0.0,0.0,0.0,-0.6996,0.0,0.0,0.0,-1.1562,0.0,-1.2887,-1.3258,-1.3873,-1.3938,-1.3938,-1.3938,-1.3938,0.0,-1.2799,-1.2753,0.0,0.0,-1.1755,-1.1352,-1.0975,0.0,0.0,0.0,0.0,0.0,0.0,0.0,0.0,0.0,-0.6876,0.0,-0.9198,-1.0395,-1.1357,-1.2101,-1.2101,-1.2101,-1.2101,-1.2101,-1.2101,-1.2101,-1.2101,-1.2101,-1.2101,-1.2101,-1.2101,-1.2101,-1.2104,-1.207,-1.2124,-1.2518,-1.2346,-1.2127,-1.2483,-1.2217,-1.1706,-1.1178,-1.1214,0.0,0.0,0.0,-1.1089,0.0,0.0,0.0,0.0,0.0,0.0,-0.972,-0.9277,-0.8673,0.0,0.0,0.0,0.0,0.0,0.0,0.0,0.0,-0.7284,-0.8885,-0.829,0.0,0.0,0.0,-1.1269,-1.2046,-1.2092,-1.2101,-1.2101,-1.2101,-1.2101,-1.2101,-1.2101,-1.2101,-1.211,-1.2496,-1.2661,-1.2689,-1.3111,-1.3259,-1.3296,-1.3736,-1.3911,-1.3957,-1.435,-1.4515,-1.4515,-1.4515,-1.4515,-1.4515,-0.7518,-0.7858,-0.8193,0.0,-0.836,-0.8798,0.0,0.0,0.0,0.0,-1.3248,-1.3674,-1.4275,-1.435,-1.435,-1.435,-1.435,0.0,0.0,0.0,0.0,-1.2993,-1.246,-1.2061,-1.1798,-1.0419,0.0,-0.9187,0.0,0.0,-0.6848,0.0,0.0,0.0,0.0,0.0,-0.9602,-1.0502,-1.1357,-1.2101,-1.2101,-1.2101,0.0,0.0,-1.2101,-1.2101,-1.2101,-1.2101,-1.2101,-1.2101,-1.2101,-1.2072,-1.198,-1.1746,-1.1497,-1.1442,-1.1343,-1.1175,-1.1037,-1.092,-1.0767,-1.0383,-0.9961,-0.9593,0.0,0.0,0.0,0.0,0.0,0.0,0.0,0.0,0.0,0.0,-0.9459,0.0,0.0,0.0,0.0,0.0,0.0,0.0,0.0,-0.6807,-0.7229,-0.7656,-0.8361,0.0,0.0,0.0,0.0,-1.1651,-1.1945,-1.2101,-1.2101,-1.2101,-1.2101,-1.2101,-1.2101,-1.2101,-1.2101,-1.2211,-1.2248,-1.2275,-1.268,-1.2854,-1.2909,-1.3617,-1.3911,-1.3957,-1.435,-1.4515,-1.4515,-1.4515,-1.4515,-1.4515,-0.8366,0.0,0.0,-0.9744,0.0,0.0,-1.0798,0.0,0.0,-1.305,-1.343,0.0,-1.4174,-1.4405,-1.4515,-1.4515,-1.4228,0.0,0.0,0.0,0.0,-1.2802,-1.2585,-1.2378,-1.2148,-1.0971,0.0,-0.9525,0.0,0.0,-0.6874,0.0,0.0,0.0,0.0,-0.8418,0.0,-1.0873,-1.1678,-1.2101,-1.2101,0.0,0.0,-1.2101,-1.2211,-1.234,-1.2165,-1.2101,-1.2101,-1.2101,-1.1952,-1.1738,-1.167,-1.1302,-1.092,-1.0992,-1.0844,-1.0674,-1.0661,-1.0483,-1.023,-1.0066,-0.9751,-0.9471,-0.9315,-0.9413,-0.9574,0.0,-0.9974,-1.0205,0.0,0.0,0.0,0.0,0.0,0.0,0.0,0.0,0.0,0.0,0.0,0.0,-0.6151,-0.6561,-0.7013,-0.7187,-0.7702,0.0,0.0,0.0,0.0,-1.1219,-1.1798,-1.2101,-1.2101,-1.2101,-1.2101,-1.2101,-1.2101,-1.2101,-1.2101,-1.2101,-1.2101,-1.211,-1.234,-1.2432,-1.2487,-1.3111,-1.3488,-1.3709,-1.4277,-1.4515,-1.4515,-1.4515,-1.4515,-1.4515,0.0,0.0,0.0,0.0,0.0,0.0,0.0,-1.1991,0.0,-1.3167,0.0,-1.3558,-1.3769,-1.4093,-1.4291,-1.4228,0.0,-1.3186,-1.2844,-1.3122,-1.2915,-1.2121,-1.2393,-1.2397,-1.2051,-1.1484,0.0,0.0,0.0,0.0,-0.6484,0.0,0.0,0.0,0.0,0.0,0.0,-1.1255,-1.2082,-1.2174,-1.2174,-1.2174,-1.2183,-1.2239,-1.2441,-1.2652,-1.2358,-1.222,-1.2174,-1.2119,-1.1753,-1.1293,-1.1217,-1.0762,-1.035,-1.0637,-1.0491,-1.0317,-1.0607,-1.0272,-0.984,-0.9769,-0.9838,-0.9816,-0.947,-0.964,-0.9809,-0.9542,-0.9484,-0.9496,0.0,0.0,0.0,0.0,0.0,0.0,0.0,0.0,0.0,0.0,0.0,0.0,0.0,-0.6507,-0.6785,-0.7022,-0.6776,0.0,0.0,0.0,0.0,-1.0883,-1.1623,-1.2046,-1.2101,-1.2101,-1.2101,-1.2101,-1.2101,-1.2101,-1.2101,-1.2101,-1.2101,-1.2101,-1.2101,-1.2101,-1.2128,-1.2533,-1.2937,-1.3369,-1.413,-1.4433,-1.4442,-1.4488,-1.4515,-1.4515,0.0,0.0,0.0,0.0,0.0,-1.2314,-1.2154,-1.1929,-1.2104,-1.3021,-1.2964,-1.2932,-1.3136,-1.3233,-1.3143,-1.2881,-1.2634,0.0,0.0,0.0,0.0,-1.2026,-1.2174,-1.1949,-1.1229,-1.1107,-1.042,0.0,-0.8628,-0.7734,-0.6506,0.0,0.0,0.0,0.0,0.0,-1.0634,-1.132,0.0,-1.2588,-1.2588,-1.2588,-1.2625,-1.2974,-1.2937,-1.2726,-1.301,-1.2882,-1.2533,-1.2211,-1.1753,-1.1217,-1.0711,-1.0167,-0.9673,-0.93,-0.9301,-0.9357,-0.9098,-0.9025,-0.8921,-0.8585,-0.8406,-0.8271,-0.8228,-0.8253,-0.8425,-0.8837,-0.8935,-0.8984,-0.9073,0.0,0.0,0.0,0.0,0.0,0.0,0.0,0.0,0.0,0.0,0.0,0.0,0.0,-0.6858,-0.6261,0.0,0.0,0.0,0.0,0.0,0.0,-1.1357,0.0,0.0,0.0,-1.2101,-1.2101,-1.2101,-1.2101,-1.2101,-1.2101,-1.2101,-1.2101,-1.2101,-1.2101,-1.2128,-1.2533,-1.2937,-1.3341,-1.3809,-1.4021,-1.4038,-1.4387,-1.4515,-1.4515,0.0,0.0,0.0,0.0,0.0,0.0,0.0,-1.2174,0.0,-1.2547,-1.2615,-1.2627,-1.2716,-1.2936,-1.2929,-1.2617,-1.2121,-1.177,-1.1624,-1.1485,-1.1368,-1.1375,-1.1446,0.0,-1.1025,-1.0794,-1.02,-0.9195,-0.8694,-0.7883,-0.6816,-0.667,0.0,-0.6388,0.0,-0.9564,0.0,0.0,0.0,-1.2707,-1.2928,-1.302,-1.3038,-1.3213,-1.3296,-1.3323,-1.3296,-1.3296,-1.3259,-1.2863,-1.214,-1.1335,-1.1051,-1.0237,-0.9342,-0.9079,-0.8964,-0.8837,-0.8639,-0.8544,-0.8431,-0.8253,-0.8062,-0.7901,-0.7901,-0.7901,-0.7975,-0.8262,-0.8342,-0.841,-0.8641,-0.8932,0.0,0.0,0.0,0.0,0.0,0.0,0.0,0.0,0.0,0.0,0.0,0.0,0.0,0.0,0.0,0.0,0.0,0.0,0.0,0.0,0.0,0.0,0.0,0.0,-1.2101,-1.2101,-1.2101,-1.2101,-1.2101,-1.2101,-1.2101,-1.2101,-1.2101,-1.2101,-1.2128,-1.2533,-1.2808,-1.3056,-1.3672,-1.3911,-1.3966,-1.4359,-1.4515,-1.4515,0.0,-1.1339,0.0,0.0,-1.2258,0.0,-1.3051,-1.2453,-1.1977,-1.2248,-1.227,-1.2277,-1.231,-1.2565,-1.2613,-1.2327,-1.1657,-1.1133,-1.0946,-1.0807,-1.0717,-1.0616,-1.0694,-1.0705,-1.0583,-1.0536,-1.0031,0.0,-0.8835,0.0,0.0,-0.6918,-0.6921,-0.7166,0.0,0.0,0.0,0.0,-1.2716,-1.2974,-1.3314,-1.3415,-1.3433,-1.3516,-1.369,-1.3883,-1.3635,-1.3754,-1.3974,-1.3653,-1.2722,-1.1684,-1.1543,-1.06,-0.9493,-0.936,-0.9036,-0.8718,-0.8665,-0.8439,-0.8221,-0.8168,-0.8008,-0.7901,-0.7901,-0.7901,-0.7901,-0.7901,-0.7901,-0.7976,-0.8202,-0.8564,0.0,0.0,0.0,0.0,0.0,0.0,0.0,0.0,0.0,0.0,0.0,0.0,0.0,0.0,0.0,0.0,-0.6675,0.0,0.0,0.0,0.0,-1.1577,-1.1972,0.0,-1.2101,-1.2101,-1.2101,-1.2101,-1.2101,-1.2101,-1.2101,-1.2101,-1.2101,-1.2101,-1.2128,-1.2441,-1.2569,-1.2634,-1.3369,-1.3709,-1.3809,-1.4222,-1.4433,-1.4515,0.0,0.0,0.0,0.0,0.0,0.0,-1.2231,-1.2501,-1.2733,-1.2586,-1.1883,-1.1494,-1.1678,-1.1556,-1.1346,-1.1026,-1.0801,-1.0657,-1.0626,-1.0227,-0.9998,-0.9998,-1.0335,-1.0151,-0.9285,-1.0368,-1.001,0.0,0.0,-0.8498,0.0,-0.7446,-0.7981,-0.8721,-0.9652,0.0,0.0,-1.206,-1.279,-1.3801,-1.3837,-1.3827,-1.3873,-1.4258,-1.4185,-1.3928,-1.4277,-1.4423,-1.4451,-1.4414,-1.3511,-1.2289,-1.1684,-1.1069,-1.0443,-0.9834,-0.9404,-0.9081,-0.8854,-0.8592,-0.8321,-0.8008,-0.7901,-0.7901,-0.7901,-0.7901,-0.7901,-0.7901,-0.7901,-0.787,-0.7783,-0.8339,-0.8873,0.0,0.0,0.0,0.0,0.0,0.0,0.0,0.0,0.0,0.0,0.0,0.0,0.0,0.0,-0.5534,-0.7059,0.0,0.0,-1.0247,0.0,-1.1145,-1.1544,-1.1926,-1.2101,-1.2101,-1.2101,-1.2101,-1.2101,-1.2101,-1.2101,-1.2101,-1.2101,-1.2101,-1.2101,-1.2138,-1.2156,-1.2202,-1.2634,-1.3038,-1.3396,-1.38,-1.4185,-1.4515,0.0,0.0,0.0,0.0,0.0,0.0,0.0,-1.2399,-1.2148,-1.2065,-1.176,-1.1505,-1.1468,-1.1395,-1.1252,-1.0935,-1.0775,-1.0601,-1.0443,-1.023,-1.0142,-1.0142,-1.0149,-0.9951,-0.9588,-1.0126,-0.9897,0.0,0.0,0.0,0.0,-0.8583,-0.9062,-0.9821,0.0,-1.1407,-1.2111,-1.2645,-1.3147,-1.3595,-1.3429,-1.3369,-1.3386,-1.3541,-1.3566,-1.3611,-1.4174,-1.4417,-1.4515,-1.4515,-1.3894,-1.3048,-1.2793,-1.1876,-1.0902,-1.0615,-0.9995,-0.9302,-0.8916,-0.8678,-0.8421,-0.7997,-0.7901,-0.7901,-0.7901,-0.7901,-0.7901,-0.7901,-0.7901,-0.7892,-0.7836,-0.8229,-0.8523,-0.8444,0.0,0.0,0.0,0.0,0.0,0.0,0.0,0.0,0.0,0.0,0.0,0.0,0.0,-0.5395,-0.6767,-0.7033,0.0,-0.9877,0.0,-1.0899,-1.1386,-1.1777,-1.1977,-1.1977,-1.2051,-1.2101,-1.2101,-1.2101,-1.2101,-1.2101,-1.2101,-1.2101,-1.2101,-1.2101,-1.2101,-1.2138,-1.2533,-1.2799,-1.2992,-1.3378,-1.3782,-1.413,-1.1398,0.0,-1.1574,0.0,-1.2058,-1.1782,-1.2772,-1.2291,-1.1781,-1.1781,-1.1706,-1.1558,-1.1409,-1.1335,-1.1224,-1.1034,-1.0906,-1.0755,-1.0533,-1.0448,-1.0406,-1.0406,-1.0088,0.0,-0.9907,-0.9869,-0.9663,-0.9309,-0.9552,0.0,0.0,-0.9381,-0.9856,-1.062,-1.1293,-1.1825,-1.2255,-1.2854,-1.3052,-1.2966,-1.2781,-1.2696,-1.2696,-1.2696,-1.2795,-1.3017,-1.367,-1.401,-1.4169,-1.4297,-1.407,-1.37,-1.3541,-1.2603,-1.1481,-1.1269,-1.049,-0.9597,-0.9179,-0.8858,-0.8549,-0.8112,-0.7955,-0.7901,-0.7901,-0.7901,-0.7901,-0.7901,-0.7901,-0.7901,-0.7901,-0.8105,-0.821,-0.8072,0.0,0.0,0.0,0.0,0.0,0.0,0.0,-0.7996,0.0,0.0,0.0,0.0,0.0,-0.5804,-0.7086,-0.7215,0.0,0.0,0.0,0.0,-1.1244,-1.1679,-1.1902,-1.1902,-1.2051,-1.2101,-1.2101,-1.2101,-1.2101,-1.2101,-1.2101,-1.2101,-1.2101,-1.2101,-1.2101,-1.2128,-1.2404,-1.2588,-1.2726,-1.3029,-1.3396,-1.3708,-1.152,-1.175,-1.1986,-1.2245,-1.2298,-1.2291,-1.2298,-1.212,-1.2003,-1.2003,-1.1632,-1.1409,-1.1409,-1.1223,-1.1105,-1.1105,-1.1105,-1.1105,-1.1099,-1.0821,-1.0719,0.0,0.0,-0.9907,-0.9907,-0.9648,-0.9372,-0.9089,0.0,0.0,-0.9005,-0.9549,-1.023,-1.1009,-1.1415,-1.1825,-1.2209,-1.2364,-1.2262,-1.2004,-1.2012,-1.2012,-1.2012,-1.2012,-1.2012,-1.2104,-1.2787,-1.3139,-1.339,-1.3851,-1.4139,-1.4207,-1.367,-1.3039,-1.2351,-1.1694,-1.0828,-1.0023,-0.9755,-0.9249,-0.8726,-0.8369,-0.8093,-0.7901,-0.7901,-0.7901,-0.7901,-0.7901,-0.7901,-0.7901,-0.7901,-0.7901,-0.8016,-0.8346,0.0,0.0,0.0,0.0,0.0,0.0,-0.7772,-0.7758,-0.8153,0.0,0.0,0.0,0.0,0.0,-0.8399,0.0,0.0,-1.0038,-1.073,0.0,-1.111,-1.163,-1.1902,-1.1902,-1.2051,-1.2101,-1.2101,-1.2101,-1.2101,-1.2101,-1.2101,-1.2101,-1.2101,-1.2101,-1.2101,-1.2101,-1.211,-1.2349,-1.2689,-1.2698,-1.2964,-1.3305,-1.1627,-1.1726,-1.1853,-1.2106,-1.2027,-1.1926,-1.1936,-1.1877,-1.1706,-1.1409,-1.1409,-1.1335,-1.1223,-1.1149,-1.1111,0.0,-1.1111,-1.1111,0.0,-1.1033,-1.0985,-1.0985,-1.0617,-1.0436,-1.0436,-1.0178,-0.9913,-0.9648,0.0,0.0,0.0,-1.013,-1.0479,-1.1016,-1.1114,-1.1405,-1.1737,-1.1768,-1.1729,-1.1609,-1.1156,-1.0975,-1.0975,-1.0975,-1.1062,-1.1267,-1.1958,-1.2297,-1.2451,-1.2726,-1.2795,-1.2734,-1.2704,-1.2528,-1.2351,-1.2212,-1.1348,-1.0343,-0.9936,-0.9633,-0.9277,-0.8664,-0.8336,-0.8117,-0.7943,-0.7901,-0.7901,-0.7901,-0.7901,-0.7901,-0.7901,-0.7901,-0.7925,-0.8044,-0.7974,0.0,0.0,0.0,0.0,0.0,0.0,-0.7704,0.0,-0.7388,0.0,0.0,0.0,0.0,0.0,0.0,0.0,0.0,-1.0379,0.0,-1.0959,-1.1409,-1.1669,-1.1778,-1.1902,-1.2002,-1.2101,-1.2101,-1.2101,-1.2101,-1.2101,-1.2101,-1.2101,-1.2101,-1.2101,-1.2101,-1.2101,-1.2174,-1.2285,-1.2285,-1.2542,-1.2891,-1.1872,-1.1954,-1.205,-1.2233,-1.2113,-1.2011,-1.2039,-1.1953,-1.1834,-1.1649,-1.1519,-1.1419,-1.1382,-1.1209,0.0,-1.1111,-1.1037,-1.0999,-1.0999,-1.0999,-1.0999,-1.0999,-1.0785,-1.0683,-1.0683,-1.043,0.0,-1.0051,-1.0175,-1.0199,-1.0208,-1.0124,-1.0328,-1.0819,-1.0819,-1.0918,-1.1118,-1.1118,-1.0968,-1.0717,-1.0295,-1.011,-1.011,-1.011,-1.0199,-1.0408,-1.1062,-1.1399,-1.1609,-1.1888,-1.1981,-1.195,-1.2081,-1.1942,-1.1771,-1.1996,-1.1358,-1.0521,-1.0155,-0.9876,-0.9538,-0.8924,-0.8532,-0.8219,-0.7961,-0.7901,-0.7901,-0.7901,-0.7901,-0.7901,-0.7901,-0.7901,-0.7901,-0.7901,-0.7844,-0.7707,-0.7486,0.0,0.0,0.0,0.0,0.0,0.0,-0.7597,-0.7874,0.0,0.0,0.0,0.0,0.0,0.0,-0.9865,-1.0347,-1.0729,-1.1056,-1.1355,-1.1578,-1.1703,-1.1902,-1.2026,-1.2101,-1.2101,-1.2101,-1.2101,-1.2101,-1.2101,-1.2101,-1.2101,-1.1977,-1.1828,-1.2026,-1.1843,-1.1501,-1.1719,-1.1955,-1.2161,-1.216,-1.232,-1.2445,0.0,-1.2452,-1.2445,-1.2464,-1.2292,-1.224,-1.2439,-1.1905,-1.1597,-1.1791,-1.1437,-1.116,-1.1141,0.0,0.0,-1.0812,-1.0775,-1.0775,-1.0812,-1.073,-1.0713,-1.0749,-1.0472,-1.034,-1.0322,-1.0063,-0.9931,-0.9925,-0.9684,-0.9886,-1.0481,-1.0461,-1.0454,-1.0454,-1.0454,-1.0111,-0.9546,-0.9558,-0.957,-0.957,-0.9546,-0.954,-0.9604,-1.0212,-1.0541,-1.0773,-1.1236,-1.1485,-1.1648,-1.1648,-1.1226,-1.0807,-1.1178,-1.0933,-1.053,-1.0339,-0.9994,-0.9602,-0.9107,-0.8636,-0.8201,-0.7955,-0.7901,-0.7901,-0.7901,-0.7901,-0.7901,-0.7901,-0.7901,-0.7901,-0.7901,-0.7725,-0.7504,-0.7236,0.0,0.0,0.0,0.0,0.0,-0.7308,-0.7717,-0.808,0.0,0.0,0.0,0.0,0.0,-0.9052,-1.0709,-1.0498,-1.06,-1.1167,-1.1318,-1.1444,-1.1569,-1.1819,-1.1968,-1.1977,-1.1977,-1.1977,-1.1977,-1.1977,-1.1968,-1.1943,-1.1943,-1.1669,-1.1267,-1.1769,-1.1301,-1.044,-1.1006,-1.1217,-1.1217,0.0,0.0,-1.2107,-1.2308,-1.2174,-1.2107,-1.2314,-1.2134,-1.2,-1.204,-1.1906,-1.183,-1.1869,-1.1769,-1.1648,-1.1411,-1.1049,-1.0812,-1.0812,-1.0663,-1.0625,-1.0775,-1.0791,-1.0836,-1.0984,-1.096,-1.0828,-1.0593,-1.0328,-1.0202,-1.0202,-1.0142,-1.0214,-1.0337,-1.0128,-1.0036,-1.0036,-1.0036,-0.9943,-0.9829,-1.0027,-1.0112,-1.0088,-0.9889,-0.9817,-0.9787,-0.9744,-0.976,-0.9856,-1.0104,-1.0136,-1.0072,-1.0231,-1.0174,-1.0174,-1.0874,-1.0629,-1.0149,-1.0079,-0.9913,-0.965,-0.9127,-0.8502,-0.7973,-0.7913,-0.7901,-0.7901,-0.7901,-0.7901,-0.7901,-0.7901,-0.7901,-0.7901,-0.7901,-0.7725,-0.7504,-0.7236,-0.7151,0.0,0.0,-0.7277,-0.7493,-0.7236,-0.7646,-0.781,0.0,0.0,0.0,-0.8606,-0.8358,-0.8608,-0.9435,-0.9675,-0.9847,-1.0002,-1.0028,-1.0131,-1.0251,-1.0431,-1.055,-1.0652,-1.0652,-1.0652,-1.0652,-1.0652,-1.0576,-1.0507,-1.0507,-1.0423,-1.0328,-1.0456,-1.032,-1.0115,-1.0251,-1.0379,-1.0456,-1.2282,-1.2282,-1.2324,-1.2469,-1.2373,-1.2324,-1.2469,-1.2373,-1.2282,-1.2282,-1.2261,-1.2223,-1.2101,-1.2073,-1.1985,-1.1721,-1.1153,-1.0796,-1.0674,-1.0481,-1.0406,-1.0513,-1.07,-1.085,-1.0962,-1.1037,-1.1045,-1.0863,-1.0527,-1.0402,-1.0472,-1.0352,-1.0292,-1.0286,-1.0148,-1.0081,-1.0081,-1.0081,-1.0081,-1.01,-1.0238,-1.0292,-1.028,-1.0136,-1.0081,-1.0063,-0.9919,-0.9871,-0.9853,-0.9864,-0.9762,-0.9672,-0.9681,-0.9676,-0.9734,-1.0193,-1.0168,-0.9983,-0.9983,-0.9894,-0.9636,-0.9021,-0.846,-0.8045,-0.7925,-0.7901,-0.7901,-0.7901,-0.7901,-0.7901,-0.7901,-0.7901,-0.7859,-0.7786,-0.7667,-0.7504,-0.7236,-0.72,0.0,-0.717,-0.7419,-0.7589,-0.752,-0.776,-0.78,-0.7579,-0.7873,0.0,-0.8224,-0.8114,-0.8441,-0.9242,-0.9261,-0.9354,-0.9588,-0.9666,-0.9744,-0.9814,-0.9935,-1.0038,-1.0115,-1.0115,-1.0115,-1.0115,-1.0115,-1.0064,-0.9987,-0.9987,-0.9865,-0.9666,-0.9917,-0.971,-0.9295,-0.9536,-0.9692,-0.9736,-1.2705,-1.2705,-1.2705,-1.2705,-1.2705,-1.2705,-1.2705,-1.2705,-1.2705,-1.2705,-1.2686,-1.2628,-1.2373,-1.2343,-1.223,-1.1986,-1.1425,-1.0934,-1.0593,-1.0315,-1.0218,-1.0218,-1.055,-1.0775,-1.0812,-1.0999,-1.1111,-1.1111,-1.0705,-1.0598,-1.0773,-1.0515,-1.0412,-1.0412,-1.037,-1.0352,-1.0352,-1.0352,-1.0352,-1.0358,-1.0394,-1.0412,-1.0406,-1.037,-1.0352,-1.0352,-1.031,-1.0292,-1.0256,-0.9991,-0.9907,-0.9859,-0.9594,-0.9516,-0.9516,-0.9516,-0.9702,-0.9919,-0.9919,-0.9799,-0.9518,-0.886,-0.8512,-0.8219,-0.7961,-0.7901,-0.7901,-0.7901,-0.7901,-0.7901,-0.7901,-0.7901,-0.7838,-0.7638,-0.7595,-0.7504,-0.7236,0.0,-0.734,-0.7571,-0.7631,-0.7727,-0.7877,-0.7901,-0.7901,-0.7901,-0.7901,-0.7901,-0.7901,-0.7901,-0.8342,-0.9302,-0.8909,-0.8883,-0.9328,-0.9458,-0.9503,-0.9503,-0.9633,-0.971,-0.9736,-0.9736,-0.9736,-0.9736,-0.9736,-0.971,-0.9684,-0.9684,-0.9406,-0.9054,-0.9503,-0.9119,-0.8374,-0.8844,-0.9028,-0.9054,-1.2705,-1.2705,-1.2705,-1.2705,-1.2705,-1.2705,-1.2705,-1.2705,-1.2705,-1.2705,-1.2711,-1.2687,-1.2644,-1.265,-1.2535,-1.227,-1.1969,-1.1543,-1.0878,-1.0454,-1.0218,-1.0218,-1.0406,-1.0625,-1.0812,-1.0999,-1.1111,-1.1111,-1.1032,-1.1014,-1.1051,-1.1009,-1.0991,-1.0979,-1.0725,-1.0623,-1.0623,-1.0623,-1.0623,-1.0641,-1.0863,-1.0991,-1.0966,-1.0707,-1.0623,-1.0593,-1.037,-1.0292,-1.0256,-0.9991,-0.9907,-0.9859,-0.9594,-0.9516,-0.9516,-0.9516,-0.9548,-0.958,-0.958,-0.9405,-0.912,-0.8782,-0.8512,-0.8219,-0.7961,-0.7901,-0.7901,-0.7901,-0.7901,-0.7901,-0.7901,-0.7901,-0.7838,-0.7638,-0.7595,-0.7504,-0.7236,0.0,-0.7546,-0.7589,-0.775,-0.7853,-0.7895,-0.7901,-0.7901,-0.7901,-0.7901,-0.7901,-0.7901,-0.7901,-0.7981,-0.8162,-0.8082,-0.8082,-0.8162,-0.8189,-0.8189,-0.8189,-0.8215,-0.8315,-0.848,-0.848,-0.848,-0.848,-0.848,-0.8374,-0.8235,-0.8235,-0.8189,-0.8109,-0.8189,-0.8135,-0.7981,-0.8082,-0.8221,-0.8354,-1.2705,-1.2705,-1.2705,-1.2705,-1.2705,-1.2705,-1.2705,-1.2705,-1.2705,-1.2705,-1.2833,-1.2875,-1.2705,-1.2833,-1.2826,-1.2536,-1.2189,-1.1747,-1.1135,-1.0667,-1.0318,-1.0035,-1.0331,-1.0625,-1.0962,-1.0962,-1.0999,-1.1111,-1.0999,-1.0999,-1.1111,-1.1111,-1.1111,-1.1105,-1.0985,-1.093,-1.093,-1.093,-1.093,-1.0942,-1.1063,-1.1111,-1.1099,-1.0979,-1.093,-1.0918,-1.0797,-1.0713,-1.0677,-1.0412,-1.0232,-1.0069,-0.9805,-0.963,-0.9516,-0.9516,-0.9516,-0.9516,-0.9516,-0.942,-0.9257,-0.8987,-0.8722,-0.8429,-0.8171,-0.8003,-0.7901,-0.7901,-0.7901,-0.7901,-0.7901,-0.7901,-0.7838,-0.7638,-0.7691,-0.7671,-0.7449,-0.7618,-0.7768,-0.7768,-0.785,-0.7901,-0.7901,-0.7901,-0.7901,-0.7901,-0.7901,-0.7901,-0.7901,-0.7901,-0.7901,-0.7901,-0.7901,-0.7901,-0.7901,-0.7901,-0.7901,-0.7901,-0.7901,-0.7955,-0.8035,-0.8035,-0.8035,-0.8035,-0.8035,-0.7981,-0.7901,-0.7901,-0.7901,-0.7901,-0.7901,-0.7901,-0.7901,-0.7901,-0.7955,-0.8035,-1.2705,-1.2705,-1.2705,-1.2705,-1.2705,-1.2705,-1.2705,-1.2705,-1.2705,-1.2705,-1.2881,-1.2924,-1.2705,-1.2875,-1.2918,-1.2705,-1.2313,-1.1857,-1.1341,-1.0937,-1.0456,-0.9933,-1.0255,-1.0594,-1.0962,-1.085,-1.0887,-1.1037,-1.0925,-1.0962,-1.1111,-1.1111,-1.1111,-1.1111,-1.1111,-1.1111,-1.1111,-1.1111,-1.1111,-1.1111,-1.1111,-1.1111,-1.1111,-1.1111,-1.1111,-1.1111,-1.1111,-1.1111,-1.1069,-1.0773,-1.0551,-1.0328,-1.0003,-0.9769,-0.9594,-0.9534,-0.9516,-0.9516,-0.9516,-0.9516,-0.945,-0.9167,-0.8945,-0.8716,-0.8363,-0.8135,-0.7973,-0.7913,-0.7901,-0.7901,-0.7901,-0.7901,-0.7838,-0.7638,0.0,-0.7832,-0.7631,-0.778,-0.7901,-0.7901,-0.7901,-0.7901,-0.7901,-0.7901,-0.7901,-0.7901,-0.7901,-0.7901,-0.7901,-0.7901,-0.7901,-0.7901,-0.7901,-0.7901,-0.7901,-0.7901,-0.7901,-0.7901,-0.7901,-0.7901,-0.7901,-0.7901,-0.7901,-0.7901,-0.7901,-0.7901,-0.7901,-0.7901,-0.7901,-0.7901,-0.7901,-0.7901,-0.7901,-0.7901,-0.7901,-0.7901,-1.2705,-1.2705,-1.2705,-1.2705,-1.2705,-1.2705,-1.2705,-1.2705,-1.2705,-1.2705,-1.2705,-1.2705,-1.2705,-1.2705,-1.2705,-1.2705,-1.2516,-1.2086,-1.1358,-1.1106,-1.0638,-0.9938,-1.0105,-1.0331,-1.0556,-1.07,-1.0812,-1.0812,-1.0999,-1.1074,-1.1111,-1.1111,-1.1111,-1.1111,-1.1111,-1.1111,-1.1111,-1.1111,-1.1111,-1.1111,-1.1111,-1.1111,-1.1111,-1.1111,-1.1111,-1.1111,-1.1111,-1.1111,-1.1069,-1.0773,-1.0707,-1.0569,-1.0063,-0.9895,-0.9829,-0.9588,-0.9516,-0.9516,-0.9516,-0.9516,-0.945,-0.9167,-0.9083,-0.8939,-0.8433,-0.8273,-0.8195,-0.7949,-0.7901,-0.7901,-0.7901,-0.7901,-0.7838,-0.7638,0.0,0.0,-0.7631,-0.778,-0.7901,-0.7901,-0.7901,-0.7901,-0.7901,-0.7901,-0.7901,-0.7901,-0.7901,-0.7901,-0.7901,-0.7901,-0.7901,-0.7901,-0.7901,-0.7901,-0.7901,-0.7901,-0.7901,-0.7901,-0.7901,-0.7901,-0.7901,-0.7901,-0.7901,-0.7901,-0.7901,-0.7901,-0.7901,-0.7901,-0.7901,-0.7901,-0.7901,-0.7901,-0.7901,-0.7901,-0.7901,-0.7901,-1.2577,-1.2705,-1.2705,-1.2705,-1.2705,-1.2705,-1.2705,-1.2705,-1.2705,-1.2705,-1.2705,-1.2705,-1.2705,-1.2705,-1.2705,-1.2705,-1.2369,-1.1974,-1.1576,-1.1183,-1.0734,-1.0095,-1.0143,-1.0293,-1.0513,-1.07,-1.0812,-1.0812,-1.0999,-1.1111,-1.1111,-1.1111,-1.1111,-1.1111,-1.1111,-1.1111,-1.1111,-1.1111,-1.1111,-1.1111,-1.1111,-1.1111,-1.1111,-1.1111,-1.1111,-1.1111,-1.1111,-1.1111,-1.1093,-1.0997,-1.0852,-1.0647,-1.0448,-1.0166,-0.9853,-0.9594,-0.9516,-0.9516,-0.9516,-0.9516,-0.9492,-0.9384,-0.9227,-0.9005,-0.8644,-0.8405,-0.8213,-0.7955,-0.7901,-0.7901,-0.7901,-0.7901,-0.7865,-0.779,0.0,-0.7865,-0.7784,-0.7862,-0.7901,-0.7901,-0.7901,-0.7901,-0.7901,-0.7901,-0.7901,-0.7901,-0.7901,-0.7901,-0.7901,-0.7901,-0.7901,-0.7901,-0.7901,-0.7901,-0.7901,-0.7901,-0.7901,-0.7901,-0.7901,-0.7901,-0.7901,-0.7901,-0.7901,-0.7901,-0.7901,-0.7901,-0.7901,-0.7901,-0.7901,-0.7901,-0.7901,-0.7901,-0.7901,-0.7901,-0.7901,-0.7901,-1.2528,-1.2705,-1.2705,-1.2705,-1.2705,-1.2705,-1.2705,-1.2705,-1.2705,-1.2705,-1.2705,-1.2705,-1.2705,-1.2705,-1.2662,-1.2619,-1.2246,-1.1886,-1.1583,-1.112,-1.0662,-1.0253,-1.0149,-1.018,-1.0331,-1.0519,-1.0625,-1.0625,-1.0812,-1.0925,-1.0925,-1.0962,-1.0999,-1.0999,-1.1074,-1.1074,-1.0999,-1.0999,-1.0999,-1.0999,-1.0999,-1.1037,-1.1111,-1.1111,-1.1111,-1.1111,-1.1111,-1.1111,-1.1111,-1.1111,-1.0991,-1.0828,-1.0749,-1.0328,-0.9853,-0.9594,-0.9516,-0.9516,-0.9516,-0.9516,-0.9516,-0.9516,-0.9372,-0.9155,-0.889,-0.8626,-0.8339,-0.8075,-0.7961,-0.7901,-0.7901,-0.7901,-0.7875,-0.7842,-0.7875,-0.7875,-0.7794,-0.7815,-0.7815,-0.7794,-0.7762,-0.7762,-0.7762,-0.7815,-0.7842,-0.7842,-0.7875,-0.7901,-0.7901,-0.7901,-0.7901,-0.7901,-0.7901,-0.7901,-0.7901,-0.7901,-0.7901,-0.7901,-0.7901,-0.7901,-0.7901,-0.7901,-0.7901,-0.7901,-0.7901,-0.7901,-0.7901,-0.7901,-0.7901,-0.7901,-0.7901,-0.7901,-0.7901,-0.7901,-0.7901,-0.7901,-1.2491,-1.2705,-1.2705,-1.2705,-1.2705,-1.2705,-1.2705,-1.2705,-1.2705,-1.2705,-1.2705,-1.2705,-1.2705,-1.2705,-1.2619,-1.2406,-1.216,-1.1801,-1.1333,-1.0849,-1.0495,-1.0304,-1.0056,-0.9884,-0.9884,-1.0105,-1.0218,-1.0218,-1.04,-1.0513,-1.0519,-1.07,-1.0812,-1.0812,-1.0999,-1.0999,-1.0812,-1.0812,-1.0812,-1.0812,-1.0812,-1.0925,-1.1111,-1.1111,-1.1111,-1.1111,-1.1111,-1.1111,-1.1111,-1.1111,-1.1111,-1.1026,-1.0761,-1.0322,-0.982,-0.9562,-0.9484,-0.9484,-0.9484,-0.9484,-0.9484,-0.9484,-0.9516,-0.9444,-0.9161,-0.8896,-0.8638,-0.8345,-0.8087,-0.7907,-0.7901,-0.7901,-0.7842,-0.7723,-0.7815,-0.7788,-0.7547,-0.7622,-0.7649,-0.7515,-0.7494,-0.7494,-0.7494,-0.7616,-0.7696,-0.7696,-0.7815,-0.7875,-0.7901,-0.7901,-0.7901,-0.7901,-0.7901,-0.7901,-0.7901,-0.7901,-0.7901,-0.7901,-0.7901,-0.7901,-0.7901,-0.7901,-0.7901,-0.7901,-0.7901,-0.7901,-0.7901,-0.7901,-0.7901,-0.7901,-0.7901,-0.7901,-0.7901,-0.7901,-0.7901,-0.7901,-1.1537,-1.2229,-1.2705,-1.2705,-1.2705,-1.2705,-1.2705,-1.2705,-1.2705,-1.2705,-1.2705,-1.2705,-1.2705,-1.2705,-1.2619,-1.2406,-1.216,-1.1794,-1.1332,-1.1057,-1.0778,-1.0506,-1.0309,-1.01,-0.9922,-1.0105,-1.0218,-1.0218,-1.04,-1.0556,-1.07,-1.0775,-1.0812,-1.0812,-1.085,-1.0775,-1.0594,-1.0738,-1.07,-1.0625,-1.0887,-1.0962,-1.0887,-1.0887,-1.0962,-1.1074,-1.0925,-1.0962,-1.1111,-1.1111,-1.07,-1.0108,-0.9186,-0.8755,-0.8571,-0.8154,-0.8042,-0.8042,-0.8042,-0.8042,-0.8269,-0.9253,-0.9516,-0.9444,-0.9161,-0.9035,-0.8854,-0.8381,-0.8147,-0.7986,-0.7791,-0.7681,-0.7601,-0.7568,-0.7601,-0.7601,-0.7521,-0.7542,-0.7381,-0.6918,-0.6864,-0.6729,-0.6344,-0.6344,-0.6367,-0.6367,-0.6502,-0.661,-0.6696,-0.6696,-0.6891,-0.7327,-0.7327,-0.7521,-0.7901,-0.7901,-0.7901,-0.7901,-0.7901,-0.7901,-0.7901,-0.7901,-0.7901,-0.7901,-0.7901,-0.7901,-0.7901,-0.7901,-0.7901,-0.7901,-0.7901,-0.7901,-0.7901,-0.7901,-0.7901,-0.7901,-1.0534,-1.1187,-1.1574,-1.1574,-1.188,-1.2143,-1.2143,-1.2448,-1.2705,-1.2705,-1.2705,-1.2705,-1.2705,-1.2705,-1.2577,-1.2283,-1.1909,-1.1607,-1.1305,-1.1117,-1.088,-1.0608,-1.0417,-1.0175,-0.9889,-1.003,-1.0067,-1.0067,-1.0218,-1.0331,-1.0443,-1.0625,-1.0663,-1.0663,-1.0775,-1.07,-1.0513,-1.0556,-1.0475,-1.04,-1.0663,-1.07,-1.0663,-1.0663,-1.0775,-1.085,-1.07,-1.0812,-1.0962,-1.0962,-1.0513,-0.9686,-0.8463,-0.8115,-0.7995,-0.7541,-0.7386,-0.7386,-0.7386,-0.7386,-0.7614,-0.8468,-0.8888,-0.9073,-0.8911,-0.8734,-0.8421,-0.7828,-0.7656,-0.7538,-0.7384,-0.7415,-0.7408,-0.7106,-0.7106,-0.7025,-0.6669,-0.6664,-0.6556,-0.6127,-0.6095,-0.5959,-0.5637,-0.566,-0.5714,-0.58,-0.5878,-0.5959,-0.6046,-0.6046,-0.6209,-0.6566,-0.6593,-0.6756,-0.716,-0.7106,-0.7354,-0.7901,-0.7901,-0.7901,-0.7901,-0.7901,-0.7901,-0.7901,-0.7901,-0.7901,-0.7901,-0.7901,-0.7901,-0.7901,-0.7901,-0.7901,-0.7901,-0.7901,-0.7901,-0.7901,-0.9531,-0.9836,-0.9879,-0.9879,-1.0626,-1.1149,-1.1149,-1.1966,-1.2577,-1.2577,-1.2662,-1.2705,-1.2705,-1.2705,-1.2497,-1.2037,-1.1564,-1.1305,-1.1305,-1.1117,-1.088,-1.0608,-1.0417,-1.0175,-0.9889,-0.9884,-0.9884,-0.9884,-0.9884,-0.9922,-0.9922,-1.0293,-1.0481,-1.0481,-1.0663,-1.0625,-1.0443,-1.0255,-1.018,-1.018,-1.0218,-1.0331,-1.0481,-1.0481,-1.0513,-1.0513,-1.0475,-1.0625,-1.0812,-1.0663,-1.0175,-0.9461,-0.8267,-0.7931,-0.7812,-0.7336,-0.7218,-0.7246,-0.7195,-0.7223,-0.7223,-0.7288,-0.7804,-0.8296,-0.8393,-0.8059,-0.7555,-0.6921,-0.6777,-0.674,-0.6701,-0.7036,-0.7106,-0.6421,-0.6394,-0.6204,-0.5414,-0.541,-0.541,-0.525,-0.5226,-0.5195,-0.514,-0.5246,-0.541,-0.5609,-0.5609,-0.5637,-0.5637,-0.5637,-0.5664,-0.5719,-0.5719,-0.5796,-0.5982,-0.585,-0.6453,-0.7735,-0.7708,-0.7735,-0.7794,-0.7788,-0.7848,-0.7875,-0.7901,-0.7901,-0.7901,-0.7901,-0.7901,-0.7901,-0.7901,-0.7901,-0.7901,-0.7901,-0.7901,-0.7901,-0.8528,-0.9266,-0.9879,-0.9879,-1.0053,-1.0183,-1.0183,-1.1015,-1.158,-1.158,-1.2229,-1.2705,-1.2705,-1.2705,-1.2497,-1.2037,-1.1564,-1.1305,-1.1305,-1.1117,-1.088,-1.0608,-1.0417,-1.0175,-0.9889,-0.9884,-0.9884,-0.9884,-0.9884,-0.9992,-1.0143,-1.0218,-1.0255,-1.0255,-1.0331,-1.0218,-1.003,-1.0143,-1.0105,-0.9992,-1.0331,-1.0368,-1.0255,-1.0255,-1.0475,-1.07,-1.0368,-1.0594,-1.085,-0.9571,-0.8542,-0.7622,-0.6741,-0.6456,-0.6357,-0.5894,-0.5874,-0.5916,-0.5682,-0.5716,-0.5951,-0.6498,-0.6629,-0.6793,-0.7484,-0.7474,-0.7232,-0.6885,-0.6599,-0.6324,-0.5996,-0.5938,-0.5836,-0.5576,-0.555,-0.5523,-0.5332,-0.5332,-0.5167,-0.4736,-0.468,-0.4491,-0.4024,-0.3993,-0.4076,-0.4208,-0.4236,-0.4291,-0.4377,-0.4377,-0.4598,-0.5089,-0.5089,-0.5336,-0.5823,-0.5828,-0.6014,-0.6416,-0.6317,-0.648,-0.6885,-0.7047,-0.7343,-0.7756,-0.7842,-0.7901,-0.7901,-0.7901,-0.7901,-0.7901,-0.7901,-0.7901,-0.7901,-0.7901,-0.7901,-0.7901,-0.7485,-0.8097,-0.8575,-0.8575,-0.8925,-0.9231,-0.9231,-1.0014,-1.0621,-1.0621,-1.1052,-1.1354,-1.1354,-1.1268,-1.1015,-1.0549,-1.0603,-1.0646,-1.0646,-1.0758,-1.0762,-1.0603,-1.026,-1.0056,-0.9884,-0.9884,-0.9884,-0.9884,-0.9884,-0.9954,-1.0067,-1.0143,-1.0218,-1.0218,-1.0218,-1.0143,-1.003,-1.0067,-0.9992,-0.9916,-1.0143,-1.0143,-1.0067,-1.0067,-1.018,-1.0331,-1.0143,-1.0062,-0.9943,-0.8808,-0.7817,-0.6908,-0.5999,-0.5766,-0.5781,-0.5422,-0.5448,-0.5555,-0.5299,-0.5326,-0.5491,-0.5848,-0.5848,-0.5947,-0.6634,-0.6597,-0.6306,-0.5858,-0.5715,-0.5606,-0.5404,-0.5424,-0.5375,-0.5031,-0.4949,-0.4818,-0.4543,-0.4487,-0.438,-0.4107,-0.4079,-0.3941,-0.3638,-0.3613,-0.3638,-0.3691,-0.3719,-0.3747,-0.3805,-0.3805,-0.3941,-0.427,-0.427,-0.446,-0.4838,-0.4787,-0.4814,-0.4944,-0.5523,-0.5937,-0.6236,-0.6583,-0.6912,-0.7182,-0.7547,-0.7708,-0.7708,-0.7708,-0.7708,-0.7708,-0.7708,-0.7708,-0.7708,-0.7708,-0.7762,-0.7815,-0.6704,-0.6925,-0.7051,-0.7095,-0.7753,-0.8281,-0.8281,-0.9056,-0.9662,-0.9618,-0.9792,-0.9874,-0.9788,-0.9623,-0.9323,-0.8934,-0.9375,-0.968,-0.968,-0.9971,-1.0141,-1.0141,-0.9743,-0.9496,-0.9496,-0.9496,-0.9614,-0.9884,-0.9884,-0.9884,-0.9922,-1.0067,-1.0143,-1.0143,-1.0143,-1.0143,-1.0143,-0.9841,-0.969,-0.969,-0.9539,-0.9496,-0.9496,-0.9652,-0.9728,-0.9765,-0.9884,-0.9382,-0.8656,-0.8084,-0.7318,-0.6493,-0.5689,-0.5576,-0.5665,-0.5387,-0.5414,-0.5555,-0.5376,-0.5359,-0.5359,-0.5395,-0.5362,-0.5458,-0.5782,-0.565,-0.5286,-0.4725,-0.4736,-0.4871,-0.4849,-0.5077,-0.5093,-0.4549,-0.4412,-0.4188,-0.3669,-0.3613,-0.3613,-0.3613,-0.3613,-0.3613,-0.3613,-0.3613,-0.3613,-0.3613,-0.3613,-0.3613,-0.3613,-0.3613,-0.3613,-0.3613,-0.3613,-0.3663,-0.3771,-0.3663,-0.3663,-0.3769,-0.4897,-0.5473,-0.5582,-0.6068,-0.6312,-0.6448,-0.7079,-0.73,-0.7219,-0.73,-0.7354,-0.7354,-0.7354,-0.7408,-0.7494,-0.7521,-0.7595,-0.7723,-0.6432,-0.6656,-0.6881,-0.7051,-0.7183,-0.7272,-0.7272,-0.8101,-0.8627,-0.8444,-0.9266,-0.9744,-0.9344,-0.91,-0.8978,-0.889,-0.8763,-0.8675,-0.8675,-0.8493,-0.8365,-0.8365,-0.8008,-0.7808,-0.7808,-0.7808,-0.8499,-0.9884,-0.9884,-0.9884,-0.9922,-0.9922,-0.996,-0.996,-0.996,-0.996,-0.9884,-0.916,-0.8856,-0.8813,-0.8118,-0.7808,-0.7884,-0.858,-0.8965,-0.9193,-0.9728,-0.896,-0.7655,-0.7203,-0.636,-0.5509,-0.5574,-0.5722,-0.5778,-0.5352,-0.5347,-0.547,-0.5195,-0.5156,-0.519,-0.5359,-0.5259,-0.5123,-0.4994,-0.4927,-0.4861,-0.4628,-0.4483,-0.4375,-0.4231,-0.4247,-0.4216,-0.3966,-0.3914,-0.3837,-0.3627,-0.3613,-0.3613,-0.3613,-0.3613,-0.3613,-0.3613,-0.3613,-0.3613,-0.3613,-0.3613,-0.3613,-0.3613,-0.3613,-0.3613,-0.3613,-0.3613,-0.3613,-0.3638,-0.3613,-0.3613,-0.3638,-0.3805,-0.4159,-0.468,-0.4866,-0.5218,-0.5678,-0.6421,-0.6453,-0.6073,-0.6534,-0.6723,-0.6723,-0.6723,-0.7052,-0.7515,-0.7616,-0.7696,-0.7723,-0.6387,-0.6697,-0.701,-0.7098,-0.7095,-0.7095,-0.7095,-0.7363,-0.7536,-0.7445,-0.7746,-0.787,-0.765,-0.7438,-0.7268,-0.7139,-0.7492,-0.7709,-0.7709,-0.7904,-0.7992,-0.7992,-0.769,-0.7502,-0.7502,-0.7502,-0.7846,-0.8575,-0.8575,-0.8808,-0.9236,-0.8765,-0.8808,-0.9198,-0.877,-0.8575,-0.8537,-0.8194,-0.8042,-0.8003,-0.7655,-0.7502,-0.754,-0.7889,-0.808,-0.819,-0.8461,-0.777,-0.6738,-0.6549,-0.5899,-0.5132,-0.5249,-0.5351,-0.5403,-0.5104,-0.514,-0.5215,-0.498,-0.5024,-0.512,-0.5223,-0.5156,-0.5057,-0.4861,-0.4728,-0.4628,-0.4464,-0.4367,-0.4284,-0.423,-0.4164,-0.4083,-0.3974,-0.3898,-0.3814,-0.3723,-0.3706,-0.3682,-0.3619,-0.3613,-0.3613,-0.3613,-0.3613,-0.3613,-0.3613,-0.3613,-0.3613,-0.3613,-0.3613,-0.3613,-0.3613,-0.3613,-0.3613,-0.3613,-0.3613,-0.3613,-0.3613,-0.3613,-0.3749,-0.4024,-0.4405,-0.4732,-0.4976,-0.5605,-0.5741,-0.5527,-0.5769,-0.5878,-0.5878,-0.5878,-0.6041,-0.6285,-0.6416,-0.6465,-0.6492]}]]